DEMNG SCIP-SCIR

Flight info

Callsign DEMNG
Flight time 10h 21m
Altitude 13000
Route ASALA2J ASALA DCT 30S100W DCT KEXEM DCT XONAT
Aircraft PA24/L-SDGRY/S

Departure

Time 2026-04-21 07:29
Airport Mataveri International Airport (SCIP)

Arrival

Time 2026-04-21 17:50
Airport Robinson Crusoe Airport (SCIR)
Time Latitude Longitude Altitude Speed Heading
2026-04-21 07:12 -27.15992 -109.42882 140 ft 0 kts 298°
2026-04-21 07:26 -27.15980 -109.42916 140 ft 8 kts 264°
2026-04-21 07:26 -27.15995 -109.42966 140 ft 6 kts 250°
2026-04-21 07:26 -27.16025 -109.42989 139 ft 0 kts 210°
2026-04-21 07:27 -27.16064 -109.43014 139 ft 11 kts 210°
2026-04-21 07:28 -27.16115 -109.42985 140 ft 0 kts 116°
2026-04-21 07:28 -27.16127 -109.42958 140 ft 24 kts 114°
2026-04-21 07:28 -27.16294 -109.42583 144 ft 76 kts 114°
2026-04-21 07:28 -27.16532 -109.42074 309 ft 72 kts 115°
2026-04-21 07:29 -27.16777 -109.41562 494 ft 74 kts 110°
2026-04-21 07:29 -27.16993 -109.40998 631 ft 79 kts 104°
2026-04-21 07:29 -27.17188 -109.40454 837 ft 75 kts 111°
2026-04-21 07:29 -27.17458 -109.39917 962 ft 84 kts 117°
2026-04-21 07:30 -27.17764 -109.39347 1123 ft 81 kts 112°
2026-04-21 07:30 -27.18024 -109.38784 1240 ft 86 kts 110°
2026-04-21 07:30 -27.18286 -109.38212 1432 ft 79 kts 111°
2026-04-21 07:30 -27.18536 -109.37637 1550 ft 85 kts 113°
2026-04-21 07:31 -27.18804 -109.37068 1722 ft 81 kts 113°
2026-04-21 07:31 -27.19061 -109.36519 1905 ft 78 kts 111°
2026-04-21 07:31 -27.19312 -109.35959 2021 ft 82 kts 112°
2026-04-21 07:31 -27.19574 -109.35383 2179 ft 83 kts 112°
2026-04-21 07:32 -27.19851 -109.34796 1950 ft 102 kts 117°
2026-04-21 07:32 -27.20171 -109.34141 2331 ft 62 kts 108°
2026-04-21 07:32 -27.20364 -109.33571 2173 ft 103 kts 110°
2026-04-21 07:32 -27.20560 -109.32928 2500 ft 82 kts 102°
2026-04-21 07:33 -27.20787 -109.32321 2607 ft 85 kts 120°
2026-04-21 07:33 -27.21106 -109.31791 2785 ft 83 kts 119°
2026-04-21 07:33 -27.21425 -109.31205 2911 ft 87 kts 118°
2026-04-21 07:33 -27.21715 -109.30630 3057 ft 86 kts 115°
2026-04-21 07:34 -27.22005 -109.30020 3229 ft 86 kts 114°
2026-04-21 07:34 -27.22268 -109.29424 3356 ft 88 kts 115°
2026-04-21 07:34 -27.22545 -109.28832 3543 ft 83 kts 116°
2026-04-21 07:34 -27.22811 -109.28240 3699 ft 87 kts 116°
2026-04-21 07:35 -27.23088 -109.27654 3896 ft 84 kts 117°
2026-04-21 07:35 -27.23362 -109.27062 4032 ft 89 kts 115°
2026-04-21 07:35 -27.23638 -109.26449 4232 ft 86 kts 115°
2026-04-21 07:35 -27.23912 -109.25827 4374 ft 90 kts 117°
2026-04-21 07:36 -27.24203 -109.25203 4558 ft 91 kts 115°
2026-04-21 07:36 -27.24480 -109.24567 4719 ft 90 kts 117°
2026-04-21 07:36 -27.24770 -109.23942 4893 ft 91 kts 118°
2026-04-21 07:36 -27.25078 -109.23326 5045 ft 89 kts 122°
2026-04-21 07:37 -27.25400 -109.22729 5201 ft 91 kts 122°
2026-04-21 07:37 -27.25742 -109.22118 5354 ft 92 kts 123°
2026-04-21 07:37 -27.26074 -109.21514 5518 ft 93 kts 123°
2026-04-21 07:37 -27.26412 -109.20900 5682 ft 92 kts 122°
2026-04-21 07:38 -27.26746 -109.20280 5840 ft 92 kts 122°
2026-04-21 07:38 -27.27073 -109.19665 6004 ft 92 kts 122°
2026-04-21 07:38 -27.27405 -109.19047 6157 ft 91 kts 122°
2026-04-21 07:38 -27.27728 -109.18455 6308 ft 89 kts 123°
2026-04-21 07:39 -27.28059 -109.17858 6436 ft 92 kts 123°
2026-04-21 07:39 -27.28397 -109.17258 6594 ft 89 kts 121°
2026-04-21 07:39 -27.28726 -109.16652 6730 ft 93 kts 121°
2026-04-21 07:39 -27.29055 -109.16018 6878 ft 94 kts 119°
2026-04-21 07:40 -27.29370 -109.15374 7026 ft 93 kts 121°
2026-04-21 07:40 -27.29711 -109.14743 7168 ft 93 kts 124°
2026-04-21 07:40 -27.30060 -109.14125 7302 ft 94 kts 123°
2026-04-21 07:40 -27.30399 -109.13499 7439 ft 95 kts 123°
2026-04-21 07:41 -27.30753 -109.12859 7580 ft 96 kts 122°
2026-04-21 07:41 -27.31096 -109.12215 7714 ft 97 kts 122°
2026-04-21 07:41 -27.31450 -109.11562 7850 ft 97 kts 122°
2026-04-21 07:41 -27.31793 -109.10917 7984 ft 95 kts 123°
2026-04-21 07:42 -27.32137 -109.10275 8109 ft 97 kts 123°
2026-04-21 07:42 -27.32481 -109.09629 8237 ft 96 kts 123°
2026-04-21 07:42 -27.32820 -109.08993 8358 ft 97 kts 124°
2026-04-21 07:42 -27.33176 -109.08343 8484 ft 99 kts 124°
2026-04-21 07:43 -27.33525 -109.07688 8606 ft 99 kts 124°
2026-04-21 07:43 -27.33885 -109.07025 8732 ft 99 kts 124°
2026-04-21 07:43 -27.34249 -109.06355 8855 ft 100 kts 123°
2026-04-21 07:43 -27.34606 -109.05683 8977 ft 100 kts 124°
2026-04-21 07:44 -27.34966 -109.05010 9096 ft 100 kts 124°
2026-04-21 07:44 -27.35320 -109.04338 9218 ft 100 kts 125°
2026-04-21 07:44 -27.35690 -109.03668 9336 ft 102 kts 125°
2026-04-21 07:44 -27.36058 -109.02987 9450 ft 102 kts 124°
2026-04-21 07:45 -27.36434 -109.02300 9575 ft 104 kts 124°
2026-04-21 07:45 -27.36805 -109.01603 9692 ft 104 kts 123°
2026-04-21 07:45 -27.37173 -109.00901 9816 ft 105 kts 124°
2026-04-21 07:45 -27.37552 -109.00202 9929 ft 105 kts 124°
2026-04-21 07:46 -27.37925 -108.99496 10040 ft 105 kts 124°
2026-04-21 07:46 -27.38302 -108.98788 10140 ft 106 kts 125°
2026-04-21 07:46 -27.38686 -108.98076 10241 ft 107 kts 125°
2026-04-21 07:46 -27.39077 -108.97361 10343 ft 108 kts 124°
2026-04-21 07:47 -27.39469 -108.96638 10441 ft 108 kts 124°
2026-04-21 07:47 -27.39849 -108.95906 10540 ft 109 kts 125°
2026-04-21 07:47 -27.40241 -108.95176 10643 ft 109 kts 124°
2026-04-21 07:47 -27.40630 -108.94439 10739 ft 110 kts 126°
2026-04-21 07:48 -27.41032 -108.93708 10841 ft 110 kts 126°
2026-04-21 07:48 -27.41428 -108.92967 10932 ft 111 kts 125°
2026-04-21 07:48 -27.41833 -108.92227 11030 ft 111 kts 125°
2026-04-21 07:48 -27.42233 -108.91493 11119 ft 112 kts 124°
2026-04-21 07:49 -27.42629 -108.90735 11220 ft 112 kts 125°
2026-04-21 07:49 -27.43038 -108.89982 11312 ft 113 kts 125°
2026-04-21 07:49 -27.43434 -108.89212 11410 ft 114 kts 126°
2026-04-21 07:49 -27.43848 -108.88452 11502 ft 114 kts 125°
2026-04-21 07:50 -27.44256 -108.87683 11593 ft 115 kts 125°
2026-04-21 07:50 -27.44675 -108.86921 11680 ft 115 kts 124°
2026-04-21 07:50 -27.45086 -108.86147 11770 ft 116 kts 124°
2026-04-21 07:50 -27.45501 -108.85368 11864 ft 116 kts 125°
2026-04-21 07:51 -27.45917 -108.84585 11953 ft 117 kts 125°
2026-04-21 07:51 -27.46336 -108.83795 12045 ft 118 kts 125°
2026-04-21 07:51 -27.46764 -108.83013 12129 ft 118 kts 125°
2026-04-21 07:51 -27.47186 -108.82221 12224 ft 118 kts 124°
2026-04-21 07:52 -27.47611 -108.81433 12318 ft 118 kts 124°
2026-04-21 07:52 -27.48033 -108.80634 12407 ft 119 kts 124°
2026-04-21 07:52 -27.48459 -108.79835 12485 ft 119 kts 124°
2026-04-21 07:52 -27.48887 -108.79026 12581 ft 121 kts 125°
2026-04-21 07:53 -27.49314 -108.78227 12670 ft 120 kts 125°
2026-04-21 07:53 -27.49747 -108.77422 12746 ft 120 kts 124°
2026-04-21 07:53 -27.50175 -108.76614 12834 ft 120 kts 125°
2026-04-21 07:53 -27.50605 -108.75810 12915 ft 120 kts 125°
2026-04-21 07:54 -27.51036 -108.75001 12995 ft 121 kts 125°
2026-04-21 07:54 -27.51472 -108.74191 13074 ft 121 kts 125°
2026-04-21 07:54 -27.51906 -108.73376 13154 ft 121 kts 125°
2026-04-21 07:54 -27.52340 -108.72563 13233 ft 121 kts 125°
2026-04-21 07:55 -27.52778 -108.71743 13311 ft 122 kts 125°
2026-04-21 07:55 -27.53216 -108.70923 13385 ft 122 kts 125°
2026-04-21 07:55 -27.53654 -108.70100 13459 ft 123 kts 125°
2026-04-21 07:55 -27.54093 -108.69276 13531 ft 123 kts 124°
2026-04-21 07:56 -27.54533 -108.68448 13609 ft 124 kts 125°
2026-04-21 07:56 -27.54975 -108.67616 13684 ft 124 kts 125°
2026-04-21 07:56 -27.55420 -108.66784 13755 ft 124 kts 125°
2026-04-21 07:56 -27.55871 -108.65947 13683 ft 129 kts 126°
2026-04-21 07:57 -27.56354 -108.65072 13597 ft 128 kts 126°
2026-04-21 07:57 -27.56812 -108.64219 13427 ft 130 kts 125°
2026-04-21 07:57 -27.57277 -108.63341 13294 ft 129 kts 124°
2026-04-21 07:57 -27.57732 -108.62473 13196 ft 126 kts 124°
2026-04-21 07:58 -27.58174 -108.61611 13238 ft 129 kts 123°
2026-04-21 07:58 -27.58639 -108.60714 13235 ft 135 kts 124°
2026-04-21 07:58 -27.59137 -108.59785 13225 ft 141 kts 125°
2026-04-21 07:58 -27.59652 -108.58829 13222 ft 145 kts 124°
2026-04-21 07:59 -27.60183 -108.57841 13216 ft 149 kts 124°
2026-04-21 07:59 -27.60719 -108.56833 13221 ft 151 kts 124°
2026-04-21 07:59 -27.61263 -108.55811 13217 ft 153 kts 124°
2026-04-21 07:59 -27.61806 -108.54788 13211 ft 154 kts 124°
2026-04-21 08:00 -27.62356 -108.53751 13217 ft 154 kts 124°
2026-04-21 08:00 -27.62906 -108.52709 13221 ft 155 kts 124°
2026-04-21 08:00 -27.63458 -108.51665 13223 ft 155 kts 124°
2026-04-21 08:00 -27.64013 -108.50617 13223 ft 156 kts 124°
2026-04-21 08:01 -27.64568 -108.49570 13222 ft 156 kts 124°
2026-04-21 08:01 -27.65127 -108.48519 13221 ft 156 kts 124°
2026-04-21 08:01 -27.65685 -108.47466 13220 ft 156 kts 124°
2026-04-21 08:02 -27.66802 -108.45361 13221 ft 157 kts 124°
2026-04-21 08:02 -27.67356 -108.44302 13220 ft 157 kts 122°
2026-04-21 08:02 -27.67797 -108.43181 13221 ft 157 kts 113°
2026-04-21 08:02 -27.68164 -108.42018 13217 ft 157 kts 112°
2026-04-21 08:03 -27.68527 -108.40854 13219 ft 157 kts 112°
2026-04-21 08:03 -27.68891 -108.39688 13220 ft 158 kts 112°
2026-04-21 08:03 -27.69256 -108.38520 13219 ft 158 kts 112°
2026-04-21 08:03 -27.69619 -108.37353 13219 ft 158 kts 112°
2026-04-21 08:04 -27.69984 -108.36183 13220 ft 158 kts 112°
2026-04-21 08:04 -27.70347 -108.35016 13219 ft 158 kts 112°
2026-04-21 08:04 -27.70710 -108.33849 13219 ft 158 kts 112°
2026-04-21 08:04 -27.71070 -108.32696 13219 ft 158 kts 112°
2026-04-21 08:05 -27.71434 -108.31525 13221 ft 159 kts 113°
2026-04-21 08:05 -27.71799 -108.30349 13220 ft 159 kts 113°
2026-04-21 08:05 -27.72165 -108.29172 13219 ft 159 kts 113°
2026-04-21 08:05 -27.72531 -108.27996 13220 ft 159 kts 113°
2026-04-21 08:06 -27.72900 -108.26820 13220 ft 159 kts 113°
2026-04-21 08:06 -27.73267 -108.25644 13220 ft 159 kts 113°
2026-04-21 08:06 -27.73632 -108.24468 13219 ft 159 kts 113°
2026-04-21 08:06 -27.73998 -108.23291 13219 ft 159 kts 113°
2026-04-21 08:07 -27.74366 -108.22115 13217 ft 159 kts 113°
2026-04-21 08:07 -27.74732 -108.20939 13217 ft 159 kts 113°
2026-04-21 08:07 -27.75100 -108.19761 13217 ft 159 kts 113°
2026-04-21 08:07 -27.75466 -108.18582 13217 ft 159 kts 113°
2026-04-21 08:08 -27.75831 -108.17406 13216 ft 159 kts 113°
2026-04-21 08:08 -27.76198 -108.16229 13216 ft 159 kts 113°
2026-04-21 08:08 -27.76563 -108.15050 13217 ft 159 kts 113°
2026-04-21 08:08 -27.76928 -108.13871 13217 ft 159 kts 113°
2026-04-21 08:09 -27.77293 -108.12691 13218 ft 159 kts 113°
2026-04-21 08:09 -27.77660 -108.11511 13217 ft 159 kts 113°
2026-04-21 08:09 -27.78026 -108.10330 13217 ft 159 kts 112°
2026-04-21 08:09 -27.78393 -108.09149 13217 ft 159 kts 113°
2026-04-21 08:10 -27.78759 -108.07970 13216 ft 159 kts 113°
2026-04-21 08:10 -27.79124 -108.06792 13216 ft 159 kts 113°
2026-04-21 08:10 -27.79489 -108.05614 13216 ft 159 kts 113°
2026-04-21 08:10 -27.79853 -108.04437 13217 ft 159 kts 112°
2026-04-21 08:11 -27.80217 -108.03259 13218 ft 159 kts 113°
2026-04-21 08:11 -27.80579 -108.02095 13217 ft 159 kts 112°
2026-04-21 08:11 -27.80944 -108.00916 13217 ft 159 kts 112°
2026-04-21 08:11 -27.81306 -107.99737 13217 ft 159 kts 112°
2026-04-21 08:12 -27.81670 -107.98559 13219 ft 159 kts 113°
2026-04-21 08:12 -27.82036 -107.97377 13219 ft 159 kts 112°
2026-04-21 08:12 -27.82399 -107.96197 13219 ft 159 kts 112°
2026-04-21 08:12 -27.82763 -107.95016 13220 ft 159 kts 112°
2026-04-21 08:13 -27.83129 -107.93834 13219 ft 159 kts 113°
2026-04-21 08:13 -27.83494 -107.92654 13220 ft 159 kts 113°
2026-04-21 08:13 -27.83859 -107.91472 13219 ft 159 kts 112°
2026-04-21 08:13 -27.84223 -107.90291 13220 ft 159 kts 112°
2026-04-21 08:14 -27.84585 -107.89109 13216 ft 159 kts 112°
2026-04-21 08:14 -27.84949 -107.87928 13220 ft 159 kts 113°
2026-04-21 08:14 -27.85314 -107.86748 13220 ft 159 kts 113°
2026-04-21 08:14 -27.85677 -107.85568 13219 ft 159 kts 112°
2026-04-21 08:15 -27.86042 -107.84387 13219 ft 159 kts 112°
2026-04-21 08:15 -27.86406 -107.83207 13219 ft 159 kts 112°
2026-04-21 08:15 -27.86770 -107.82026 13219 ft 159 kts 112°
2026-04-21 08:15 -27.87133 -107.80844 13219 ft 159 kts 112°
2026-04-21 08:16 -27.87373 -107.80061 13219 ft 159 kts 112°
2026-04-21 08:16 -27.87735 -107.78876 13219 ft 159 kts 112°
2026-04-21 08:16 -27.88098 -107.77691 13219 ft 159 kts 112°
2026-04-21 08:16 -27.88462 -107.76505 13202 ft 161 kts 112°
2026-04-21 08:17 -27.88827 -107.75315 13208 ft 160 kts 112°
2026-04-21 08:17 -27.89308 -107.73745 13215 ft 159 kts 112°
2026-04-21 08:17 -27.89551 -107.72947 13217 ft 159 kts 113°
2026-04-21 08:17 -27.89912 -107.71766 13219 ft 159 kts 113°
2026-04-21 08:18 -27.90275 -107.70587 13221 ft 159 kts 113°
2026-04-21 08:18 -27.90638 -107.69405 13220 ft 159 kts 113°
2026-04-21 08:18 -27.91000 -107.68226 13220 ft 159 kts 113°
2026-04-21 08:18 -27.91363 -107.67047 13220 ft 159 kts 113°
2026-04-21 08:19 -27.91726 -107.65865 13214 ft 159 kts 113°
2026-04-21 08:19 -27.92088 -107.64685 13216 ft 159 kts 113°
2026-04-21 08:19 -27.92444 -107.63522 13216 ft 159 kts 113°
2026-04-21 08:19 -27.92805 -107.62341 13216 ft 159 kts 113°
2026-04-21 08:20 -27.93165 -107.61160 13222 ft 159 kts 113°
2026-04-21 08:20 -27.93526 -107.59979 13222 ft 159 kts 113°
2026-04-21 08:20 -27.93887 -107.58800 13222 ft 159 kts 113°
2026-04-21 08:20 -27.94247 -107.57618 13222 ft 159 kts 113°
2026-04-21 08:21 -27.94609 -107.56433 13221 ft 159 kts 113°
2026-04-21 08:21 -27.94969 -107.55252 13222 ft 159 kts 113°
2026-04-21 08:21 -27.95329 -107.54074 13222 ft 159 kts 113°
2026-04-21 08:21 -27.95689 -107.52893 13222 ft 159 kts 113°
2026-04-21 08:22 -27.96049 -107.51712 13222 ft 159 kts 113°
2026-04-21 08:22 -27.96409 -107.50530 13220 ft 159 kts 113°
2026-04-21 08:22 -27.96770 -107.49349 13220 ft 159 kts 113°
2026-04-21 08:22 -27.97129 -107.48168 13220 ft 159 kts 113°
2026-04-21 08:23 -27.97488 -107.46986 13219 ft 159 kts 113°
2026-04-21 08:23 -27.97848 -107.45804 13219 ft 159 kts 113°
2026-04-21 08:23 -27.98208 -107.44621 13219 ft 159 kts 113°
2026-04-21 08:23 -27.98566 -107.43439 13219 ft 159 kts 113°
2026-04-21 08:24 -27.98925 -107.42258 13219 ft 159 kts 113°
2026-04-21 08:24 -27.99284 -107.41078 13219 ft 158 kts 113°
2026-04-21 08:24 -27.99643 -107.39899 13219 ft 159 kts 113°
2026-04-21 08:24 -27.99998 -107.38720 13220 ft 158 kts 113°
2026-04-21 08:25 -28.00353 -107.37540 13220 ft 158 kts 113°
2026-04-21 08:25 -28.00713 -107.36362 13220 ft 158 kts 114°
2026-04-21 08:25 -28.01072 -107.35183 13219 ft 158 kts 113°
2026-04-21 08:25 -28.01429 -107.34006 13219 ft 158 kts 113°
2026-04-21 08:26 -28.01786 -107.32828 13219 ft 158 kts 113°
2026-04-21 08:26 -28.02144 -107.31650 13222 ft 158 kts 113°
2026-04-21 08:26 -28.02501 -107.30472 13223 ft 158 kts 113°
2026-04-21 08:26 -28.02860 -107.29292 13223 ft 158 kts 113°
2026-04-21 08:27 -28.03219 -107.28112 13225 ft 158 kts 113°
2026-04-21 08:27 -28.03576 -107.26933 13223 ft 159 kts 113°
2026-04-21 08:27 -28.03930 -107.25767 13222 ft 159 kts 113°
2026-04-21 08:27 -28.04287 -107.24584 13222 ft 159 kts 113°
2026-04-21 08:28 -28.04643 -107.23402 13217 ft 159 kts 113°
2026-04-21 08:28 -28.04999 -107.22220 13220 ft 159 kts 113°
2026-04-21 08:28 -28.05356 -107.21038 13219 ft 159 kts 113°
2026-04-21 08:28 -28.05714 -107.19857 13219 ft 159 kts 113°
2026-04-21 08:29 -28.06070 -107.18674 13222 ft 159 kts 113°
2026-04-21 08:29 -28.06427 -107.17492 13220 ft 159 kts 113°
2026-04-21 08:29 -28.06784 -107.16310 13220 ft 159 kts 113°
2026-04-21 08:29 -28.07140 -107.15129 13220 ft 159 kts 113°
2026-04-21 08:30 -28.07496 -107.13947 13217 ft 159 kts 113°
2026-04-21 08:30 -28.07851 -107.12765 13219 ft 159 kts 113°
2026-04-21 08:30 -28.08208 -107.11583 13219 ft 159 kts 113°
2026-04-21 08:30 -28.08566 -107.10400 13220 ft 159 kts 113°
2026-04-21 08:31 -28.08921 -107.09220 13221 ft 158 kts 113°
2026-04-21 08:31 -28.09275 -107.08039 13220 ft 158 kts 113°
2026-04-21 08:31 -28.09631 -107.06857 13219 ft 159 kts 113°
2026-04-21 08:31 -28.09985 -107.05674 13220 ft 158 kts 113°
2026-04-21 08:32 -28.10340 -107.04492 13223 ft 158 kts 113°
2026-04-21 08:32 -28.10692 -107.03312 13221 ft 158 kts 114°
2026-04-21 08:32 -28.11048 -107.02133 13219 ft 158 kts 114°
2026-04-21 08:32 -28.11399 -107.00969 13219 ft 158 kts 114°
2026-04-21 08:33 -28.11754 -106.99790 13217 ft 158 kts 114°
2026-04-21 08:33 -28.12107 -106.98612 13216 ft 158 kts 113°
2026-04-21 08:33 -28.12459 -106.97434 13216 ft 158 kts 114°
2026-04-21 08:33 -28.12812 -106.96258 13216 ft 158 kts 114°
2026-04-21 08:34 -28.13166 -106.95081 13219 ft 158 kts 114°
2026-04-21 08:34 -28.13521 -106.93903 13218 ft 158 kts 113°
2026-04-21 08:34 -28.13874 -106.92726 13216 ft 158 kts 114°
2026-04-21 08:34 -28.14227 -106.91547 13217 ft 158 kts 114°
2026-04-21 08:35 -28.14580 -106.90370 13218 ft 158 kts 113°
2026-04-21 08:35 -28.14930 -106.89192 13218 ft 158 kts 113°
2026-04-21 08:35 -28.15282 -106.88013 13219 ft 158 kts 114°
2026-04-21 08:35 -28.15635 -106.86835 13220 ft 158 kts 114°
2026-04-21 08:36 -28.15989 -106.85657 13222 ft 158 kts 113°
2026-04-21 08:36 -28.16340 -106.84476 13219 ft 158 kts 113°
2026-04-21 08:36 -28.16692 -106.83297 13221 ft 158 kts 114°
2026-04-21 08:36 -28.17045 -106.82116 13219 ft 158 kts 114°
2026-04-21 08:37 -28.17399 -106.80936 13219 ft 158 kts 113°
2026-04-21 08:37 -28.17750 -106.79755 13220 ft 158 kts 113°
2026-04-21 08:37 -28.18103 -106.78574 13219 ft 158 kts 113°
2026-04-21 08:37 -28.18454 -106.77395 13219 ft 158 kts 113°
2026-04-21 08:38 -28.18805 -106.76212 13222 ft 158 kts 113°
2026-04-21 08:38 -28.19158 -106.75032 13222 ft 158 kts 113°
2026-04-21 08:38 -28.19510 -106.73853 13223 ft 158 kts 113°
2026-04-21 08:38 -28.19862 -106.72672 13221 ft 158 kts 113°
2026-04-21 08:39 -28.20215 -106.71490 13220 ft 158 kts 113°
2026-04-21 08:39 -28.20566 -106.70309 13220 ft 158 kts 113°
2026-04-21 08:39 -28.20916 -106.69128 13219 ft 158 kts 113°
2026-04-21 08:39 -28.21261 -106.67958 13224 ft 159 kts 113°
2026-04-21 08:40 -28.21613 -106.66769 13227 ft 159 kts 113°
2026-04-21 08:40 -28.21965 -106.65579 13225 ft 159 kts 114°
2026-04-21 08:40 -28.22321 -106.64392 13226 ft 159 kts 114°
2026-04-21 08:40 -28.22675 -106.63203 13224 ft 159 kts 114°
2026-04-21 08:41 -28.23029 -106.62013 13227 ft 159 kts 114°
2026-04-21 08:41 -28.23382 -106.60822 13225 ft 159 kts 114°
2026-04-21 08:41 -28.23734 -106.59631 13224 ft 159 kts 114°
2026-04-21 08:41 -28.24088 -106.58442 13226 ft 159 kts 114°
2026-04-21 08:42 -28.24441 -106.57252 13219 ft 159 kts 114°
2026-04-21 08:42 -28.24794 -106.56066 13221 ft 159 kts 114°
2026-04-21 08:42 -28.25146 -106.54878 13222 ft 159 kts 114°
2026-04-21 08:42 -28.25497 -106.53690 13222 ft 159 kts 114°
2026-04-21 08:43 -28.25848 -106.52503 13223 ft 159 kts 114°
2026-04-21 08:43 -28.26200 -106.51313 13221 ft 159 kts 114°
2026-04-21 08:43 -28.26551 -106.50125 13221 ft 159 kts 114°
2026-04-21 08:43 -28.26903 -106.48937 13222 ft 159 kts 114°
2026-04-21 08:44 -28.27253 -106.47750 13224 ft 159 kts 114°
2026-04-21 08:44 -28.27598 -106.46578 13223 ft 159 kts 114°
2026-04-21 08:44 -28.27949 -106.45390 13223 ft 159 kts 114°
2026-04-21 08:44 -28.28301 -106.44197 13224 ft 159 kts 114°
2026-04-21 08:45 -28.28654 -106.43007 13223 ft 159 kts 114°
2026-04-21 08:45 -28.29004 -106.41817 13223 ft 159 kts 114°
2026-04-21 08:45 -28.29355 -106.40626 13223 ft 159 kts 114°
2026-04-21 08:45 -28.29706 -106.39436 13223 ft 159 kts 114°
2026-04-21 08:46 -28.30060 -106.38242 13226 ft 160 kts 114°
2026-04-21 08:46 -28.30412 -106.37050 13223 ft 159 kts 113°
2026-04-21 08:46 -28.30761 -106.35856 13223 ft 159 kts 114°
2026-04-21 08:46 -28.31111 -106.34664 13226 ft 159 kts 113°
2026-04-21 08:47 -28.31458 -106.33465 13226 ft 160 kts 114°
2026-04-21 08:47 -28.31812 -106.32268 13225 ft 160 kts 114°
2026-04-21 08:47 -28.32166 -106.31075 13214 ft 159 kts 114°
2026-04-21 08:47 -28.32520 -106.29882 13224 ft 160 kts 114°
2026-04-21 08:48 -28.32870 -106.28687 13217 ft 159 kts 113°
2026-04-21 08:48 -28.33216 -106.27491 13212 ft 159 kts 114°
2026-04-21 08:48 -28.33568 -106.26298 13220 ft 159 kts 114°
2026-04-21 08:48 -28.33922 -106.25107 13216 ft 159 kts 114°
2026-04-21 08:49 -28.34277 -106.23914 13224 ft 159 kts 114°
2026-04-21 08:49 -28.34623 -106.22718 13225 ft 159 kts 113°
2026-04-21 08:49 -28.34968 -106.21521 13225 ft 160 kts 114°
2026-04-21 08:49 -28.35314 -106.20339 13222 ft 160 kts 114°
2026-04-21 08:50 -28.35665 -106.19145 13219 ft 160 kts 114°
2026-04-21 08:50 -28.36017 -106.17948 13221 ft 160 kts 114°
2026-04-21 08:50 -28.36370 -106.16754 13215 ft 160 kts 114°
2026-04-21 08:50 -28.36721 -106.15561 13221 ft 159 kts 114°
2026-04-21 08:51 -28.37070 -106.14364 13219 ft 160 kts 114°
2026-04-21 08:51 -28.37419 -106.13167 13219 ft 160 kts 114°
2026-04-21 08:51 -28.37769 -106.11971 13216 ft 159 kts 114°
2026-04-21 08:51 -28.38119 -106.10781 13218 ft 159 kts 114°
2026-04-21 08:52 -28.38465 -106.09588 13218 ft 159 kts 114°
2026-04-21 08:52 -28.38810 -106.08392 13219 ft 159 kts 114°
2026-04-21 08:52 -28.39157 -106.07198 13219 ft 159 kts 114°
2026-04-21 08:52 -28.39508 -106.06006 13214 ft 159 kts 114°
2026-04-21 08:53 -28.39860 -106.04818 13218 ft 159 kts 114°
2026-04-21 08:53 -28.40209 -106.03625 13222 ft 159 kts 114°
2026-04-21 08:53 -28.40558 -106.02432 13222 ft 160 kts 113°
2026-04-21 08:53 -28.40902 -106.01231 13222 ft 160 kts 114°
2026-04-21 08:54 -28.41251 -106.00035 13220 ft 160 kts 114°
2026-04-21 08:54 -28.41597 -105.98838 13218 ft 160 kts 114°
2026-04-21 08:54 -28.41942 -105.97634 13217 ft 160 kts 114°
2026-04-21 08:54 -28.42289 -105.96437 13220 ft 160 kts 114°
2026-04-21 08:55 -28.42637 -105.95234 13222 ft 161 kts 114°
2026-04-21 08:55 -28.42983 -105.94048 13225 ft 160 kts 114°
2026-04-21 08:55 -28.43339 -105.92831 13219 ft 160 kts 114°
2026-04-21 08:55 -28.43686 -105.91654 13219 ft 159 kts 114°
2026-04-21 08:56 -28.44036 -105.90439 13221 ft 159 kts 114°
2026-04-21 08:56 -28.44378 -105.89239 13219 ft 160 kts 114°
2026-04-21 08:56 -28.44731 -105.88039 13221 ft 160 kts 115°
2026-04-21 08:56 -28.45079 -105.86859 13215 ft 159 kts 114°
2026-04-21 08:57 -28.45429 -105.85666 13217 ft 159 kts 114°
2026-04-21 08:57 -28.45778 -105.84472 13221 ft 160 kts 114°
2026-04-21 08:57 -28.46125 -105.83272 13222 ft 160 kts 114°
2026-04-21 08:57 -28.46467 -105.82070 13217 ft 160 kts 114°
2026-04-21 08:58 -28.46816 -105.80873 13224 ft 160 kts 115°
2026-04-21 08:58 -28.47170 -105.79679 13218 ft 159 kts 114°
2026-04-21 08:58 -28.47516 -105.78480 13216 ft 160 kts 114°
2026-04-21 08:58 -28.47858 -105.77277 13217 ft 160 kts 114°
2026-04-21 08:59 -28.48202 -105.76068 13221 ft 161 kts 114°
2026-04-21 08:59 -28.48547 -105.74865 13222 ft 160 kts 114°
2026-04-21 08:59 -28.48892 -105.73661 13222 ft 160 kts 114°
2026-04-21 08:59 -28.49245 -105.72466 13218 ft 160 kts 114°
2026-04-21 09:00 -28.49591 -105.71264 13222 ft 160 kts 114°
2026-04-21 09:00 -28.49939 -105.70062 13223 ft 160 kts 114°
2026-04-21 09:00 -28.50283 -105.68860 13219 ft 160 kts 114°
2026-04-21 09:00 -28.50630 -105.67657 13224 ft 160 kts 114°
2026-04-21 09:01 -28.50982 -105.66458 13212 ft 160 kts 114°
2026-04-21 09:01 -28.51330 -105.65260 13216 ft 160 kts 114°
2026-04-21 09:01 -28.51674 -105.64060 13223 ft 160 kts 114°
2026-04-21 09:01 -28.52009 -105.62855 13222 ft 160 kts 114°
2026-04-21 09:02 -28.52358 -105.61656 13225 ft 160 kts 114°
2026-04-21 09:02 -28.52711 -105.60461 13217 ft 159 kts 114°
2026-04-21 09:02 -28.53056 -105.59263 13218 ft 160 kts 114°
2026-04-21 09:03 -28.53736 -105.56858 13224 ft 160 kts 114°
2026-04-21 09:03 -28.54081 -105.55655 13221 ft 160 kts 115°
2026-04-21 09:03 -28.54309 -105.54860 13218 ft 160 kts 114°
2026-04-21 09:03 -28.54660 -105.53663 13222 ft 159 kts 114°
2026-04-21 09:04 -28.55003 -105.52460 13217 ft 160 kts 114°
2026-04-21 09:04 -28.55341 -105.51253 13224 ft 160 kts 114°
2026-04-21 09:04 -28.55687 -105.50052 13224 ft 160 kts 115°
2026-04-21 09:04 -28.56145 -105.48466 13224 ft 159 kts 114°
2026-04-21 09:05 -28.56373 -105.47656 13223 ft 160 kts 114°
2026-04-21 09:05 -28.56724 -105.46458 13225 ft 160 kts 114°
2026-04-21 09:05 -28.57070 -105.45255 13225 ft 160 kts 114°
2026-04-21 09:05 -28.57414 -105.44050 13224 ft 160 kts 114°
2026-04-21 09:06 -28.57757 -105.42849 13226 ft 160 kts 114°
2026-04-21 09:06 -28.58099 -105.41648 13223 ft 159 kts 115°
2026-04-21 09:06 -28.58450 -105.40452 13227 ft 159 kts 114°
2026-04-21 09:06 -28.58794 -105.39252 13227 ft 160 kts 114°
2026-04-21 09:07 -28.59132 -105.38049 13212 ft 160 kts 114°
2026-04-21 09:07 -28.59469 -105.36839 13225 ft 160 kts 114°
2026-04-21 09:07 -28.59818 -105.35637 13227 ft 160 kts 114°
2026-04-21 09:07 -28.60167 -105.34434 13227 ft 160 kts 114°
2026-04-21 09:08 -28.60507 -105.33231 13225 ft 160 kts 114°
2026-04-21 09:08 -28.60849 -105.32031 13223 ft 160 kts 114°
2026-04-21 09:08 -28.61184 -105.30843 13227 ft 160 kts 114°
2026-04-21 09:08 -28.61527 -105.29640 13227 ft 160 kts 114°
2026-04-21 09:09 -28.61873 -105.28437 13232 ft 160 kts 114°
2026-04-21 09:09 -28.62221 -105.27240 13229 ft 160 kts 114°
2026-04-21 09:09 -28.62559 -105.26032 13224 ft 160 kts 114°
2026-04-21 09:09 -28.62900 -105.24826 13227 ft 160 kts 114°
2026-04-21 09:10 -28.63237 -105.23618 13223 ft 159 kts 114°
2026-04-21 09:10 -28.63578 -105.22416 13227 ft 159 kts 114°
2026-04-21 09:10 -28.63925 -105.21218 13227 ft 159 kts 114°
2026-04-21 09:10 -28.64265 -105.20017 13227 ft 160 kts 114°
2026-04-21 09:11 -28.64605 -105.18817 13221 ft 159 kts 114°
2026-04-21 09:11 -28.64934 -105.17611 13221 ft 159 kts 114°
2026-04-21 09:11 -28.65283 -105.16416 13221 ft 159 kts 115°
2026-04-21 09:11 -28.65632 -105.15222 13224 ft 159 kts 114°
2026-04-21 09:12 -28.65973 -105.14024 13225 ft 160 kts 114°
2026-04-21 09:12 -28.66313 -105.12818 13227 ft 160 kts 114°
2026-04-21 09:12 -28.66656 -105.11617 13227 ft 159 kts 114°
2026-04-21 09:12 -28.66994 -105.10416 13223 ft 159 kts 114°
2026-04-21 09:13 -28.67326 -105.09212 13223 ft 159 kts 114°
2026-04-21 09:13 -28.67664 -105.08013 13227 ft 159 kts 114°
2026-04-21 09:13 -28.68007 -105.06810 13227 ft 159 kts 114°
2026-04-21 09:13 -28.68344 -105.05621 13226 ft 160 kts 114°
2026-04-21 09:14 -28.68683 -105.04415 13223 ft 160 kts 114°
2026-04-21 09:14 -28.69026 -105.03214 13224 ft 160 kts 114°
2026-04-21 09:14 -28.69371 -105.02009 13223 ft 160 kts 114°
2026-04-21 09:14 -28.69714 -105.00803 13220 ft 160 kts 114°
2026-04-21 09:15 -28.70053 -104.99596 13226 ft 160 kts 114°
2026-04-21 09:15 -28.70393 -104.98384 13222 ft 161 kts 114°
2026-04-21 09:15 -28.70735 -104.97173 13226 ft 161 kts 114°
2026-04-21 09:15 -28.71080 -104.95963 13227 ft 160 kts 114°
2026-04-21 09:16 -28.71422 -104.94755 13226 ft 160 kts 113°
2026-04-21 09:16 -28.71760 -104.93543 13222 ft 161 kts 113°
2026-04-21 09:16 -28.72098 -104.92330 13229 ft 161 kts 113°
2026-04-21 09:16 -28.72438 -104.91115 13225 ft 160 kts 113°
2026-04-21 09:17 -28.72775 -104.89903 13227 ft 160 kts 113°
2026-04-21 09:17 -28.73118 -104.88696 13227 ft 160 kts 113°
2026-04-21 09:17 -28.73460 -104.87482 13222 ft 160 kts 114°
2026-04-21 09:17 -28.73804 -104.86272 13221 ft 161 kts 114°
2026-04-21 09:18 -28.74142 -104.85059 13226 ft 160 kts 114°
2026-04-21 09:18 -28.74483 -104.83849 13222 ft 161 kts 114°
2026-04-21 09:18 -28.74824 -104.82637 13221 ft 161 kts 113°
2026-04-21 09:18 -28.75162 -104.81423 13224 ft 161 kts 113°
2026-04-21 09:19 -28.75503 -104.80213 13223 ft 160 kts 114°
2026-04-21 09:19 -28.75840 -104.79001 13226 ft 161 kts 114°
2026-04-21 09:19 -28.76182 -104.77792 13224 ft 161 kts 114°
2026-04-21 09:19 -28.76520 -104.76581 13227 ft 160 kts 113°
2026-04-21 09:20 -28.76853 -104.75390 13226 ft 160 kts 113°
2026-04-21 09:20 -28.77192 -104.74176 13226 ft 160 kts 113°
2026-04-21 09:20 -28.77531 -104.72968 13226 ft 160 kts 114°
2026-04-21 09:20 -28.77870 -104.71757 13226 ft 160 kts 114°
2026-04-21 09:21 -28.78214 -104.70550 13225 ft 160 kts 114°
2026-04-21 09:21 -28.78555 -104.69344 13225 ft 160 kts 113°
2026-04-21 09:21 -28.78888 -104.68134 13225 ft 160 kts 113°
2026-04-21 09:21 -28.79225 -104.66922 13230 ft 161 kts 114°
2026-04-21 09:22 -28.79562 -104.65705 13224 ft 161 kts 114°
2026-04-21 09:22 -28.79898 -104.64487 13225 ft 161 kts 113°
2026-04-21 09:22 -28.80238 -104.63271 13227 ft 161 kts 114°
2026-04-21 09:22 -28.80580 -104.62058 13226 ft 161 kts 113°
2026-04-21 09:23 -28.80917 -104.60845 13221 ft 161 kts 114°
2026-04-21 09:23 -28.81252 -104.59628 13224 ft 161 kts 114°
2026-04-21 09:23 -28.81593 -104.58413 13224 ft 161 kts 114°
2026-04-21 09:23 -28.81933 -104.57199 13227 ft 160 kts 113°
2026-04-21 09:24 -28.82270 -104.55985 13221 ft 160 kts 113°
2026-04-21 09:24 -28.82602 -104.54787 13224 ft 161 kts 114°
2026-04-21 09:24 -28.82942 -104.53572 13227 ft 161 kts 114°
2026-04-21 09:24 -28.83282 -104.52358 13227 ft 160 kts 114°
2026-04-21 09:25 -28.83619 -104.51145 13227 ft 161 kts 114°
2026-04-21 09:25 -28.83962 -104.49934 13229 ft 160 kts 113°
2026-04-21 09:25 -28.84299 -104.48721 13224 ft 161 kts 113°
2026-04-21 09:25 -28.84633 -104.47502 13227 ft 161 kts 113°
2026-04-21 09:26 -28.84966 -104.46282 13232 ft 161 kts 113°
2026-04-21 09:26 -28.85302 -104.45066 13230 ft 161 kts 113°
2026-04-21 09:26 -28.85642 -104.43854 13228 ft 161 kts 114°
2026-04-21 09:26 -28.85982 -104.42639 13229 ft 161 kts 113°
2026-04-21 09:27 -28.86319 -104.41422 13226 ft 161 kts 114°
2026-04-21 09:27 -28.86655 -104.40203 13229 ft 161 kts 113°
2026-04-21 09:27 -28.86992 -104.38986 13224 ft 161 kts 113°
2026-04-21 09:27 -28.87330 -104.37769 13229 ft 161 kts 114°
2026-04-21 09:28 -28.87668 -104.36553 13223 ft 161 kts 113°
2026-04-21 09:28 -28.88002 -104.35334 13225 ft 161 kts 113°
2026-04-21 09:28 -28.88335 -104.34117 13229 ft 161 kts 113°
2026-04-21 09:28 -28.88672 -104.32900 13229 ft 160 kts 114°
2026-04-21 09:29 -28.89010 -104.31687 13225 ft 160 kts 113°
2026-04-21 09:29 -28.89345 -104.30479 13229 ft 160 kts 113°
2026-04-21 09:29 -28.89677 -104.29267 13229 ft 160 kts 113°
2026-04-21 09:29 -28.90013 -104.28054 13229 ft 160 kts 113°
2026-04-21 09:30 -28.90349 -104.26840 13224 ft 160 kts 114°
2026-04-21 09:30 -28.90685 -104.25629 13229 ft 160 kts 113°
2026-04-21 09:30 -28.91019 -104.24417 13229 ft 160 kts 113°
2026-04-21 09:30 -28.91347 -104.23219 13229 ft 160 kts 113°
2026-04-21 09:31 -28.91680 -104.22004 13231 ft 160 kts 113°
2026-04-21 09:31 -28.92013 -104.20785 13230 ft 161 kts 113°
2026-04-21 09:31 -28.92347 -104.19572 13225 ft 160 kts 113°
2026-04-21 09:31 -28.92679 -104.18358 13227 ft 160 kts 113°
2026-04-21 09:32 -28.93017 -104.17147 13228 ft 160 kts 113°
2026-04-21 09:32 -28.93349 -104.15938 13229 ft 160 kts 113°
2026-04-21 09:32 -28.93677 -104.14726 13227 ft 160 kts 113°
2026-04-21 09:32 -28.94009 -104.13511 13229 ft 160 kts 114°
2026-04-21 09:33 -28.94348 -104.12300 13220 ft 160 kts 114°
2026-04-21 09:33 -28.94685 -104.11094 13226 ft 159 kts 113°
2026-04-21 09:33 -28.95013 -104.09879 13227 ft 160 kts 112°
2026-04-21 09:33 -28.95340 -104.08668 13229 ft 160 kts 114°
2026-04-21 09:34 -28.95674 -104.07454 13227 ft 160 kts 113°
2026-04-21 09:34 -28.96011 -104.06245 13229 ft 160 kts 113°
2026-04-21 09:34 -28.96339 -104.05034 13227 ft 160 kts 113°
2026-04-21 09:34 -28.96671 -104.03825 13226 ft 160 kts 113°
2026-04-21 09:35 -28.96996 -104.02628 13229 ft 160 kts 113°
2026-04-21 09:35 -28.97326 -104.01412 13232 ft 160 kts 113°
2026-04-21 09:35 -28.97662 -104.00201 13230 ft 160 kts 113°
2026-04-21 09:35 -28.97995 -103.98989 13227 ft 160 kts 113°
2026-04-21 09:36 -28.98329 -103.97779 13232 ft 160 kts 113°
2026-04-21 09:36 -28.98661 -103.96563 13232 ft 160 kts 113°
2026-04-21 09:36 -28.98993 -103.95348 13232 ft 161 kts 113°
2026-04-21 09:36 -28.99323 -103.94127 13231 ft 160 kts 113°
2026-04-21 09:37 -28.99654 -103.92910 13231 ft 160 kts 113°
2026-04-21 09:37 -28.99988 -103.91700 13232 ft 160 kts 113°
2026-04-21 09:37 -29.00314 -103.90484 13232 ft 160 kts 113°
2026-04-21 09:37 -29.00642 -103.89269 13229 ft 160 kts 113°
2026-04-21 09:38 -29.00972 -103.88052 13229 ft 161 kts 113°
2026-04-21 09:38 -29.01303 -103.86836 13226 ft 160 kts 113°
2026-04-21 09:38 -29.01635 -103.85622 13232 ft 160 kts 113°
2026-04-21 09:38 -29.01970 -103.84413 13233 ft 160 kts 113°
2026-04-21 09:39 -29.02302 -103.83200 13231 ft 160 kts 113°
2026-04-21 09:39 -29.02632 -103.81980 13230 ft 161 kts 113°
2026-04-21 09:39 -29.02964 -103.80762 13230 ft 160 kts 112°
2026-04-21 09:39 -29.03294 -103.79545 13230 ft 160 kts 112°
2026-04-21 09:40 -29.03625 -103.78329 13231 ft 160 kts 112°
2026-04-21 09:40 -29.03953 -103.77112 13229 ft 160 kts 112°
2026-04-21 09:40 -29.04278 -103.75892 13231 ft 161 kts 112°
2026-04-21 09:40 -29.04609 -103.74672 13230 ft 161 kts 113°
2026-04-21 09:41 -29.04942 -103.73455 13230 ft 160 kts 113°
2026-04-21 09:41 -29.05276 -103.72237 13231 ft 160 kts 112°
2026-04-21 09:41 -29.05603 -103.71020 13230 ft 160 kts 112°
2026-04-21 09:41 -29.05928 -103.69821 13230 ft 160 kts 112°
2026-04-21 09:42 -29.06258 -103.68603 13230 ft 160 kts 112°
2026-04-21 09:42 -29.06586 -103.67385 13230 ft 160 kts 112°
2026-04-21 09:42 -29.06913 -103.66168 13230 ft 160 kts 112°
2026-04-21 09:42 -29.07243 -103.64954 13231 ft 160 kts 112°
2026-04-21 09:43 -29.07572 -103.63741 13230 ft 160 kts 112°
2026-04-21 09:43 -29.07899 -103.62526 13230 ft 160 kts 112°
2026-04-21 09:43 -29.08228 -103.61309 13230 ft 160 kts 112°
2026-04-21 09:43 -29.08554 -103.60093 13231 ft 160 kts 112°
2026-04-21 09:44 -29.08883 -103.58879 13231 ft 160 kts 112°
2026-04-21 09:44 -29.09211 -103.57662 13230 ft 160 kts 112°
2026-04-21 09:44 -29.09539 -103.56441 13230 ft 161 kts 112°
2026-04-21 09:44 -29.09869 -103.55218 13230 ft 160 kts 112°
2026-04-21 09:45 -29.10198 -103.54001 13230 ft 160 kts 112°
2026-04-21 09:45 -29.10528 -103.52784 13230 ft 160 kts 112°
2026-04-21 09:45 -29.10855 -103.51564 13231 ft 160 kts 112°
2026-04-21 09:45 -29.11182 -103.50343 13230 ft 161 kts 112°
2026-04-21 09:46 -29.11511 -103.49122 13232 ft 160 kts 112°
2026-04-21 09:46 -29.11839 -103.47907 13231 ft 160 kts 112°
2026-04-21 09:46 -29.12161 -103.46707 13231 ft 159 kts 112°
2026-04-21 09:46 -29.12485 -103.45495 13230 ft 159 kts 112°
2026-04-21 09:47 -29.12810 -103.44282 13231 ft 159 kts 112°
2026-04-21 09:47 -29.13137 -103.43069 13230 ft 159 kts 112°
2026-04-21 09:47 -29.13463 -103.41856 13230 ft 159 kts 112°
2026-04-21 09:47 -29.13788 -103.40643 13230 ft 160 kts 112°
2026-04-21 09:48 -29.14113 -103.39430 13230 ft 159 kts 112°
2026-04-21 09:48 -29.14440 -103.38216 13230 ft 159 kts 112°
2026-04-21 09:48 -29.14764 -103.37003 13230 ft 159 kts 112°
2026-04-21 09:48 -29.15087 -103.35790 13230 ft 160 kts 112°
2026-04-21 09:49 -29.15411 -103.34575 13231 ft 160 kts 112°
2026-04-21 09:49 -29.15737 -103.33360 13235 ft 160 kts 112°
2026-04-21 09:49 -29.16065 -103.32138 13233 ft 160 kts 112°
2026-04-21 09:49 -29.16388 -103.30931 13210 ft 151 kts 112°
2026-04-21 09:50 -29.16663 -103.29882 13171 ft 124 kts 114°
2026-04-21 09:50 -29.16740 -103.29585 13151 ft 117 kts 114°
2026-04-21 09:50 -29.17400 -103.27156 12332 ft 120 kts 115°
2026-04-21 09:51 -29.17651 -103.26235 12058 ft 118 kts 114°
2026-04-21 09:51 -29.17886 -103.25349 11762 ft 119 kts 114°
2026-04-21 09:51 -29.18123 -103.24447 11513 ft 115 kts 114°
2026-04-21 09:51 -29.18354 -103.23570 11218 ft 117 kts 114°
2026-04-21 09:52 -29.18588 -103.22690 10978 ft 113 kts 114°
2026-04-21 09:52 -29.18818 -103.21829 10693 ft 114 kts 114°
2026-04-21 09:52 -29.19047 -103.20973 10451 ft 111 kts 114°
2026-04-21 09:52 -29.19272 -103.20126 10175 ft 112 kts 114°
2026-04-21 09:53 -29.19423 -103.19554 10002 ft 110 kts 114°
2026-04-21 09:53 -29.19635 -103.18726 9714 ft 110 kts 115°
2026-04-21 09:53 -29.19865 -103.17899 9440 ft 108 kts 114°
2026-04-21 09:53 -29.20086 -103.17077 9157 ft 108 kts 114°
2026-04-21 09:54 -29.20313 -103.16263 8888 ft 107 kts 113°
2026-04-21 09:54 -29.20520 -103.15447 8612 ft 106 kts 113°
2026-04-21 09:54 -29.20734 -103.14639 8353 ft 106 kts 114°
2026-04-21 09:54 -29.20943 -103.13835 8083 ft 104 kts 114°
2026-04-21 09:55 -29.21152 -103.13044 7836 ft 104 kts 114°
2026-04-21 09:55 -29.21367 -103.12259 7579 ft 103 kts 112°
2026-04-21 09:55 -29.21572 -103.11478 7327 ft 102 kts 113°
2026-04-21 09:55 -29.21791 -103.10705 7075 ft 101 kts 112°
2026-04-21 09:56 -29.21987 -103.09932 6825 ft 101 kts 112°
2026-04-21 09:56 -29.22192 -103.09169 6576 ft 99 kts 112°
2026-04-21 09:56 -29.22385 -103.08413 6310 ft 99 kts 112°
2026-04-21 09:56 -29.22582 -103.07667 6045 ft 98 kts 112°
2026-04-21 09:57 -29.22771 -103.06928 5783 ft 96 kts 113°
2026-04-21 09:57 -29.22975 -103.06202 5519 ft 95 kts 112°
2026-04-21 09:57 -29.23168 -103.05483 5267 ft 93 kts 112°
2026-04-21 09:57 -29.23354 -103.04772 5020 ft 95 kts 112°
2026-04-21 09:58 -29.23544 -103.04066 4768 ft 93 kts 111°
2026-04-21 09:58 -29.23721 -103.03357 4505 ft 89 kts 112°
2026-04-21 09:58 -29.23909 -103.02654 4401 ft 100 kts 108°
2026-04-21 09:58 -29.24099 -103.01847 4456 ft 108 kts 109°
2026-04-21 09:59 -29.24316 -103.01007 4522 ft 113 kts 110°
2026-04-21 09:59 -29.24561 -103.00127 4601 ft 118 kts 111°
2026-04-21 09:59 -29.24811 -102.99218 4792 ft 113 kts 111°
2026-04-21 09:59 -29.24989 -102.98475 5184 ft 94 kts 109°
2026-04-21 10:00 -29.25161 -102.97729 5342 ft 96 kts 110°
2026-04-21 10:00 -29.25343 -102.97018 5536 ft 96 kts 111°
2026-04-21 10:00 -29.25534 -102.96307 5831 ft 86 kts 111°
2026-04-21 10:00 -29.25726 -102.95615 5947 ft 96 kts 110°
2026-04-21 10:01 -29.25908 -102.94922 6202 ft 88 kts 111°
2026-04-21 10:01 -29.26105 -102.94212 6329 ft 96 kts 112°
2026-04-21 10:01 -29.26296 -102.93509 6549 ft 92 kts 112°
2026-04-21 10:01 -29.26502 -102.92786 6693 ft 97 kts 112°
2026-04-21 10:02 -29.26898 -102.91322 7045 ft 97 kts 112°
2026-04-21 10:02 -29.27103 -102.90588 7235 ft 98 kts 111°
2026-04-21 10:02 -29.27293 -102.89832 7391 ft 99 kts 111°
2026-04-21 10:03 -29.27496 -102.89080 7567 ft 99 kts 112°
2026-04-21 10:03 -29.27690 -102.88321 7736 ft 100 kts 113°
2026-04-21 10:03 -29.27895 -102.87557 7908 ft 101 kts 114°
2026-04-21 10:03 -29.28105 -102.86788 8071 ft 101 kts 112°
2026-04-21 10:04 -29.28312 -102.86015 8239 ft 102 kts 112°
2026-04-21 10:04 -29.28522 -102.85236 8394 ft 102 kts 112°
2026-04-21 10:04 -29.28723 -102.84455 8552 ft 103 kts 112°
2026-04-21 10:04 -29.28930 -102.83671 8708 ft 103 kts 112°
2026-04-21 10:05 -29.29130 -102.82886 8868 ft 103 kts 112°
2026-04-21 10:05 -29.29336 -102.82107 9021 ft 104 kts 113°
2026-04-21 10:05 -29.29545 -102.81312 9172 ft 105 kts 112°
2026-04-21 10:05 -29.29762 -102.80515 9319 ft 105 kts 112°
2026-04-21 10:06 -29.29968 -102.79712 9473 ft 105 kts 112°
2026-04-21 10:06 -29.30175 -102.78906 9620 ft 106 kts 112°
2026-04-21 10:06 -29.30384 -102.78096 9767 ft 106 kts 113°
2026-04-21 10:06 -29.30597 -102.77280 9913 ft 107 kts 113°
2026-04-21 10:07 -29.30814 -102.76466 10059 ft 107 kts 113°
2026-04-21 10:07 -29.31031 -102.75650 10192 ft 107 kts 113°
2026-04-21 10:07 -29.31248 -102.74834 10314 ft 108 kts 113°
2026-04-21 10:07 -29.31462 -102.74009 10437 ft 108 kts 113°
2026-04-21 10:08 -29.31679 -102.73181 10560 ft 109 kts 113°
2026-04-21 10:08 -29.31894 -102.72345 10680 ft 110 kts 113°
2026-04-21 10:08 -29.32116 -102.71508 10803 ft 110 kts 113°
2026-04-21 10:08 -29.32338 -102.70665 10922 ft 111 kts 113°
2026-04-21 10:09 -29.32563 -102.69819 11039 ft 111 kts 113°
2026-04-21 10:09 -29.32785 -102.68966 11159 ft 112 kts 112°
2026-04-21 10:09 -29.33008 -102.68108 11279 ft 113 kts 113°
2026-04-21 10:09 -29.33231 -102.67246 11394 ft 113 kts 113°
2026-04-21 10:10 -29.33456 -102.66379 11521 ft 113 kts 113°
2026-04-21 10:10 -29.33681 -102.65523 11639 ft 114 kts 113°
2026-04-21 10:10 -29.33911 -102.64648 11760 ft 115 kts 113°
2026-04-21 10:10 -29.34141 -102.63769 11879 ft 116 kts 113°
2026-04-21 10:11 -29.34371 -102.62884 11997 ft 116 kts 113°
2026-04-21 10:11 -29.34604 -102.61996 12113 ft 116 kts 113°
2026-04-21 10:11 -29.34837 -102.61107 12227 ft 117 kts 113°
2026-04-21 10:11 -29.35071 -102.60212 12341 ft 117 kts 113°
2026-04-21 10:12 -29.35306 -102.59313 12454 ft 118 kts 113°
2026-04-21 10:12 -29.35541 -102.58409 12564 ft 119 kts 113°
2026-04-21 10:12 -29.35778 -102.57500 12679 ft 119 kts 113°
2026-04-21 10:12 -29.36016 -102.56588 12789 ft 120 kts 113°
2026-04-21 10:13 -29.36254 -102.55672 12899 ft 120 kts 113°
2026-04-21 10:13 -29.36494 -102.54752 13004 ft 121 kts 112°
2026-04-21 10:13 -29.36735 -102.53830 13106 ft 121 kts 112°
2026-04-21 10:13 -29.36975 -102.52901 13217 ft 122 kts 113°
2026-04-21 10:14 -29.37224 -102.51952 13249 ft 129 kts 113°
2026-04-21 10:14 -29.37498 -102.50943 13250 ft 136 kts 113°
2026-04-21 10:14 -29.37790 -102.49881 13249 ft 143 kts 113°
2026-04-21 10:14 -29.38087 -102.48777 13249 ft 147 kts 112°
2026-04-21 10:15 -29.38384 -102.47639 13256 ft 151 kts 111°
2026-04-21 10:15 -29.38683 -102.46472 13249 ft 154 kts 111°
2026-04-21 10:15 -29.38987 -102.45277 13232 ft 157 kts 111°
2026-04-21 10:15 -29.39294 -102.44062 13204 ft 160 kts 111°
2026-04-21 10:16 -29.39605 -102.42838 13219 ft 159 kts 111°
2026-04-21 10:16 -29.39915 -102.41617 13227 ft 159 kts 111°
2026-04-21 10:16 -29.40225 -102.40397 13234 ft 159 kts 111°
2026-04-21 10:16 -29.40536 -102.39180 13232 ft 159 kts 111°
2026-04-21 10:17 -29.40844 -102.37980 13232 ft 158 kts 112°
2026-04-21 10:17 -29.41157 -102.36769 13233 ft 158 kts 112°
2026-04-21 10:17 -29.41470 -102.35561 13233 ft 158 kts 112°
2026-04-21 10:17 -29.41785 -102.34351 13233 ft 158 kts 112°
2026-04-21 10:18 -29.42098 -102.33142 13230 ft 158 kts 111°
2026-04-21 10:18 -29.42410 -102.31931 13230 ft 158 kts 112°
2026-04-21 10:18 -29.42723 -102.30720 13230 ft 158 kts 112°
2026-04-21 10:18 -29.43037 -102.29509 13230 ft 158 kts 112°
2026-04-21 10:19 -29.43349 -102.28301 13230 ft 158 kts 111°
2026-04-21 10:19 -29.43661 -102.27093 13230 ft 158 kts 111°
2026-04-21 10:19 -29.43973 -102.25882 13230 ft 158 kts 112°
2026-04-21 10:19 -29.44286 -102.24670 13230 ft 158 kts 111°
2026-04-21 10:20 -29.44598 -102.23460 13230 ft 158 kts 111°
2026-04-21 10:20 -29.44910 -102.22249 13230 ft 158 kts 111°
2026-04-21 10:20 -29.45221 -102.21036 13230 ft 158 kts 111°
2026-04-21 10:20 -29.45533 -102.19823 13230 ft 159 kts 111°
2026-04-21 10:21 -29.45846 -102.18610 13230 ft 159 kts 111°
2026-04-21 10:21 -29.46160 -102.17395 13230 ft 159 kts 111°
2026-04-21 10:21 -29.46473 -102.16180 13230 ft 159 kts 111°
2026-04-21 10:21 -29.46784 -102.14965 13230 ft 159 kts 111°
2026-04-21 10:22 -29.47095 -102.13752 13230 ft 159 kts 111°
2026-04-21 10:22 -29.47407 -102.12539 13231 ft 159 kts 111°
2026-04-21 10:22 -29.47720 -102.11323 13230 ft 159 kts 111°
2026-04-21 10:22 -29.48032 -102.10109 13230 ft 159 kts 111°
2026-04-21 10:23 -29.48343 -102.08895 13230 ft 159 kts 111°
2026-04-21 10:23 -29.48655 -102.07679 13231 ft 159 kts 111°
2026-04-21 10:23 -29.48966 -102.06463 13230 ft 159 kts 111°
2026-04-21 10:23 -29.49277 -102.05248 13230 ft 159 kts 111°
2026-04-21 10:24 -29.49589 -102.04033 13234 ft 158 kts 111°
2026-04-21 10:24 -29.49895 -102.02839 13230 ft 158 kts 111°
2026-04-21 10:24 -29.50203 -102.01627 13231 ft 158 kts 111°
2026-04-21 10:24 -29.50513 -102.00409 13231 ft 158 kts 111°
2026-04-21 10:25 -29.50822 -101.99198 13230 ft 158 kts 111°
2026-04-21 10:25 -29.51133 -101.97985 13230 ft 158 kts 112°
2026-04-21 10:25 -29.51444 -101.96773 13233 ft 158 kts 111°
2026-04-21 10:25 -29.51754 -101.95561 13233 ft 158 kts 111°
2026-04-21 10:26 -29.52064 -101.94348 13233 ft 158 kts 111°
2026-04-21 10:26 -29.52373 -101.93136 13233 ft 158 kts 111°
2026-04-21 10:26 -29.52683 -101.91921 13233 ft 158 kts 111°
2026-04-21 10:26 -29.52993 -101.90708 13232 ft 158 kts 111°
2026-04-21 10:27 -29.53301 -101.89495 13232 ft 158 kts 111°
2026-04-21 10:27 -29.53609 -101.88284 13233 ft 158 kts 111°
2026-04-21 10:27 -29.53918 -101.87072 13232 ft 158 kts 111°
2026-04-21 10:27 -29.54227 -101.85859 13233 ft 158 kts 111°
2026-04-21 10:28 -29.54532 -101.84664 13233 ft 158 kts 111°
2026-04-21 10:28 -29.54838 -101.83454 13233 ft 158 kts 111°
2026-04-21 10:28 -29.55145 -101.82243 13233 ft 158 kts 111°
2026-04-21 10:28 -29.55454 -101.81031 13233 ft 158 kts 111°
2026-04-21 10:29 -29.55762 -101.79817 13233 ft 158 kts 111°
2026-04-21 10:29 -29.56070 -101.78606 13233 ft 158 kts 111°
2026-04-21 10:29 -29.56377 -101.77394 13233 ft 158 kts 111°
2026-04-21 10:29 -29.56684 -101.76182 13233 ft 158 kts 111°
2026-04-21 10:30 -29.56992 -101.74967 13232 ft 158 kts 111°
2026-04-21 10:30 -29.57299 -101.73753 13236 ft 158 kts 111°
2026-04-21 10:30 -29.57607 -101.72540 13236 ft 158 kts 111°
2026-04-21 10:30 -29.57915 -101.71326 13236 ft 158 kts 111°
2026-04-21 10:31 -29.58222 -101.70113 13235 ft 158 kts 111°
2026-04-21 10:31 -29.58529 -101.68896 13234 ft 158 kts 111°
2026-04-21 10:31 -29.58836 -101.67680 13236 ft 158 kts 111°
2026-04-21 10:31 -29.59142 -101.66470 13235 ft 157 kts 111°
2026-04-21 10:32 -29.59448 -101.65263 13234 ft 157 kts 111°
2026-04-21 10:32 -29.59753 -101.64055 13233 ft 157 kts 111°
2026-04-21 10:32 -29.60058 -101.62848 13235 ft 157 kts 111°
2026-04-21 10:32 -29.60368 -101.61636 13234 ft 158 kts 111°
2026-04-21 10:33 -29.60676 -101.60421 13233 ft 159 kts 111°
2026-04-21 10:33 -29.60982 -101.59204 13233 ft 158 kts 111°
2026-04-21 10:33 -29.61288 -101.57988 13232 ft 158 kts 111°
2026-04-21 10:33 -29.61593 -101.56771 13233 ft 158 kts 111°
2026-04-21 10:34 -29.61898 -101.55554 13233 ft 158 kts 111°
2026-04-21 10:34 -29.62203 -101.54339 13233 ft 158 kts 111°
2026-04-21 10:34 -29.62509 -101.53124 13232 ft 158 kts 111°
2026-04-21 10:34 -29.62812 -101.51913 13233 ft 158 kts 111°
2026-04-21 10:35 -29.63117 -101.50699 13233 ft 158 kts 111°
2026-04-21 10:35 -29.63418 -101.49501 13233 ft 158 kts 111°
2026-04-21 10:35 -29.63724 -101.48288 13232 ft 158 kts 111°
2026-04-21 10:35 -29.64033 -101.47057 13233 ft 158 kts 111°
2026-04-21 10:36 -29.64334 -101.45858 13233 ft 158 kts 111°
2026-04-21 10:36 -29.64638 -101.44646 13233 ft 158 kts 111°
2026-04-21 10:36 -29.64941 -101.43434 13233 ft 158 kts 111°
2026-04-21 10:36 -29.65246 -101.42221 13233 ft 158 kts 111°
2026-04-21 10:37 -29.65452 -101.41400 13230 ft 158 kts 111°
2026-04-21 10:37 -29.65855 -101.39791 13230 ft 158 kts 111°
2026-04-21 10:37 -29.66159 -101.38578 13230 ft 158 kts 111°
2026-04-21 10:37 -29.66462 -101.37364 13230 ft 158 kts 111°
2026-04-21 10:38 -29.66765 -101.36149 13231 ft 158 kts 111°
2026-04-21 10:38 -29.67070 -101.34934 13230 ft 158 kts 111°
2026-04-21 10:38 -29.67271 -101.34133 13230 ft 158 kts 111°
2026-04-21 10:38 -29.67675 -101.32511 13230 ft 158 kts 111°
2026-04-21 10:39 -29.67875 -101.31708 13233 ft 158 kts 111°
2026-04-21 10:39 -29.68178 -101.30494 13236 ft 158 kts 111°
2026-04-21 10:39 -29.68484 -101.29281 13232 ft 158 kts 111°
2026-04-21 10:39 -29.68785 -101.28069 13232 ft 158 kts 111°
2026-04-21 10:40 -29.69086 -101.26856 13236 ft 158 kts 111°
2026-04-21 10:40 -29.69388 -101.25642 13236 ft 158 kts 111°
2026-04-21 10:40 -29.69689 -101.24429 13236 ft 158 kts 111°
2026-04-21 10:40 -29.69991 -101.23214 13235 ft 158 kts 111°
2026-04-21 10:41 -29.70293 -101.22002 13235 ft 158 kts 111°
2026-04-21 10:41 -29.70595 -101.20788 13235 ft 158 kts 111°
2026-04-21 10:41 -29.70897 -101.19579 13236 ft 158 kts 111°
2026-04-21 10:41 -29.71199 -101.18367 13236 ft 158 kts 111°
2026-04-21 10:42 -29.71501 -101.17152 13236 ft 158 kts 111°
2026-04-21 10:42 -29.71803 -101.15938 13236 ft 158 kts 111°
2026-04-21 10:42 -29.72104 -101.14722 13236 ft 158 kts 111°
2026-04-21 10:42 -29.72405 -101.13511 13235 ft 158 kts 111°
2026-04-21 10:43 -29.72706 -101.12296 13233 ft 158 kts 111°
2026-04-21 10:43 -29.73007 -101.11080 13234 ft 158 kts 111°
2026-04-21 10:43 -29.73304 -101.09879 13233 ft 158 kts 111°
2026-04-21 10:43 -29.73605 -101.08664 13233 ft 158 kts 111°
2026-04-21 10:44 -29.73906 -101.07450 13235 ft 158 kts 111°
2026-04-21 10:44 -29.74206 -101.06233 13236 ft 158 kts 111°
2026-04-21 10:44 -29.74506 -101.05017 13236 ft 158 kts 111°
2026-04-21 10:44 -29.74808 -101.03800 13236 ft 158 kts 111°
2026-04-21 10:45 -29.75110 -101.02584 13236 ft 158 kts 111°
2026-04-21 10:45 -29.75411 -101.01370 13236 ft 158 kts 111°
2026-04-21 10:45 -29.75710 -101.00154 13235 ft 158 kts 111°
2026-04-21 10:45 -29.76009 -100.98939 13235 ft 158 kts 111°
2026-04-21 10:46 -29.76310 -100.97724 13235 ft 158 kts 111°
2026-04-21 10:46 -29.76609 -100.96510 13235 ft 158 kts 111°
2026-04-21 10:46 -29.76909 -100.95293 13235 ft 158 kts 111°
2026-04-21 10:46 -29.77208 -100.94078 13236 ft 158 kts 111°
2026-04-21 10:47 -29.77507 -100.92864 13236 ft 158 kts 111°
2026-04-21 10:47 -29.77807 -100.91649 13236 ft 158 kts 111°
2026-04-21 10:47 -29.78106 -100.90433 13236 ft 158 kts 111°
2026-04-21 10:47 -29.78406 -100.89219 13236 ft 158 kts 111°
2026-04-21 10:48 -29.78705 -100.88003 13236 ft 158 kts 111°
2026-04-21 10:48 -29.79003 -100.86788 13236 ft 158 kts 111°
2026-04-21 10:48 -29.79301 -100.85569 13236 ft 158 kts 111°
2026-04-21 10:48 -29.79599 -100.84351 13236 ft 158 kts 111°
2026-04-21 10:49 -29.79898 -100.83133 13235 ft 158 kts 111°
2026-04-21 10:49 -29.80197 -100.81916 13235 ft 158 kts 111°
2026-04-21 10:49 -29.80496 -100.80698 13235 ft 158 kts 111°
2026-04-21 10:49 -29.80795 -100.79479 13235 ft 158 kts 111°
2026-04-21 10:50 -29.81094 -100.78263 13236 ft 158 kts 111°
2026-04-21 10:50 -29.81392 -100.77045 13236 ft 158 kts 111°
2026-04-21 10:50 -29.81687 -100.75844 13235 ft 158 kts 111°
2026-04-21 10:50 -29.81984 -100.74627 13236 ft 158 kts 111°
2026-04-21 10:51 -29.82281 -100.73410 13236 ft 158 kts 111°
2026-04-21 10:51 -29.82579 -100.72194 13236 ft 158 kts 111°
2026-04-21 10:51 -29.82878 -100.70976 13236 ft 158 kts 111°
2026-04-21 10:51 -29.83175 -100.69758 13236 ft 158 kts 110°
2026-04-21 10:52 -29.83471 -100.68541 13236 ft 158 kts 111°
2026-04-21 10:52 -29.83767 -100.67324 13235 ft 158 kts 111°
2026-04-21 10:52 -29.84064 -100.66107 13235 ft 158 kts 111°
2026-04-21 10:52 -29.84362 -100.64889 13235 ft 158 kts 111°
2026-04-21 10:53 -29.84659 -100.63669 13235 ft 158 kts 111°
2026-04-21 10:53 -29.84955 -100.62449 13235 ft 158 kts 111°
2026-04-21 10:53 -29.85253 -100.61228 13235 ft 158 kts 111°
2026-04-21 10:53 -29.85549 -100.60010 13236 ft 158 kts 111°
2026-04-21 10:54 -29.85845 -100.58792 13240 ft 158 kts 111°
2026-04-21 10:54 -29.86142 -100.57575 13241 ft 158 kts 111°
2026-04-21 10:54 -29.86440 -100.56360 13243 ft 157 kts 110°
2026-04-21 10:54 -29.86733 -100.55160 13242 ft 157 kts 110°
2026-04-21 10:55 -29.87027 -100.53947 13242 ft 157 kts 110°
2026-04-21 10:55 -29.87325 -100.52717 13241 ft 157 kts 110°
2026-04-21 10:55 -29.87619 -100.51505 13241 ft 157 kts 110°
2026-04-21 10:55 -29.87908 -100.50310 13241 ft 157 kts 110°
2026-04-21 10:56 -29.88201 -100.49098 13238 ft 157 kts 110°
2026-04-21 10:56 -29.88494 -100.47884 13238 ft 157 kts 110°
2026-04-21 10:56 -29.88788 -100.46670 13238 ft 157 kts 110°
2026-04-21 10:56 -29.89082 -100.45459 13238 ft 157 kts 110°
2026-04-21 10:57 -29.89376 -100.44247 13241 ft 157 kts 110°
2026-04-21 10:57 -29.89669 -100.43036 13241 ft 157 kts 110°
2026-04-21 10:57 -29.89961 -100.41823 13241 ft 157 kts 110°
2026-04-21 10:57 -29.90254 -100.40614 13241 ft 157 kts 110°
2026-04-21 10:58 -29.90547 -100.39405 13241 ft 157 kts 110°
2026-04-21 10:58 -29.90839 -100.38195 13241 ft 157 kts 110°
2026-04-21 10:58 -29.91130 -100.36985 13240 ft 157 kts 110°
2026-04-21 10:58 -29.91422 -100.35778 13241 ft 157 kts 110°
2026-04-21 10:59 -29.91714 -100.34566 13241 ft 157 kts 110°
2026-04-21 10:59 -29.92007 -100.33354 13241 ft 157 kts 110°
2026-04-21 10:59 -29.92298 -100.32145 13241 ft 157 kts 110°
2026-04-21 10:59 -29.92590 -100.30935 13241 ft 157 kts 110°
2026-04-21 11:00 -29.92881 -100.29725 13241 ft 157 kts 110°
2026-04-21 11:00 -29.93172 -100.28514 13243 ft 157 kts 110°
2026-04-21 11:00 -29.93459 -100.27319 13244 ft 157 kts 110°
2026-04-21 11:00 -29.93750 -100.26107 13243 ft 157 kts 110°
2026-04-21 11:01 -29.94041 -100.24897 13244 ft 157 kts 110°
2026-04-21 11:01 -29.94334 -100.23685 13242 ft 157 kts 110°
2026-04-21 11:01 -29.94625 -100.22474 13241 ft 157 kts 110°
2026-04-21 11:02 -29.95208 -100.20047 13246 ft 157 kts 110°
2026-04-21 11:02 -29.95496 -100.18836 13242 ft 156 kts 110°
2026-04-21 11:02 -29.95783 -100.17627 13242 ft 156 kts 110°
2026-04-21 11:02 -29.96070 -100.16418 13241 ft 156 kts 110°
2026-04-21 11:03 -29.96360 -100.15210 13244 ft 156 kts 111°
2026-04-21 11:03 -29.96653 -100.14001 13244 ft 156 kts 111°
2026-04-21 11:03 -29.96944 -100.12794 13244 ft 156 kts 110°
2026-04-21 11:03 -29.97234 -100.11586 13244 ft 156 kts 110°
2026-04-21 11:04 -29.97523 -100.10378 13241 ft 157 kts 110°
2026-04-21 11:04 -29.97811 -100.09166 13241 ft 156 kts 110°
2026-04-21 11:04 -29.98100 -100.07957 13241 ft 156 kts 110°
2026-04-21 11:04 -29.98391 -100.06749 13240 ft 156 kts 110°
2026-04-21 11:05 -29.98680 -100.05544 13240 ft 156 kts 110°
2026-04-21 11:05 -29.98965 -100.04335 13241 ft 156 kts 110°
2026-04-21 11:05 -29.99251 -100.03127 13241 ft 156 kts 110°
2026-04-21 11:05 -29.99538 -100.01918 13241 ft 156 kts 110°
2026-04-21 11:06 -29.99827 -100.00710 13243 ft 156 kts 110°
2026-04-21 11:06 -30.00118 -99.99506 13244 ft 156 kts 110°
2026-04-21 11:06 -30.00415 -99.98302 13244 ft 156 kts 111°
2026-04-21 11:06 -30.00716 -99.97099 13244 ft 156 kts 111°
2026-04-21 11:07 -30.01016 -99.95913 13246 ft 156 kts 111°
2026-04-21 11:07 -30.01323 -99.94710 13245 ft 156 kts 111°
2026-04-21 11:07 -30.01630 -99.93508 13244 ft 156 kts 111°
2026-04-21 11:07 -30.01933 -99.92305 13243 ft 156 kts 111°
2026-04-21 11:08 -30.02232 -99.91102 13240 ft 156 kts 111°
2026-04-21 11:08 -30.02533 -99.89896 13243 ft 157 kts 111°
2026-04-21 11:08 -30.02843 -99.88689 13244 ft 157 kts 111°
2026-04-21 11:08 -30.03152 -99.87481 13244 ft 157 kts 111°
2026-04-21 11:09 -30.03457 -99.86273 13247 ft 157 kts 111°
2026-04-21 11:09 -30.03761 -99.85060 13247 ft 157 kts 111°
2026-04-21 11:09 -30.04063 -99.83847 13246 ft 157 kts 111°
2026-04-21 11:09 -30.04360 -99.82633 13252 ft 157 kts 111°
2026-04-21 11:10 -30.04656 -99.81421 13247 ft 157 kts 111°
2026-04-21 11:10 -30.04961 -99.80216 13246 ft 156 kts 111°
2026-04-21 11:10 -30.05261 -99.79008 13247 ft 157 kts 111°
2026-04-21 11:10 -30.05560 -99.77801 13246 ft 157 kts 111°
2026-04-21 11:11 -30.05860 -99.76588 13247 ft 157 kts 112°
2026-04-21 11:11 -30.06177 -99.75384 13246 ft 157 kts 112°
2026-04-21 11:11 -30.06487 -99.74180 13247 ft 156 kts 111°
2026-04-21 11:11 -30.06786 -99.72972 13246 ft 157 kts 111°
2026-04-21 11:12 -30.07078 -99.71760 13249 ft 157 kts 111°
2026-04-21 11:12 -30.07369 -99.70545 13249 ft 157 kts 111°
2026-04-21 11:12 -30.07676 -99.69337 13250 ft 157 kts 112°
2026-04-21 11:12 -30.07988 -99.68130 13246 ft 156 kts 112°
2026-04-21 11:13 -30.08298 -99.66928 13249 ft 157 kts 111°
2026-04-21 11:13 -30.08591 -99.65715 13247 ft 157 kts 111°
2026-04-21 11:13 -30.08892 -99.64500 13247 ft 157 kts 111°
2026-04-21 11:13 -30.09190 -99.63286 13246 ft 157 kts 111°
2026-04-21 11:14 -30.09484 -99.62086 13241 ft 157 kts 111°
2026-04-21 11:14 -30.09791 -99.60880 13243 ft 156 kts 111°
2026-04-21 11:14 -30.10090 -99.59671 13244 ft 157 kts 111°
2026-04-21 11:14 -30.10393 -99.58460 13244 ft 157 kts 111°
2026-04-21 11:15 -30.10684 -99.57242 13247 ft 157 kts 111°
2026-04-21 11:15 -30.10990 -99.56032 13247 ft 157 kts 111°
2026-04-21 11:15 -30.11295 -99.54822 13246 ft 157 kts 111°
2026-04-21 11:15 -30.11594 -99.53614 13246 ft 157 kts 111°
2026-04-21 11:16 -30.11893 -99.52402 13246 ft 157 kts 111°
2026-04-21 11:16 -30.12181 -99.51187 13246 ft 157 kts 111°
2026-04-21 11:16 -30.12483 -99.49977 13247 ft 156 kts 112°
2026-04-21 11:16 -30.12789 -99.48772 13246 ft 156 kts 111°
2026-04-21 11:17 -30.13090 -99.47569 13244 ft 156 kts 111°
2026-04-21 11:17 -30.13393 -99.46360 13244 ft 156 kts 111°
2026-04-21 11:17 -30.13688 -99.45149 13245 ft 157 kts 111°
2026-04-21 11:17 -30.13983 -99.43936 13244 ft 157 kts 111°
2026-04-21 11:18 -30.14284 -99.42728 13246 ft 157 kts 112°
2026-04-21 11:18 -30.14594 -99.41523 13247 ft 156 kts 112°
2026-04-21 11:18 -30.14891 -99.40316 13246 ft 156 kts 110°
2026-04-21 11:18 -30.15175 -99.39105 13247 ft 157 kts 111°
2026-04-21 11:19 -30.15466 -99.37888 13245 ft 157 kts 112°
2026-04-21 11:19 -30.15770 -99.36678 13245 ft 157 kts 112°
2026-04-21 11:19 -30.16072 -99.35470 13243 ft 156 kts 112°
2026-04-21 11:19 -30.16378 -99.34268 13243 ft 156 kts 111°
2026-04-21 11:20 -30.16672 -99.33075 13243 ft 157 kts 111°
2026-04-21 11:20 -30.16962 -99.31842 13244 ft 157 kts 111°
2026-04-21 11:20 -30.17256 -99.30647 13244 ft 156 kts 112°
2026-04-21 11:20 -30.17559 -99.29437 13244 ft 157 kts 111°
2026-04-21 11:21 -30.17866 -99.28231 13246 ft 156 kts 111°
2026-04-21 11:21 -30.18164 -99.27020 13247 ft 157 kts 111°
2026-04-21 11:21 -30.18449 -99.25803 13247 ft 157 kts 110°
2026-04-21 11:21 -30.18743 -99.24585 13250 ft 157 kts 112°
2026-04-21 11:22 -30.19044 -99.23372 13248 ft 157 kts 112°
2026-04-21 11:22 -30.19347 -99.22160 13249 ft 157 kts 111°
2026-04-21 11:22 -30.19654 -99.20950 13249 ft 157 kts 111°
2026-04-21 11:22 -30.19951 -99.19732 13250 ft 157 kts 111°
2026-04-21 11:23 -30.20245 -99.18507 13250 ft 158 kts 111°
2026-04-21 11:23 -30.20545 -99.17290 13249 ft 157 kts 111°
2026-04-21 11:23 -30.20843 -99.16074 13250 ft 157 kts 110°
2026-04-21 11:23 -30.21136 -99.14856 13249 ft 157 kts 111°
2026-04-21 11:24 -30.21432 -99.13638 13249 ft 157 kts 111°
2026-04-21 11:24 -30.21726 -99.12418 13249 ft 158 kts 111°
2026-04-21 11:24 -30.22022 -99.11192 13250 ft 158 kts 112°
2026-04-21 11:24 -30.22329 -99.09974 13249 ft 158 kts 111°
2026-04-21 11:25 -30.22634 -99.08761 13252 ft 158 kts 111°
2026-04-21 11:25 -30.22925 -99.07554 13248 ft 159 kts 111°
2026-04-21 11:25 -30.23217 -99.06323 13248 ft 159 kts 111°
2026-04-21 11:25 -30.23514 -99.05092 13247 ft 159 kts 111°
2026-04-21 11:26 -30.23819 -99.03869 13248 ft 158 kts 111°
2026-04-21 11:26 -30.24116 -99.02644 13248 ft 158 kts 111°
2026-04-21 11:26 -30.24417 -99.01423 13249 ft 158 kts 111°
2026-04-21 11:26 -30.24713 -99.00199 13249 ft 158 kts 111°
2026-04-21 11:27 -30.24914 -98.99370 13247 ft 159 kts 111°
2026-04-21 11:27 -30.25205 -98.98160 13246 ft 158 kts 111°
2026-04-21 11:27 -30.25506 -98.96938 13247 ft 158 kts 111°
2026-04-21 11:27 -30.25802 -98.95714 13246 ft 158 kts 111°
2026-04-21 11:28 -30.26094 -98.94493 13243 ft 158 kts 111°
2026-04-21 11:28 -30.26380 -98.93268 13246 ft 158 kts 110°
2026-04-21 11:28 -30.26674 -98.92041 13246 ft 158 kts 111°
2026-04-21 11:28 -30.26981 -98.90823 13247 ft 158 kts 112°
2026-04-21 11:29 -30.27286 -98.89605 13252 ft 157 kts 111°
2026-04-21 11:29 -30.27585 -98.88387 13250 ft 158 kts 110°
2026-04-21 11:29 -30.27876 -98.87165 13249 ft 158 kts 110°
2026-04-21 11:29 -30.28162 -98.85932 13249 ft 159 kts 111°
2026-04-21 11:30 -30.28460 -98.84707 13249 ft 158 kts 112°
2026-04-21 11:30 -30.28762 -98.83485 13249 ft 158 kts 111°
2026-04-21 11:30 -30.29069 -98.82269 13250 ft 157 kts 110°
2026-04-21 11:30 -30.29358 -98.81042 13249 ft 158 kts 111°
2026-04-21 11:31 -30.29646 -98.79813 13247 ft 159 kts 110°
2026-04-21 11:31 -30.29935 -98.78582 13246 ft 158 kts 111°
2026-04-21 11:31 -30.30236 -98.77357 13247 ft 158 kts 111°
2026-04-21 11:31 -30.30539 -98.76133 13247 ft 158 kts 111°
2026-04-21 11:32 -30.30835 -98.74909 13252 ft 159 kts 111°
2026-04-21 11:32 -30.31132 -98.73698 13250 ft 159 kts 111°
2026-04-21 11:32 -30.31417 -98.72460 13249 ft 159 kts 111°
2026-04-21 11:32 -30.31718 -98.71232 13249 ft 159 kts 111°
2026-04-21 11:33 -30.32023 -98.70004 13250 ft 158 kts 111°
2026-04-21 11:33 -30.32319 -98.68771 13248 ft 159 kts 110°
2026-04-21 11:33 -30.32596 -98.67526 13249 ft 159 kts 108°
2026-04-21 11:33 -30.32873 -98.66278 13250 ft 160 kts 110°
2026-04-21 11:34 -30.33181 -98.65039 13250 ft 159 kts 112°
2026-04-21 11:34 -30.33486 -98.63802 13246 ft 159 kts 110°
2026-04-21 11:34 -30.33802 -98.62579 13245 ft 159 kts 111°
2026-04-21 11:34 -30.34105 -98.61344 13246 ft 159 kts 110°
2026-04-21 11:35 -30.34398 -98.60108 13250 ft 160 kts 111°
2026-04-21 11:35 -30.34693 -98.58868 13251 ft 159 kts 111°
2026-04-21 11:35 -30.34994 -98.57635 13252 ft 159 kts 111°
2026-04-21 11:35 -30.35290 -98.56403 13252 ft 158 kts 110°
2026-04-21 11:36 -30.35578 -98.55167 13251 ft 160 kts 110°
2026-04-21 11:36 -30.35868 -98.53931 13253 ft 159 kts 110°
2026-04-21 11:36 -30.36148 -98.52683 13253 ft 160 kts 111°
2026-04-21 11:36 -30.36457 -98.51448 13253 ft 159 kts 112°
2026-04-21 11:37 -30.36770 -98.50222 13253 ft 158 kts 110°
2026-04-21 11:37 -30.37060 -98.48991 13252 ft 159 kts 110°
2026-04-21 11:37 -30.37344 -98.47767 13251 ft 159 kts 110°
2026-04-21 11:37 -30.37628 -98.46523 13253 ft 160 kts 110°
2026-04-21 11:38 -30.37918 -98.45282 13250 ft 159 kts 111°
2026-04-21 11:38 -30.38220 -98.44051 13250 ft 159 kts 110°
2026-04-21 11:38 -30.38515 -98.42824 13249 ft 159 kts 110°
2026-04-21 11:38 -30.38801 -98.41586 13249 ft 159 kts 109°
2026-04-21 11:39 -30.39093 -98.40349 13250 ft 159 kts 111°
2026-04-21 11:39 -30.39397 -98.39115 13252 ft 159 kts 111°
2026-04-21 11:39 -30.39698 -98.37880 13253 ft 159 kts 110°
2026-04-21 11:39 -30.40001 -98.36648 13253 ft 158 kts 111°
2026-04-21 11:40 -30.40296 -98.35416 13250 ft 160 kts 110°
2026-04-21 11:40 -30.40579 -98.34175 13255 ft 160 kts 110°
2026-04-21 11:40 -30.40859 -98.32924 13252 ft 160 kts 111°
2026-04-21 11:40 -30.41165 -98.31691 13252 ft 159 kts 111°
2026-04-21 11:41 -30.41448 -98.30456 13254 ft 158 kts 111°
2026-04-21 11:41 -30.41754 -98.29229 13253 ft 159 kts 110°
2026-04-21 11:41 -30.42048 -98.27992 13259 ft 160 kts 110°
2026-04-21 11:41 -30.42340 -98.26740 13256 ft 162 kts 110°
2026-04-21 11:42 -30.42634 -98.25485 13250 ft 160 kts 110°
2026-04-21 11:42 -30.42929 -98.24256 13251 ft 160 kts 110°
2026-04-21 11:42 -30.43240 -98.23025 13252 ft 160 kts 109°
2026-04-21 11:42 -30.43518 -98.21776 13252 ft 160 kts 109°
2026-04-21 11:43 -30.43804 -98.20526 13255 ft 161 kts 110°
2026-04-21 11:43 -30.44098 -98.19276 13253 ft 160 kts 110°
2026-04-21 11:43 -30.44389 -98.18030 13253 ft 160 kts 110°
2026-04-21 11:43 -30.44689 -98.16791 13252 ft 159 kts 110°
2026-04-21 11:44 -30.44981 -98.15549 13255 ft 160 kts 110°
2026-04-21 11:44 -30.45269 -98.14303 13254 ft 161 kts 109°
2026-04-21 11:44 -30.45547 -98.13039 13256 ft 161 kts 110°
2026-04-21 11:44 -30.45844 -98.11790 13255 ft 160 kts 109°
2026-04-21 11:45 -30.46138 -98.10545 13252 ft 160 kts 110°
2026-04-21 11:45 -30.46447 -98.09307 13253 ft 160 kts 110°
2026-04-21 11:45 -30.46748 -98.08063 13254 ft 160 kts 110°
2026-04-21 11:45 -30.47040 -98.06810 13251 ft 162 kts 110°
2026-04-21 11:46 -30.47328 -98.05554 13252 ft 160 kts 110°
2026-04-21 11:46 -30.47624 -98.04303 13252 ft 160 kts 109°
2026-04-21 11:46 -30.47923 -98.03063 13251 ft 160 kts 109°
2026-04-21 11:46 -30.48218 -98.01815 13253 ft 160 kts 110°
2026-04-21 11:47 -30.48510 -98.00561 13255 ft 162 kts 110°
2026-04-21 11:47 -30.48799 -97.99302 13254 ft 161 kts 110°
2026-04-21 11:47 -30.49089 -97.98049 13255 ft 161 kts 109°
2026-04-21 11:47 -30.49383 -97.96803 13257 ft 159 kts 109°
2026-04-21 11:48 -30.49666 -97.95558 13257 ft 160 kts 110°
2026-04-21 11:48 -30.49963 -97.94313 13259 ft 161 kts 111°
2026-04-21 11:48 -30.50253 -97.93057 13259 ft 161 kts 110°
2026-04-21 11:48 -30.50549 -97.91831 13256 ft 160 kts 110°
2026-04-21 11:49 -30.50838 -97.90588 13257 ft 160 kts 109°
2026-04-21 11:49 -30.51130 -97.89344 13256 ft 160 kts 110°
2026-04-21 11:49 -30.51427 -97.88103 13256 ft 160 kts 110°
2026-04-21 11:49 -30.51705 -97.86847 13256 ft 161 kts 110°
2026-04-21 11:50 -30.52000 -97.85604 13259 ft 160 kts 111°
2026-04-21 11:50 -30.52289 -97.84361 13260 ft 159 kts 109°
2026-04-21 11:50 -30.52578 -97.83127 13259 ft 158 kts 109°
2026-04-21 11:50 -30.52867 -97.81890 13259 ft 159 kts 110°
2026-04-21 11:51 -30.53159 -97.80648 13259 ft 160 kts 110°
2026-04-21 11:51 -30.53444 -97.79401 13258 ft 159 kts 110°
2026-04-21 11:51 -30.53738 -97.78163 13257 ft 159 kts 110°
2026-04-21 11:51 -30.54031 -97.76929 13257 ft 158 kts 109°
2026-04-21 11:52 -30.54305 -97.75687 13259 ft 159 kts 109°
2026-04-21 11:52 -30.54592 -97.74447 13257 ft 161 kts 110°
2026-04-21 11:52 -30.54874 -97.73191 13259 ft 160 kts 110°
2026-04-21 11:52 -30.55165 -97.71949 13259 ft 160 kts 111°
2026-04-21 11:53 -30.55468 -97.70715 13258 ft 159 kts 110°
2026-04-21 11:53 -30.55745 -97.69471 13260 ft 160 kts 109°
2026-04-21 11:53 -30.56025 -97.68227 13260 ft 159 kts 110°
2026-04-21 11:53 -30.56303 -97.66973 13261 ft 161 kts 110°
2026-04-21 11:54 -30.56603 -97.65750 13258 ft 159 kts 112°
2026-04-21 11:54 -30.56909 -97.64516 13257 ft 158 kts 110°
2026-04-21 11:54 -30.57200 -97.63281 13256 ft 159 kts 109°
2026-04-21 11:54 -30.57478 -97.62034 13257 ft 159 kts 109°
2026-04-21 11:55 -30.57755 -97.60782 13264 ft 160 kts 110°
2026-04-21 11:55 -30.58044 -97.59529 13261 ft 160 kts 110°
2026-04-21 11:55 -30.58322 -97.58282 13265 ft 159 kts 109°
2026-04-21 11:55 -30.58607 -97.57045 13263 ft 158 kts 109°
2026-04-21 11:56 -30.58900 -97.55811 13262 ft 159 kts 109°
2026-04-21 11:56 -30.59187 -97.54574 13262 ft 160 kts 109°
2026-04-21 11:56 -30.59472 -97.53331 13263 ft 159 kts 110°
2026-04-21 11:56 -30.59756 -97.52089 13263 ft 159 kts 110°
2026-04-21 11:57 -30.60045 -97.50856 13263 ft 158 kts 110°
2026-04-21 11:57 -30.60329 -97.49622 13262 ft 159 kts 109°
2026-04-21 11:57 -30.60597 -97.48378 13262 ft 159 kts 109°
2026-04-21 11:57 -30.60877 -97.47131 13262 ft 160 kts 111°
2026-04-21 11:58 -30.61176 -97.45897 13262 ft 159 kts 111°
2026-04-21 11:58 -30.61469 -97.44664 13262 ft 158 kts 110°
2026-04-21 11:58 -30.61762 -97.43436 13262 ft 158 kts 109°
2026-04-21 11:58 -30.62040 -97.42197 13261 ft 158 kts 109°
2026-04-21 11:59 -30.62314 -97.40951 13264 ft 159 kts 110°
2026-04-21 11:59 -30.62597 -97.39714 13264 ft 158 kts 110°
2026-04-21 11:59 -30.62882 -97.38496 13264 ft 159 kts 110°
2026-04-21 11:59 -30.63173 -97.37266 13263 ft 158 kts 109°
2026-04-21 12:00 -30.63445 -97.36023 13263 ft 159 kts 109°
2026-04-21 12:00 -30.63727 -97.34781 13264 ft 160 kts 111°
2026-04-21 12:00 -30.64018 -97.33533 13266 ft 159 kts 110°
2026-04-21 12:00 -30.64310 -97.32296 13265 ft 159 kts 110°
2026-04-21 12:01 -30.64590 -97.31056 13268 ft 159 kts 110°
2026-04-21 12:01 -30.64877 -97.29817 13267 ft 160 kts 109°
2026-04-21 12:01 -30.65156 -97.28570 13267 ft 159 kts 109°
2026-04-21 12:01 -30.65421 -97.27313 13267 ft 160 kts 110°
2026-04-21 12:02 -30.65708 -97.26072 13268 ft 159 kts 109°
2026-04-21 12:02 -30.66281 -97.23597 13268 ft 159 kts 110°
2026-04-21 12:02 -30.66561 -97.22353 13268 ft 159 kts 110°
2026-04-21 12:03 -30.66827 -97.21102 13265 ft 160 kts 109°
2026-04-21 12:03 -30.67112 -97.19876 13265 ft 158 kts 110°
2026-04-21 12:03 -30.67417 -97.18643 13266 ft 159 kts 111°
2026-04-21 12:03 -30.67729 -97.17421 13264 ft 157 kts 109°
2026-04-21 12:04 -30.67993 -97.16173 13268 ft 159 kts 108°
2026-04-21 12:04 -30.68247 -97.14920 13269 ft 160 kts 108°
2026-04-21 12:04 -30.68517 -97.13668 13270 ft 159 kts 110°
2026-04-21 12:04 -30.68808 -97.12429 13269 ft 159 kts 110°
2026-04-21 12:05 -30.69088 -97.11192 13266 ft 158 kts 110°
2026-04-21 12:05 -30.69377 -97.09957 13265 ft 159 kts 110°
2026-04-21 12:05 -30.69654 -97.08715 13264 ft 159 kts 109°
2026-04-21 12:05 -30.69921 -97.07460 13267 ft 160 kts 111°
2026-04-21 12:06 -30.70221 -97.06219 13267 ft 159 kts 111°
2026-04-21 12:06 -30.70508 -97.04984 13268 ft 158 kts 110°
2026-04-21 12:06 -30.70792 -97.03765 13267 ft 159 kts 109°
2026-04-21 12:06 -30.71075 -97.02522 13268 ft 159 kts 110°
2026-04-21 12:07 -30.71347 -97.01273 13267 ft 160 kts 110°
2026-04-21 12:07 -30.71633 -97.00029 13266 ft 159 kts 110°
2026-04-21 12:07 -30.71923 -96.98789 13266 ft 159 kts 110°
2026-04-21 12:07 -30.72210 -96.97555 13265 ft 158 kts 108°
2026-04-21 12:08 -30.72469 -96.96304 13268 ft 159 kts 109°
2026-04-21 12:08 -30.72736 -96.95052 13269 ft 160 kts 109°
2026-04-21 12:08 -30.73011 -96.93798 13269 ft 159 kts 110°
2026-04-21 12:08 -30.73290 -96.92548 13268 ft 159 kts 109°
2026-04-21 12:09 -30.73572 -96.91305 13268 ft 158 kts 110°
2026-04-21 12:09 -30.73859 -96.90062 13268 ft 160 kts 109°
2026-04-21 12:09 -30.74141 -96.88816 13269 ft 160 kts 109°
2026-04-21 12:09 -30.74409 -96.87555 13268 ft 160 kts 110°
2026-04-21 12:10 -30.74706 -96.86311 13269 ft 160 kts 112°
2026-04-21 12:10 -30.75015 -96.85075 13269 ft 158 kts 110°
2026-04-21 12:10 -30.75295 -96.83830 13268 ft 159 kts 109°
2026-04-21 12:10 -30.75565 -96.82583 13267 ft 159 kts 109°
2026-04-21 12:11 -30.75830 -96.81330 13272 ft 160 kts 109°
2026-04-21 12:11 -30.76102 -96.80081 13272 ft 159 kts 109°
2026-04-21 12:11 -30.76389 -96.78836 13270 ft 159 kts 109°
2026-04-21 12:11 -30.76662 -96.77612 13270 ft 159 kts 109°
2026-04-21 12:12 -30.76934 -96.76366 13268 ft 159 kts 109°
2026-04-21 12:12 -30.77202 -96.75117 13268 ft 159 kts 109°
2026-04-21 12:12 -30.77480 -96.73873 13268 ft 159 kts 110°
2026-04-21 12:12 -30.77759 -96.72633 13269 ft 158 kts 109°
2026-04-21 12:13 -30.78041 -96.71394 13269 ft 158 kts 109°
2026-04-21 12:13 -30.78323 -96.70155 13271 ft 158 kts 109°
2026-04-21 12:13 -30.78606 -96.68919 13271 ft 158 kts 110°
2026-04-21 12:13 -30.78877 -96.67673 13271 ft 159 kts 109°
2026-04-21 12:14 -30.79153 -96.66433 13268 ft 158 kts 109°
2026-04-21 12:14 -30.79423 -96.65193 13272 ft 158 kts 109°
2026-04-21 12:14 -30.79702 -96.63953 13273 ft 159 kts 109°
2026-04-21 12:14 -30.79976 -96.62709 13272 ft 159 kts 109°
2026-04-21 12:15 -30.80251 -96.61462 13272 ft 159 kts 110°
2026-04-21 12:15 -30.80535 -96.60218 13273 ft 159 kts 109°
2026-04-21 12:15 -30.80817 -96.58974 13270 ft 159 kts 109°
2026-04-21 12:15 -30.81101 -96.57735 13270 ft 159 kts 109°
2026-04-21 12:16 -30.81280 -96.56911 13273 ft 159 kts 109°
2026-04-21 12:16 -30.81551 -96.55668 13274 ft 159 kts 109°
2026-04-21 12:16 -30.81822 -96.54421 13274 ft 159 kts 109°
2026-04-21 12:16 -30.82098 -96.53175 13273 ft 159 kts 109°
2026-04-21 12:17 -30.82374 -96.51932 13270 ft 158 kts 109°
2026-04-21 12:17 -30.82651 -96.50693 13271 ft 159 kts 109°
2026-04-21 12:17 -30.82921 -96.49447 13270 ft 159 kts 108°
2026-04-21 12:17 -30.83183 -96.48197 13271 ft 159 kts 109°
2026-04-21 12:18 -30.83466 -96.46955 13274 ft 158 kts 110°
2026-04-21 12:18 -30.83746 -96.45714 13274 ft 158 kts 110°
2026-04-21 12:18 -30.84026 -96.44474 13274 ft 158 kts 109°
2026-04-21 12:18 -30.84295 -96.43245 13274 ft 158 kts 109°
2026-04-21 12:19 -30.84565 -96.42001 13276 ft 159 kts 109°
2026-04-21 12:19 -30.84836 -96.40758 13274 ft 158 kts 109°
2026-04-21 12:19 -30.85112 -96.39517 13274 ft 158 kts 110°
2026-04-21 12:19 -30.85398 -96.38278 13274 ft 158 kts 109°
2026-04-21 12:20 -30.85666 -96.37036 13273 ft 159 kts 108°
2026-04-21 12:20 -30.85930 -96.35789 13273 ft 159 kts 109°
2026-04-21 12:20 -30.86202 -96.34544 13274 ft 159 kts 109°
2026-04-21 12:20 -30.86479 -96.33301 13274 ft 159 kts 109°
2026-04-21 12:21 -30.86755 -96.32055 13272 ft 159 kts 109°
2026-04-21 12:21 -30.87028 -96.30811 13273 ft 159 kts 109°
2026-04-21 12:21 -30.87300 -96.29568 13273 ft 158 kts 109°
2026-04-21 12:21 -30.87573 -96.28321 13273 ft 159 kts 109°
2026-04-21 12:22 -30.87847 -96.27076 13276 ft 159 kts 109°
2026-04-21 12:22 -30.88119 -96.25830 13274 ft 159 kts 109°
2026-04-21 12:22 -30.88395 -96.24582 13273 ft 159 kts 109°
2026-04-21 12:22 -30.88662 -96.23352 13274 ft 159 kts 109°
2026-04-21 12:23 -30.88932 -96.22104 13275 ft 159 kts 109°
2026-04-21 12:23 -30.89204 -96.20860 13275 ft 158 kts 109°
2026-04-21 12:23 -30.89478 -96.19615 13277 ft 159 kts 109°
2026-04-21 12:23 -30.89753 -96.18371 13276 ft 158 kts 109°
2026-04-21 12:24 -30.90023 -96.17126 13276 ft 159 kts 109°
2026-04-21 12:24 -30.90292 -96.15880 13276 ft 159 kts 109°
2026-04-21 12:24 -30.90564 -96.14633 13276 ft 159 kts 109°
2026-04-21 12:24 -30.90838 -96.13391 13276 ft 159 kts 109°
2026-04-21 12:25 -30.91113 -96.12147 13277 ft 158 kts 109°
2026-04-21 12:25 -30.91383 -96.10903 13276 ft 159 kts 109°
2026-04-21 12:25 -30.91653 -96.09657 13277 ft 159 kts 109°
2026-04-21 12:25 -30.91923 -96.08409 13279 ft 159 kts 109°
2026-04-21 12:26 -30.92194 -96.07162 13280 ft 159 kts 109°
2026-04-21 12:26 -30.92464 -96.05915 13279 ft 158 kts 109°
2026-04-21 12:26 -30.92736 -96.04672 13279 ft 159 kts 109°
2026-04-21 12:26 -30.93004 -96.03445 13279 ft 158 kts 109°
2026-04-21 12:27 -30.93272 -96.02200 13276 ft 159 kts 109°
2026-04-21 12:27 -30.93541 -96.00954 13276 ft 158 kts 109°
2026-04-21 12:27 -30.93810 -95.99710 13277 ft 158 kts 109°
2026-04-21 12:27 -30.94082 -95.98467 13276 ft 158 kts 109°
2026-04-21 12:28 -30.94352 -95.97223 13276 ft 159 kts 109°
2026-04-21 12:28 -30.94621 -95.95976 13279 ft 159 kts 109°
2026-04-21 12:28 -30.94891 -95.94729 13279 ft 159 kts 109°
2026-04-21 12:28 -30.95162 -95.93484 13279 ft 159 kts 109°
2026-04-21 12:29 -30.95431 -95.92240 13279 ft 158 kts 109°
2026-04-21 12:29 -30.95700 -95.90992 13277 ft 159 kts 109°
2026-04-21 12:29 -30.95971 -95.89744 13277 ft 159 kts 109°
2026-04-21 12:29 -30.96239 -95.88494 13277 ft 159 kts 109°
2026-04-21 12:30 -30.96508 -95.87247 13276 ft 159 kts 109°
2026-04-21 12:30 -30.96778 -95.86000 13278 ft 159 kts 109°
2026-04-21 12:30 -30.97048 -95.84754 13278 ft 159 kts 109°
2026-04-21 12:30 -30.97316 -95.83507 13279 ft 159 kts 109°
2026-04-21 12:31 -30.97583 -95.82259 13282 ft 159 kts 109°
2026-04-21 12:31 -30.97849 -95.81012 13282 ft 158 kts 109°
2026-04-21 12:31 -30.98118 -95.79765 13282 ft 159 kts 109°
2026-04-21 12:31 -30.98389 -95.78521 13281 ft 159 kts 109°
2026-04-21 12:32 -30.98656 -95.77273 13281 ft 159 kts 109°
2026-04-21 12:32 -30.98922 -95.76023 13280 ft 159 kts 109°
2026-04-21 12:32 -30.99190 -95.74773 13279 ft 159 kts 109°
2026-04-21 12:32 -30.99459 -95.73522 13280 ft 159 kts 109°
2026-04-21 12:33 -30.99731 -95.72274 13279 ft 159 kts 109°
2026-04-21 12:33 -30.99998 -95.71028 13284 ft 159 kts 109°
2026-04-21 12:33 -31.00266 -95.69779 13282 ft 159 kts 109°
2026-04-21 12:33 -31.00534 -95.68528 13281 ft 159 kts 109°
2026-04-21 12:34 -31.00799 -95.67278 13277 ft 159 kts 108°
2026-04-21 12:34 -31.01065 -95.66027 13278 ft 159 kts 109°
2026-04-21 12:34 -31.01332 -95.64778 13279 ft 159 kts 109°
2026-04-21 12:34 -31.01599 -95.63529 13279 ft 159 kts 109°
2026-04-21 12:35 -31.01860 -95.62296 13282 ft 159 kts 109°
2026-04-21 12:35 -31.02129 -95.61045 13280 ft 159 kts 109°
2026-04-21 12:35 -31.02397 -95.59794 13280 ft 159 kts 109°
2026-04-21 12:35 -31.02664 -95.58543 13279 ft 159 kts 109°
2026-04-21 12:36 -31.02930 -95.57291 13279 ft 159 kts 109°
2026-04-21 12:36 -31.03197 -95.56042 13281 ft 159 kts 109°
2026-04-21 12:36 -31.03463 -95.54791 13282 ft 159 kts 109°
2026-04-21 12:36 -31.03729 -95.53542 13281 ft 159 kts 109°
2026-04-21 12:37 -31.03996 -95.52292 13279 ft 159 kts 109°
2026-04-21 12:37 -31.04263 -95.51040 13279 ft 159 kts 109°
2026-04-21 12:37 -31.04529 -95.49791 13280 ft 159 kts 108°
2026-04-21 12:37 -31.04794 -95.48539 13279 ft 159 kts 108°
2026-04-21 12:38 -31.05058 -95.47290 13282 ft 159 kts 108°
2026-04-21 12:38 -31.05323 -95.46043 13282 ft 158 kts 108°
2026-04-21 12:38 -31.05584 -95.44811 13282 ft 159 kts 108°
2026-04-21 12:38 -31.05848 -95.43560 13281 ft 159 kts 108°
2026-04-21 12:39 -31.06113 -95.42308 13281 ft 159 kts 109°
2026-04-21 12:39 -31.06378 -95.41057 13282 ft 159 kts 108°
2026-04-21 12:39 -31.06645 -95.39804 13282 ft 159 kts 108°
2026-04-21 12:39 -31.06911 -95.38551 13282 ft 159 kts 108°
2026-04-21 12:40 -31.07174 -95.37296 13280 ft 159 kts 108°
2026-04-21 12:40 -31.07439 -95.36040 13281 ft 159 kts 108°
2026-04-21 12:40 -31.07705 -95.34787 13282 ft 159 kts 108°
2026-04-21 12:40 -31.07969 -95.33535 13285 ft 159 kts 108°
2026-04-21 12:41 -31.08237 -95.32275 13282 ft 161 kts 108°
2026-04-21 12:41 -31.08506 -95.31010 13282 ft 161 kts 108°
2026-04-21 12:41 -31.08772 -95.29747 13281 ft 161 kts 108°
2026-04-21 12:41 -31.09036 -95.28483 13282 ft 160 kts 108°
2026-04-21 12:42 -31.09302 -95.27214 13287 ft 161 kts 108°
2026-04-21 12:42 -31.09568 -95.25949 13285 ft 160 kts 108°
2026-04-21 12:42 -31.09830 -95.24704 13284 ft 161 kts 108°
2026-04-21 12:42 -31.10100 -95.23419 13285 ft 161 kts 108°
2026-04-21 12:43 -31.10361 -95.22171 13282 ft 160 kts 108°
2026-04-21 12:43 -31.10626 -95.20909 13284 ft 160 kts 108°
2026-04-21 12:43 -31.10891 -95.19648 13285 ft 160 kts 108°
2026-04-21 12:43 -31.11157 -95.18386 13284 ft 160 kts 108°
2026-04-21 12:44 -31.11421 -95.17123 13287 ft 160 kts 108°
2026-04-21 12:44 -31.11685 -95.15859 13287 ft 160 kts 108°
2026-04-21 12:44 -31.11950 -95.14594 13288 ft 160 kts 108°
2026-04-21 12:44 -31.12213 -95.13332 13287 ft 160 kts 108°
2026-04-21 12:45 -31.12479 -95.12068 13288 ft 160 kts 108°
2026-04-21 12:45 -31.12743 -95.10808 13288 ft 160 kts 108°
2026-04-21 12:45 -31.13008 -95.09548 13287 ft 160 kts 108°
2026-04-21 12:45 -31.13270 -95.08287 13287 ft 160 kts 108°
2026-04-21 12:46 -31.13529 -95.07043 13287 ft 160 kts 108°
2026-04-21 12:46 -31.13792 -95.05781 13287 ft 160 kts 108°
2026-04-21 12:46 -31.14056 -95.04520 13287 ft 160 kts 108°
2026-04-21 12:46 -31.14319 -95.03261 13287 ft 160 kts 108°
2026-04-21 12:47 -31.14581 -95.01998 13288 ft 160 kts 108°
2026-04-21 12:47 -31.14845 -95.00736 13288 ft 160 kts 108°
2026-04-21 12:47 -31.15109 -94.99476 13288 ft 160 kts 108°
2026-04-21 12:47 -31.15366 -94.98212 13287 ft 160 kts 107°
2026-04-21 12:48 -31.15617 -94.96946 13286 ft 160 kts 107°
2026-04-21 12:48 -31.15865 -94.95680 13286 ft 160 kts 107°
2026-04-21 12:48 -31.16120 -94.94413 13289 ft 161 kts 107°
2026-04-21 12:48 -31.16379 -94.93136 13288 ft 162 kts 107°
2026-04-21 12:49 -31.16633 -94.91856 13285 ft 162 kts 107°
2026-04-21 12:49 -31.16883 -94.90575 13287 ft 162 kts 107°
2026-04-21 12:49 -31.17136 -94.89295 13287 ft 162 kts 107°
2026-04-21 12:49 -31.17388 -94.88014 13287 ft 162 kts 107°
2026-04-21 12:50 -31.17642 -94.86735 13290 ft 162 kts 107°
2026-04-21 12:50 -31.17897 -94.85453 13290 ft 162 kts 107°
2026-04-21 12:50 -31.18151 -94.84172 13289 ft 162 kts 107°
2026-04-21 12:50 -31.18406 -94.82888 13290 ft 162 kts 107°
2026-04-21 12:51 -31.18657 -94.81622 13290 ft 162 kts 107°
2026-04-21 12:51 -31.18911 -94.80336 13290 ft 162 kts 107°
2026-04-21 12:51 -31.19168 -94.79053 13290 ft 162 kts 107°
2026-04-21 12:51 -31.19423 -94.77770 13289 ft 162 kts 107°
2026-04-21 12:52 -31.19674 -94.76489 13290 ft 162 kts 107°
2026-04-21 12:52 -31.19926 -94.75206 13290 ft 162 kts 107°
2026-04-21 12:52 -31.20180 -94.73923 13290 ft 162 kts 107°
2026-04-21 12:52 -31.20434 -94.72643 13290 ft 162 kts 107°
2026-04-21 12:53 -31.20688 -94.71363 13289 ft 162 kts 107°
2026-04-21 12:53 -31.20941 -94.70082 13289 ft 162 kts 107°
2026-04-21 12:53 -31.21193 -94.68799 13290 ft 162 kts 107°
2026-04-21 12:53 -31.21448 -94.67515 13290 ft 162 kts 107°
2026-04-21 12:54 -31.21703 -94.66232 13293 ft 162 kts 107°
2026-04-21 12:54 -31.21955 -94.64951 13293 ft 162 kts 107°
2026-04-21 12:54 -31.22207 -94.63668 13293 ft 162 kts 107°
2026-04-21 12:54 -31.22458 -94.62383 13293 ft 162 kts 107°
2026-04-21 12:55 -31.22709 -94.61102 13291 ft 162 kts 107°
2026-04-21 12:55 -31.22961 -94.59823 13292 ft 161 kts 107°
2026-04-21 12:55 -31.23215 -94.58544 13292 ft 162 kts 107°
2026-04-21 12:55 -31.23465 -94.57263 13292 ft 162 kts 107°
2026-04-21 12:56 -31.23720 -94.55976 13294 ft 163 kts 107°
2026-04-21 12:56 -31.23975 -94.54683 13293 ft 163 kts 107°
2026-04-21 12:56 -31.24228 -94.53387 13293 ft 164 kts 107°
2026-04-21 12:56 -31.24482 -94.52095 13292 ft 163 kts 107°
2026-04-21 12:57 -31.24734 -94.50802 13294 ft 163 kts 106°
2026-04-21 12:57 -31.24985 -94.49512 13295 ft 163 kts 106°
2026-04-21 12:57 -31.25237 -94.48215 13296 ft 164 kts 107°
2026-04-21 12:57 -31.25490 -94.46919 13296 ft 164 kts 107°
2026-04-21 12:58 -31.25742 -94.45625 13294 ft 163 kts 107°
2026-04-21 12:58 -31.25997 -94.44326 13294 ft 164 kts 107°
2026-04-21 12:58 -31.26249 -94.43029 13293 ft 164 kts 107°
2026-04-21 12:58 -31.26500 -94.41746 13293 ft 164 kts 107°
2026-04-21 12:59 -31.26753 -94.40449 13294 ft 163 kts 106°
2026-04-21 12:59 -31.27005 -94.39155 13295 ft 163 kts 106°
2026-04-21 12:59 -31.27258 -94.37860 13295 ft 164 kts 106°
2026-04-21 12:59 -31.27509 -94.36562 13295 ft 163 kts 106°
2026-04-21 13:00 -31.27758 -94.35267 13297 ft 163 kts 106°
2026-04-21 13:00 -31.28008 -94.33971 13298 ft 163 kts 107°
2026-04-21 13:00 -31.28262 -94.32674 13298 ft 163 kts 107°
2026-04-21 13:00 -31.28516 -94.31382 13298 ft 163 kts 106°
2026-04-21 13:01 -31.28767 -94.30086 13297 ft 163 kts 106°
2026-04-21 13:01 -31.29018 -94.28784 13295 ft 164 kts 106°
2026-04-21 13:01 -31.29271 -94.27483 13295 ft 164 kts 106°
2026-04-21 13:01 -31.29524 -94.26185 13297 ft 163 kts 107°
2026-04-21 13:02 -31.29777 -94.24890 13297 ft 163 kts 106°
2026-04-21 13:02 -31.30026 -94.23594 13297 ft 163 kts 106°
2026-04-21 13:02 -31.30524 -94.21000 13298 ft 163 kts 106°
2026-04-21 13:03 -31.30774 -94.19706 13299 ft 163 kts 107°
2026-04-21 13:03 -31.31029 -94.18412 13301 ft 164 kts 106°
2026-04-21 13:03 -31.31276 -94.17131 13301 ft 164 kts 106°
2026-04-21 13:03 -31.31526 -94.15830 13300 ft 164 kts 106°
2026-04-21 13:04 -31.31773 -94.14529 13299 ft 164 kts 106°
2026-04-21 13:04 -31.32023 -94.13229 13298 ft 164 kts 106°
2026-04-21 13:04 -31.32272 -94.11930 13298 ft 164 kts 106°
2026-04-21 13:04 -31.32522 -94.10631 13300 ft 164 kts 106°
2026-04-21 13:05 -31.32772 -94.09332 13299 ft 164 kts 106°
2026-04-21 13:05 -31.32940 -94.08453 13299 ft 164 kts 106°
2026-04-21 13:05 -31.33190 -94.07155 13300 ft 164 kts 106°
2026-04-21 13:05 -31.33440 -94.05857 13301 ft 164 kts 106°
2026-04-21 13:06 -31.33690 -94.04560 13304 ft 163 kts 106°
2026-04-21 13:06 -31.33939 -94.03262 13304 ft 163 kts 106°
2026-04-21 13:06 -31.34187 -94.01962 13303 ft 164 kts 106°
2026-04-21 13:06 -31.34435 -94.00660 13303 ft 164 kts 106°
2026-04-21 13:07 -31.34686 -93.99362 13305 ft 164 kts 106°
2026-04-21 13:07 -31.34933 -93.98065 13304 ft 164 kts 106°
2026-04-21 13:07 -31.35183 -93.96762 13304 ft 164 kts 106°
2026-04-21 13:07 -31.35429 -93.95475 13303 ft 164 kts 106°
2026-04-21 13:08 -31.35676 -93.94168 13298 ft 164 kts 106°
2026-04-21 13:08 -31.35924 -93.92865 13299 ft 164 kts 106°
2026-04-21 13:08 -31.36173 -93.91565 13300 ft 164 kts 106°
2026-04-21 13:08 -31.36423 -93.90261 13300 ft 164 kts 106°
2026-04-21 13:09 -31.36671 -93.88957 13303 ft 164 kts 106°
2026-04-21 13:09 -31.36917 -93.87654 13303 ft 164 kts 106°
2026-04-21 13:09 -31.37167 -93.86350 13303 ft 164 kts 106°
2026-04-21 13:09 -31.37417 -93.85046 13303 ft 164 kts 106°
2026-04-21 13:10 -31.37665 -93.83741 13301 ft 164 kts 106°
2026-04-21 13:10 -31.37909 -93.82437 13303 ft 164 kts 105°
2026-04-21 13:10 -31.38154 -93.81132 13310 ft 164 kts 106°
2026-04-21 13:10 -31.38404 -93.79826 13305 ft 164 kts 106°
2026-04-21 13:11 -31.38652 -93.78520 13306 ft 164 kts 105°
2026-04-21 13:11 -31.38901 -93.77217 13305 ft 164 kts 105°
2026-04-21 13:11 -31.39148 -93.75910 13306 ft 164 kts 105°
2026-04-21 13:11 -31.39395 -93.74604 13306 ft 164 kts 105°
2026-04-21 13:12 -31.39643 -93.73298 13301 ft 164 kts 105°
2026-04-21 13:12 -31.39890 -93.71994 13303 ft 164 kts 105°
2026-04-21 13:12 -31.40135 -93.70690 13303 ft 164 kts 105°
2026-04-21 13:12 -31.40381 -93.69381 13303 ft 164 kts 105°
2026-04-21 13:13 -31.40624 -93.68092 13307 ft 164 kts 105°
2026-04-21 13:13 -31.40872 -93.66770 13307 ft 164 kts 105°
2026-04-21 13:13 -31.41116 -93.65482 13306 ft 164 kts 105°
2026-04-21 13:13 -31.41363 -93.64177 13306 ft 164 kts 105°
2026-04-21 13:14 -31.41608 -93.62870 13304 ft 164 kts 105°
2026-04-21 13:14 -31.41852 -93.61568 13305 ft 164 kts 105°
2026-04-21 13:14 -31.42098 -93.60265 13306 ft 164 kts 105°
2026-04-21 13:14 -31.42344 -93.58960 13306 ft 164 kts 105°
2026-04-21 13:15 -31.42589 -93.57655 13309 ft 164 kts 105°
2026-04-21 13:15 -31.42833 -93.56351 13309 ft 164 kts 105°
2026-04-21 13:15 -31.43077 -93.55046 13309 ft 164 kts 105°
2026-04-21 13:15 -31.43322 -93.53738 13309 ft 164 kts 105°
2026-04-21 13:16 -31.43567 -93.52434 13309 ft 164 kts 105°
2026-04-21 13:16 -31.43812 -93.51128 13307 ft 164 kts 105°
2026-04-21 13:16 -31.44053 -93.49838 13309 ft 164 kts 105°
2026-04-21 13:16 -31.44301 -93.48515 13309 ft 164 kts 105°
2026-04-21 13:17 -31.44542 -93.47228 13304 ft 164 kts 105°
2026-04-21 13:17 -31.44788 -93.45906 13306 ft 164 kts 105°
2026-04-21 13:17 -31.45028 -93.44616 13306 ft 164 kts 105°
2026-04-21 13:17 -31.45272 -93.43312 13306 ft 164 kts 105°
2026-04-21 13:18 -31.45515 -93.42005 13309 ft 164 kts 105°
2026-04-21 13:18 -31.45758 -93.40702 13309 ft 164 kts 105°
2026-04-21 13:18 -31.46002 -93.39395 13308 ft 164 kts 105°
2026-04-21 13:18 -31.46246 -93.38086 13309 ft 164 kts 105°
2026-04-21 13:19 -31.46488 -93.36777 13309 ft 164 kts 105°
2026-04-21 13:19 -31.46730 -93.35471 13309 ft 164 kts 105°
2026-04-21 13:19 -31.46974 -93.34161 13309 ft 165 kts 105°
2026-04-21 13:19 -31.47216 -93.32852 13309 ft 164 kts 105°
2026-04-21 13:20 -31.47459 -93.31544 13309 ft 164 kts 105°
2026-04-21 13:20 -31.47703 -93.30236 13309 ft 164 kts 105°
2026-04-21 13:20 -31.47946 -93.28929 13309 ft 164 kts 105°
2026-04-21 13:20 -31.48187 -93.27616 13313 ft 165 kts 105°
2026-04-21 13:21 -31.48429 -93.26298 13309 ft 165 kts 105°
2026-04-21 13:21 -31.48672 -93.24981 13309 ft 165 kts 106°
2026-04-21 13:21 -31.48916 -93.23665 13309 ft 165 kts 106°
2026-04-21 13:21 -31.49161 -93.22348 13308 ft 165 kts 106°
2026-04-21 13:22 -31.49405 -93.21032 13308 ft 165 kts 105°
2026-04-21 13:22 -31.49647 -93.19716 13308 ft 165 kts 106°
2026-04-21 13:22 -31.49890 -93.18399 13308 ft 165 kts 106°
2026-04-21 13:22 -31.50134 -93.17082 13308 ft 165 kts 105°
2026-04-21 13:23 -31.50376 -93.15768 13311 ft 165 kts 105°
2026-04-21 13:23 -31.50619 -93.14453 13312 ft 165 kts 105°
2026-04-21 13:23 -31.50862 -93.13135 13312 ft 165 kts 105°
2026-04-21 13:23 -31.51103 -93.11818 13312 ft 165 kts 105°
2026-04-21 13:24 -31.51344 -93.10503 13312 ft 165 kts 105°
2026-04-21 13:24 -31.51582 -93.09208 13312 ft 165 kts 105°
2026-04-21 13:24 -31.51823 -93.07895 13312 ft 165 kts 105°
2026-04-21 13:24 -31.52064 -93.06582 13312 ft 165 kts 105°
2026-04-21 13:25 -31.52305 -93.05267 13314 ft 165 kts 105°
2026-04-21 13:25 -31.52550 -93.03951 13313 ft 165 kts 105°
2026-04-21 13:25 -31.52792 -93.02632 13312 ft 166 kts 105°
2026-04-21 13:25 -31.53033 -93.01309 13312 ft 166 kts 105°
2026-04-21 13:26 -31.53274 -92.99990 13310 ft 166 kts 105°
2026-04-21 13:26 -31.53514 -92.98668 13311 ft 166 kts 105°
2026-04-21 13:26 -31.53755 -92.97346 13311 ft 166 kts 105°
2026-04-21 13:26 -31.53996 -92.96025 13312 ft 166 kts 105°
2026-04-21 13:27 -31.54236 -92.94704 13311 ft 166 kts 105°
2026-04-21 13:27 -31.54477 -92.93379 13311 ft 166 kts 105°
2026-04-21 13:27 -31.54719 -92.92056 13311 ft 166 kts 105°
2026-04-21 13:27 -31.54959 -92.90736 13311 ft 166 kts 105°
2026-04-21 13:28 -31.55200 -92.89413 13312 ft 166 kts 105°
2026-04-21 13:28 -31.55439 -92.88093 13312 ft 166 kts 105°
2026-04-21 13:28 -31.55679 -92.86773 13311 ft 166 kts 105°
2026-04-21 13:28 -31.55919 -92.85453 13311 ft 166 kts 105°
2026-04-21 13:29 -31.56159 -92.84131 13314 ft 166 kts 105°
2026-04-21 13:29 -31.56399 -92.82808 13314 ft 166 kts 105°
2026-04-21 13:29 -31.56635 -92.81506 13314 ft 166 kts 105°
2026-04-21 13:29 -31.56875 -92.80184 13314 ft 166 kts 105°
2026-04-21 13:30 -31.57115 -92.78860 13312 ft 166 kts 105°
2026-04-21 13:30 -31.57353 -92.77540 13313 ft 166 kts 105°
2026-04-21 13:30 -31.57591 -92.76220 13314 ft 166 kts 105°
2026-04-21 13:30 -31.57830 -92.74897 13314 ft 166 kts 105°
2026-04-21 13:31 -31.58070 -92.73576 13313 ft 166 kts 105°
2026-04-21 13:31 -31.58309 -92.72255 13312 ft 166 kts 105°
2026-04-21 13:31 -31.58547 -92.70933 13312 ft 166 kts 105°
2026-04-21 13:31 -31.58785 -92.69612 13311 ft 166 kts 105°
2026-04-21 13:32 -31.59023 -92.68289 13314 ft 166 kts 105°
2026-04-21 13:32 -31.59260 -92.66968 13315 ft 166 kts 105°
2026-04-21 13:32 -31.59500 -92.65644 13314 ft 166 kts 105°
2026-04-21 13:32 -31.59740 -92.64317 13314 ft 166 kts 105°
2026-04-21 13:33 -31.59978 -92.62990 13314 ft 166 kts 105°
2026-04-21 13:33 -31.60216 -92.61664 13315 ft 166 kts 105°
2026-04-21 13:33 -31.60454 -92.60336 13315 ft 166 kts 105°
2026-04-21 13:33 -31.60691 -92.59008 13315 ft 166 kts 105°
2026-04-21 13:34 -31.60930 -92.57678 13318 ft 166 kts 105°
2026-04-21 13:34 -31.61168 -92.56352 13317 ft 166 kts 105°
2026-04-21 13:34 -31.61406 -92.55024 13317 ft 166 kts 105°
2026-04-21 13:34 -31.61642 -92.53694 13317 ft 167 kts 105°
2026-04-21 13:35 -31.61879 -92.52365 13315 ft 166 kts 105°
2026-04-21 13:35 -31.62116 -92.51038 13316 ft 166 kts 105°
2026-04-21 13:35 -31.62353 -92.49711 13316 ft 166 kts 105°
2026-04-21 13:35 -31.62590 -92.48385 13317 ft 166 kts 105°
2026-04-21 13:36 -31.62827 -92.47057 13319 ft 166 kts 105°
2026-04-21 13:36 -31.63065 -92.45729 13317 ft 166 kts 105°
2026-04-21 13:36 -31.63302 -92.44399 13317 ft 166 kts 105°
2026-04-21 13:36 -31.63538 -92.43071 13317 ft 166 kts 105°
2026-04-21 13:37 -31.63774 -92.41745 13318 ft 166 kts 105°
2026-04-21 13:37 -31.64009 -92.40421 13319 ft 166 kts 105°
2026-04-21 13:37 -31.64245 -92.39094 13320 ft 166 kts 105°
2026-04-21 13:37 -31.64482 -92.37764 13320 ft 166 kts 105°
2026-04-21 13:38 -31.64716 -92.36435 13320 ft 166 kts 105°
2026-04-21 13:38 -31.64951 -92.35110 13320 ft 166 kts 105°
2026-04-21 13:38 -31.65186 -92.33783 13320 ft 166 kts 105°
2026-04-21 13:38 -31.65421 -92.32458 13320 ft 166 kts 105°
2026-04-21 13:39 -31.65656 -92.31130 13319 ft 166 kts 105°
2026-04-21 13:39 -31.65890 -92.29804 13320 ft 166 kts 105°
2026-04-21 13:39 -31.66125 -92.28477 13324 ft 166 kts 105°
2026-04-21 13:39 -31.66357 -92.27164 13323 ft 166 kts 105°
2026-04-21 13:40 -31.66594 -92.25833 13323 ft 166 kts 105°
2026-04-21 13:40 -31.66833 -92.24487 13322 ft 166 kts 105°
2026-04-21 13:40 -31.67067 -92.23158 13322 ft 166 kts 105°
2026-04-21 13:40 -31.67299 -92.21828 13322 ft 166 kts 105°
2026-04-21 13:41 -31.67532 -92.20497 13322 ft 166 kts 105°
2026-04-21 13:41 -31.67767 -92.19166 13322 ft 166 kts 105°
2026-04-21 13:41 -31.68000 -92.17839 13322 ft 166 kts 105°
2026-04-21 13:41 -31.68234 -92.16509 13322 ft 166 kts 105°
2026-04-21 13:42 -31.68468 -92.15179 13325 ft 166 kts 105°
2026-04-21 13:42 -31.68698 -92.13867 13325 ft 166 kts 105°
2026-04-21 13:42 -31.68932 -92.12535 13325 ft 166 kts 105°
2026-04-21 13:42 -31.69165 -92.11206 13325 ft 166 kts 105°
2026-04-21 13:43 -31.69398 -92.09874 13325 ft 166 kts 105°
2026-04-21 13:43 -31.69631 -92.08543 13326 ft 166 kts 105°
2026-04-21 13:43 -31.69864 -92.07211 13325 ft 167 kts 105°
2026-04-21 13:43 -31.70097 -92.05875 13326 ft 167 kts 105°
2026-04-21 13:44 -31.70331 -92.04539 13322 ft 167 kts 105°
2026-04-21 13:44 -31.70563 -92.03207 13322 ft 166 kts 105°
2026-04-21 13:44 -31.70796 -92.01874 13323 ft 167 kts 105°
2026-04-21 13:44 -31.71029 -92.00541 13323 ft 167 kts 105°
2026-04-21 13:45 -31.71261 -91.99207 13324 ft 167 kts 105°
2026-04-21 13:45 -31.71494 -91.97871 13326 ft 167 kts 105°
2026-04-21 13:45 -31.71726 -91.96536 13325 ft 167 kts 105°
2026-04-21 13:45 -31.71958 -91.95203 13325 ft 167 kts 105°
2026-04-21 13:46 -31.72190 -91.93869 13327 ft 166 kts 105°
2026-04-21 13:46 -31.72423 -91.92536 13327 ft 167 kts 104°
2026-04-21 13:46 -31.72655 -91.91203 13327 ft 167 kts 104°
2026-04-21 13:46 -31.72886 -91.89869 13329 ft 166 kts 104°
2026-04-21 13:47 -31.73118 -91.88536 13329 ft 167 kts 104°
2026-04-21 13:47 -31.73349 -91.87201 13328 ft 167 kts 104°
2026-04-21 13:47 -31.73579 -91.85867 13328 ft 167 kts 104°
2026-04-21 13:47 -31.73808 -91.84532 13327 ft 167 kts 104°
2026-04-21 13:48 -31.74036 -91.83216 13328 ft 166 kts 104°
2026-04-21 13:48 -31.74267 -91.81882 13327 ft 166 kts 104°
2026-04-21 13:48 -31.74497 -91.80550 13327 ft 166 kts 104°
2026-04-21 13:48 -31.74726 -91.79220 13327 ft 166 kts 104°
2026-04-21 13:49 -31.74955 -91.77889 13330 ft 166 kts 104°
2026-04-21 13:49 -31.75185 -91.76556 13331 ft 166 kts 104°
2026-04-21 13:49 -31.75414 -91.75223 13331 ft 166 kts 104°
2026-04-21 13:49 -31.75643 -91.73891 13330 ft 166 kts 104°
2026-04-21 13:50 -31.75873 -91.72558 13330 ft 166 kts 104°
2026-04-21 13:50 -31.76103 -91.71227 13330 ft 166 kts 104°
2026-04-21 13:50 -31.76332 -91.69893 13331 ft 166 kts 104°
2026-04-21 13:50 -31.76561 -91.68560 13330 ft 167 kts 104°
2026-04-21 13:51 -31.76790 -91.67227 13331 ft 167 kts 104°
2026-04-21 13:51 -31.77018 -91.65892 13330 ft 167 kts 104°
2026-04-21 13:51 -31.77170 -91.65007 13330 ft 167 kts 104°
2026-04-21 13:51 -31.77399 -91.63672 13331 ft 167 kts 104°
2026-04-21 13:52 -31.77627 -91.62337 13329 ft 166 kts 104°
2026-04-21 13:52 -31.77855 -91.61004 13330 ft 166 kts 104°
2026-04-21 13:52 -31.78082 -91.59672 13331 ft 166 kts 104°
2026-04-21 13:52 -31.78310 -91.58339 13331 ft 166 kts 104°
2026-04-21 13:53 -31.78538 -91.57004 13335 ft 166 kts 104°
2026-04-21 13:53 -31.78765 -91.55671 13333 ft 167 kts 104°
2026-04-21 13:53 -31.78993 -91.54334 13336 ft 167 kts 104°
2026-04-21 13:53 -31.79222 -91.52986 13334 ft 169 kts 104°
2026-04-21 13:54 -31.79451 -91.51634 13334 ft 169 kts 104°
2026-04-21 13:54 -31.79681 -91.50279 13330 ft 169 kts 104°
2026-04-21 13:54 -31.79911 -91.48926 13331 ft 169 kts 104°
2026-04-21 13:54 -31.80138 -91.47593 13330 ft 169 kts 104°
2026-04-21 13:55 -31.80371 -91.46224 13328 ft 169 kts 104°
2026-04-21 13:55 -31.80601 -91.44875 13329 ft 168 kts 104°
2026-04-21 13:55 -31.80830 -91.43526 13330 ft 168 kts 104°
2026-04-21 13:55 -31.81057 -91.42191 13331 ft 168 kts 104°
2026-04-21 13:56 -31.81285 -91.40840 13336 ft 169 kts 104°
2026-04-21 13:56 -31.81512 -91.39488 13334 ft 169 kts 104°
2026-04-21 13:56 -31.81740 -91.38138 13333 ft 168 kts 104°
2026-04-21 13:56 -31.81969 -91.36788 13333 ft 168 kts 104°
2026-04-21 13:57 -31.82198 -91.35439 13331 ft 168 kts 104°
2026-04-21 13:57 -31.82426 -91.34087 13332 ft 168 kts 104°
2026-04-21 13:57 -31.82653 -91.32738 13333 ft 168 kts 104°
2026-04-21 13:57 -31.82881 -91.31385 13333 ft 168 kts 104°
2026-04-21 13:58 -31.83109 -91.30036 13336 ft 168 kts 104°
2026-04-21 13:58 -31.83336 -91.28686 13333 ft 168 kts 104°
2026-04-21 13:58 -31.83564 -91.27331 13333 ft 168 kts 104°
2026-04-21 13:58 -31.83790 -91.25981 13333 ft 168 kts 104°
2026-04-21 13:59 -31.84017 -91.24632 13330 ft 168 kts 104°
2026-04-21 13:59 -31.84244 -91.23284 13333 ft 168 kts 104°
2026-04-21 13:59 -31.84470 -91.21937 13333 ft 168 kts 104°
2026-04-21 13:59 -31.84696 -91.20588 13333 ft 168 kts 104°
2026-04-21 14:00 -31.84922 -91.19236 13336 ft 168 kts 104°
2026-04-21 14:00 -31.85145 -91.17887 13338 ft 168 kts 104°
2026-04-21 14:00 -31.85372 -91.16535 13339 ft 168 kts 104°
2026-04-21 14:00 -31.85598 -91.15186 13339 ft 168 kts 104°
2026-04-21 14:01 -31.85825 -91.13836 13339 ft 168 kts 104°
2026-04-21 14:01 -31.86049 -91.12503 13337 ft 168 kts 104°
2026-04-21 14:01 -31.86275 -91.11153 13336 ft 168 kts 104°
2026-04-21 14:01 -31.86501 -91.09800 13335 ft 168 kts 104°
2026-04-21 14:02 -31.86725 -91.08447 13336 ft 168 kts 104°
2026-04-21 14:02 -31.86948 -91.07097 13336 ft 168 kts 104°
2026-04-21 14:02 -31.87172 -91.05747 13336 ft 168 kts 104°
2026-04-21 14:03 -31.87621 -91.03045 13336 ft 168 kts 104°
2026-04-21 14:03 -31.87846 -91.01694 13336 ft 168 kts 104°
2026-04-21 14:03 -31.88070 -91.00343 13336 ft 168 kts 104°
2026-04-21 14:03 -31.88294 -90.98992 13336 ft 168 kts 104°
2026-04-21 14:04 -31.88517 -90.97641 13336 ft 168 kts 104°
2026-04-21 14:04 -31.88741 -90.96289 13336 ft 168 kts 104°
2026-04-21 14:04 -31.88964 -90.94938 13336 ft 168 kts 104°
2026-04-21 14:04 -31.89188 -90.93584 13335 ft 168 kts 104°
2026-04-21 14:05 -31.89411 -90.92232 13334 ft 168 kts 104°
2026-04-21 14:05 -31.89635 -90.90878 13335 ft 168 kts 104°
2026-04-21 14:05 -31.89858 -90.89527 13336 ft 168 kts 104°
2026-04-21 14:05 -31.90082 -90.88175 13336 ft 168 kts 104°
2026-04-21 14:06 -31.90304 -90.86823 13338 ft 169 kts 104°
2026-04-21 14:06 -31.90527 -90.85468 13336 ft 169 kts 104°
2026-04-21 14:06 -31.90747 -90.84132 13336 ft 168 kts 104°
2026-04-21 14:06 -31.90969 -90.82780 13336 ft 168 kts 104°
2026-04-21 14:07 -31.91192 -90.81427 13334 ft 168 kts 104°
2026-04-21 14:07 -31.91413 -90.80074 13335 ft 168 kts 104°
2026-04-21 14:07 -31.91635 -90.78721 13336 ft 168 kts 104°
2026-04-21 14:07 -31.91857 -90.77370 13336 ft 168 kts 104°
2026-04-21 14:08 -31.92079 -90.76017 13341 ft 168 kts 104°
2026-04-21 14:08 -31.92298 -90.74663 13339 ft 168 kts 104°
2026-04-21 14:08 -31.92519 -90.73312 13339 ft 168 kts 104°
2026-04-21 14:08 -31.92740 -90.71960 13339 ft 168 kts 104°
2026-04-21 14:09 -31.92961 -90.70609 13339 ft 168 kts 104°
2026-04-21 14:09 -31.93183 -90.69254 13338 ft 168 kts 104°
2026-04-21 14:09 -31.93405 -90.67900 13339 ft 168 kts 104°
2026-04-21 14:09 -31.93625 -90.66549 13339 ft 168 kts 104°
2026-04-21 14:10 -31.93845 -90.65196 13339 ft 168 kts 104°
2026-04-21 14:10 -31.94065 -90.63844 13339 ft 168 kts 104°
2026-04-21 14:10 -31.94283 -90.62509 13339 ft 168 kts 104°
2026-04-21 14:10 -31.94503 -90.61156 13338 ft 168 kts 104°
2026-04-21 14:11 -31.94722 -90.59805 13344 ft 168 kts 104°
2026-04-21 14:11 -31.94942 -90.58452 13344 ft 168 kts 104°
2026-04-21 14:11 -31.95162 -90.57101 13344 ft 168 kts 104°
2026-04-21 14:11 -31.95381 -90.55749 13344 ft 168 kts 104°
2026-04-21 14:12 -31.95600 -90.54398 13344 ft 168 kts 104°
2026-04-21 14:12 -31.95818 -90.53044 13344 ft 168 kts 104°
2026-04-21 14:12 -31.96037 -90.51692 13344 ft 168 kts 104°
2026-04-21 14:12 -31.96256 -90.50341 13344 ft 168 kts 104°
2026-04-21 14:13 -31.96474 -90.48987 13342 ft 168 kts 104°
2026-04-21 14:13 -31.96692 -90.47636 13343 ft 168 kts 104°
2026-04-21 14:13 -31.96910 -90.46286 13344 ft 168 kts 104°
2026-04-21 14:13 -31.97128 -90.44934 13344 ft 168 kts 104°
2026-04-21 14:14 -31.97345 -90.43584 13345 ft 168 kts 104°
2026-04-21 14:14 -31.97560 -90.42248 13344 ft 168 kts 104°
2026-04-21 14:14 -31.97780 -90.40878 13344 ft 168 kts 104°
2026-04-21 14:14 -31.97997 -90.39526 13344 ft 168 kts 104°
2026-04-21 14:15 -31.98215 -90.38174 13345 ft 168 kts 104°
2026-04-21 14:15 -31.98428 -90.36842 13345 ft 167 kts 104°
2026-04-21 14:15 -31.98646 -90.35477 13344 ft 167 kts 104°
2026-04-21 14:15 -31.98859 -90.34149 13344 ft 167 kts 104°
2026-04-21 14:16 -31.99074 -90.32803 13345 ft 167 kts 104°
2026-04-21 14:16 -31.99291 -90.31456 13344 ft 167 kts 104°
2026-04-21 14:16 -31.99507 -90.30111 13347 ft 167 kts 104°
2026-04-21 14:16 -31.99722 -90.28766 13346 ft 167 kts 104°
2026-04-21 14:17 -31.99938 -90.27420 13346 ft 167 kts 104°
2026-04-21 14:17 -32.00153 -90.26073 13346 ft 167 kts 104°
2026-04-21 14:17 -32.00369 -90.24727 13347 ft 167 kts 104°
2026-04-21 14:17 -32.00583 -90.23379 13347 ft 167 kts 104°
2026-04-21 14:18 -32.00797 -90.22030 13346 ft 167 kts 104°
2026-04-21 14:18 -32.01011 -90.20682 13347 ft 167 kts 104°
2026-04-21 14:18 -32.01225 -90.19333 13347 ft 167 kts 104°
2026-04-21 14:18 -32.01440 -90.17984 13346 ft 167 kts 104°
2026-04-21 14:19 -32.01654 -90.16637 13347 ft 167 kts 104°
2026-04-21 14:19 -32.01868 -90.15290 13347 ft 167 kts 104°
2026-04-21 14:19 -32.02082 -90.13944 13346 ft 167 kts 104°
2026-04-21 14:19 -32.02296 -90.12595 13347 ft 167 kts 104°
2026-04-21 14:20 -32.02509 -90.11248 13347 ft 167 kts 104°
2026-04-21 14:20 -32.02723 -90.09898 13347 ft 167 kts 104°
2026-04-21 14:20 -32.02936 -90.08551 13346 ft 167 kts 104°
2026-04-21 14:20 -32.03149 -90.07201 13347 ft 168 kts 104°
2026-04-21 14:21 -32.03362 -90.05850 13344 ft 168 kts 104°
2026-04-21 14:21 -32.03575 -90.04500 13344 ft 167 kts 104°
2026-04-21 14:21 -32.03787 -90.03150 13344 ft 168 kts 104°
2026-04-21 14:21 -32.03997 -90.01820 13344 ft 167 kts 104°
2026-04-21 14:22 -32.04209 -90.00471 13343 ft 168 kts 104°
2026-04-21 14:22 -32.04421 -89.99122 13346 ft 167 kts 104°
2026-04-21 14:22 -32.04630 -89.97774 13342 ft 167 kts 104°
2026-04-21 14:22 -32.04839 -89.96427 13344 ft 167 kts 104°
2026-04-21 14:23 -32.05051 -89.95080 13345 ft 167 kts 104°
2026-04-21 14:23 -32.05263 -89.93737 13344 ft 167 kts 104°
2026-04-21 14:23 -32.05476 -89.92393 13344 ft 167 kts 104°
2026-04-21 14:23 -32.05688 -89.91046 13344 ft 167 kts 104°
2026-04-21 14:24 -32.05898 -89.89703 13344 ft 167 kts 104°
2026-04-21 14:24 -32.06108 -89.88359 13344 ft 167 kts 104°
2026-04-21 14:24 -32.06319 -89.87016 13343 ft 167 kts 104°
2026-04-21 14:24 -32.06529 -89.85672 13344 ft 167 kts 104°
2026-04-21 14:25 -32.06739 -89.84329 13343 ft 167 kts 104°
2026-04-21 14:25 -32.06948 -89.82986 13344 ft 167 kts 104°
2026-04-21 14:25 -32.07158 -89.81642 13344 ft 167 kts 104°
2026-04-21 14:25 -32.07368 -89.80295 13344 ft 167 kts 104°
2026-04-21 14:26 -32.07581 -89.78940 13346 ft 169 kts 104°
2026-04-21 14:26 -32.07793 -89.77578 13345 ft 169 kts 104°
2026-04-21 14:26 -32.08005 -89.76214 13344 ft 169 kts 104°
2026-04-21 14:26 -32.08215 -89.74853 13346 ft 169 kts 104°
2026-04-21 14:27 -32.08426 -89.73491 13343 ft 169 kts 104°
2026-04-21 14:27 -32.08637 -89.72133 13343 ft 168 kts 104°
2026-04-21 14:27 -32.08847 -89.70777 13346 ft 168 kts 104°
2026-04-21 14:27 -32.09057 -89.69420 13343 ft 168 kts 104°
2026-04-21 14:28 -32.09266 -89.68064 13346 ft 168 kts 104°
2026-04-21 14:28 -32.09476 -89.66705 13343 ft 168 kts 104°
2026-04-21 14:28 -32.09686 -89.65347 13343 ft 168 kts 104°
2026-04-21 14:28 -32.09893 -89.64007 13343 ft 168 kts 104°
2026-04-21 14:29 -32.10105 -89.62631 13343 ft 168 kts 104°
2026-04-21 14:29 -32.10311 -89.61294 13343 ft 168 kts 104°
2026-04-21 14:29 -32.10519 -89.59938 13344 ft 168 kts 104°
2026-04-21 14:29 -32.10728 -89.58581 13343 ft 168 kts 104°
2026-04-21 14:30 -32.10937 -89.57223 13345 ft 168 kts 104°
2026-04-21 14:30 -32.11146 -89.55865 13346 ft 168 kts 104°
2026-04-21 14:30 -32.11354 -89.54508 13347 ft 168 kts 104°
2026-04-21 14:30 -32.11563 -89.53149 13347 ft 168 kts 104°
2026-04-21 14:31 -32.11772 -89.51793 13345 ft 168 kts 104°
2026-04-21 14:31 -32.11979 -89.50435 13344 ft 168 kts 104°
2026-04-21 14:31 -32.12187 -89.49076 13342 ft 168 kts 104°
2026-04-21 14:31 -32.12377 -89.47712 13321 ft 169 kts 104°
2026-04-21 14:32 -32.12591 -89.46362 13333 ft 167 kts 105°
2026-04-21 14:32 -32.12805 -89.45022 13340 ft 166 kts 104°
2026-04-21 14:32 -32.13016 -89.43679 13340 ft 166 kts 104°
2026-04-21 14:32 -32.13224 -89.42336 13343 ft 166 kts 104°
2026-04-21 14:33 -32.13429 -89.40991 13344 ft 167 kts 104°
2026-04-21 14:33 -32.13635 -89.39642 13344 ft 167 kts 104°
2026-04-21 14:33 -32.13839 -89.38290 13347 ft 167 kts 104°
2026-04-21 14:33 -32.14043 -89.36938 13347 ft 168 kts 104°
2026-04-21 14:34 -32.14247 -89.35584 13347 ft 168 kts 104°
2026-04-21 14:34 -32.14452 -89.34231 13347 ft 168 kts 104°
2026-04-21 14:34 -32.14657 -89.32878 13346 ft 168 kts 104°
2026-04-21 14:34 -32.14859 -89.31542 13347 ft 168 kts 104°
2026-04-21 14:35 -32.15064 -89.30187 13347 ft 168 kts 104°
2026-04-21 14:35 -32.15268 -89.28832 13347 ft 168 kts 104°
2026-04-21 14:35 -32.15473 -89.27476 13346 ft 168 kts 104°
2026-04-21 14:35 -32.15679 -89.26120 13347 ft 168 kts 104°
2026-04-21 14:36 -32.15884 -89.24763 13347 ft 168 kts 104°
2026-04-21 14:36 -32.16088 -89.23408 13354 ft 168 kts 104°
2026-04-21 14:36 -32.16289 -89.22049 13353 ft 168 kts 104°
2026-04-21 14:36 -32.16493 -89.20687 13351 ft 168 kts 104°
2026-04-21 14:37 -32.16699 -89.19330 13350 ft 168 kts 104°
2026-04-21 14:37 -32.16904 -89.17973 13355 ft 168 kts 104°
2026-04-21 14:37 -32.17109 -89.16616 13351 ft 168 kts 104°
2026-04-21 14:37 -32.17313 -89.15261 13353 ft 168 kts 104°
2026-04-21 14:38 -32.17518 -89.13902 13353 ft 168 kts 104°
2026-04-21 14:38 -32.17723 -89.12546 13354 ft 168 kts 104°
2026-04-21 14:38 -32.17927 -89.11187 13352 ft 168 kts 104°
2026-04-21 14:38 -32.18131 -89.09828 13351 ft 168 kts 104°
2026-04-21 14:39 -32.18334 -89.08471 13352 ft 168 kts 104°
2026-04-21 14:39 -32.18537 -89.07112 13352 ft 168 kts 104°
2026-04-21 14:39 -32.18739 -89.05756 13352 ft 168 kts 104°
2026-04-21 14:39 -32.18942 -89.04397 13353 ft 168 kts 104°
2026-04-21 14:40 -32.19076 -89.03499 13350 ft 168 kts 104°
2026-04-21 14:40 -32.19279 -89.02140 13352 ft 168 kts 104°
2026-04-21 14:40 -32.19547 -89.00341 13353 ft 168 kts 104°
2026-04-21 14:40 -32.19750 -88.98982 13352 ft 168 kts 104°
2026-04-21 14:41 -32.19952 -88.97622 13352 ft 168 kts 104°
2026-04-21 14:41 -32.20089 -88.96702 13352 ft 168 kts 104°
2026-04-21 14:41 -32.20291 -88.95341 13352 ft 168 kts 104°
2026-04-21 14:41 -32.20492 -88.93983 13354 ft 168 kts 104°
2026-04-21 14:42 -32.20692 -88.92640 13348 ft 168 kts 104°
2026-04-21 14:42 -32.20894 -88.91282 13351 ft 168 kts 104°
2026-04-21 14:42 -32.21095 -88.89925 13352 ft 168 kts 104°
2026-04-21 14:42 -32.21296 -88.88565 13352 ft 168 kts 104°
2026-04-21 14:43 -32.21497 -88.87207 13355 ft 168 kts 104°
2026-04-21 14:43 -32.21698 -88.85845 13353 ft 168 kts 104°
2026-04-21 14:43 -32.21898 -88.84485 13354 ft 168 kts 104°
2026-04-21 14:43 -32.22097 -88.83126 13353 ft 168 kts 104°
2026-04-21 14:44 -32.22298 -88.81767 13354 ft 168 kts 104°
2026-04-21 14:44 -32.22500 -88.80407 13352 ft 168 kts 104°
2026-04-21 14:44 -32.22700 -88.79046 13352 ft 168 kts 104°
2026-04-21 14:44 -32.22900 -88.77684 13353 ft 168 kts 104°
2026-04-21 14:45 -32.23100 -88.76323 13350 ft 168 kts 104°
2026-04-21 14:45 -32.23300 -88.74964 13351 ft 168 kts 104°
2026-04-21 14:45 -32.23500 -88.73606 13353 ft 168 kts 104°
2026-04-21 14:45 -32.23699 -88.72248 13352 ft 168 kts 104°
2026-04-21 14:46 -32.23898 -88.70891 13354 ft 168 kts 104°
2026-04-21 14:46 -32.24097 -88.69531 13355 ft 168 kts 104°
2026-04-21 14:46 -32.24296 -88.68169 13358 ft 168 kts 104°
2026-04-21 14:46 -32.24495 -88.66811 13354 ft 168 kts 104°
2026-04-21 14:47 -32.24693 -88.65453 13354 ft 168 kts 104°
2026-04-21 14:47 -32.24891 -88.64094 13354 ft 168 kts 104°
2026-04-21 14:47 -32.25089 -88.62737 13357 ft 168 kts 104°
2026-04-21 14:47 -32.25287 -88.61379 13358 ft 168 kts 104°
2026-04-21 14:48 -32.25486 -88.60019 13357 ft 168 kts 104°
2026-04-21 14:48 -32.25684 -88.58658 13358 ft 168 kts 104°
2026-04-21 14:48 -32.25882 -88.57299 13358 ft 168 kts 104°
2026-04-21 14:48 -32.26079 -88.55941 13357 ft 168 kts 104°
2026-04-21 14:49 -32.26276 -88.54580 13357 ft 168 kts 104°
2026-04-21 14:49 -32.26471 -88.53237 13360 ft 168 kts 104°
2026-04-21 14:49 -32.26668 -88.51879 13356 ft 168 kts 104°
2026-04-21 14:49 -32.26865 -88.50518 13358 ft 168 kts 104°
2026-04-21 14:50 -32.27062 -88.49160 13360 ft 168 kts 104°
2026-04-21 14:50 -32.27258 -88.47799 13357 ft 168 kts 104°
2026-04-21 14:50 -32.27455 -88.46439 13358 ft 167 kts 104°
2026-04-21 14:50 -32.27651 -88.45086 13358 ft 167 kts 104°
2026-04-21 14:51 -32.27847 -88.43733 13358 ft 167 kts 104°
2026-04-21 14:51 -32.28041 -88.42381 13358 ft 167 kts 104°
2026-04-21 14:51 -32.28236 -88.41029 13357 ft 167 kts 104°
2026-04-21 14:51 -32.28431 -88.39676 13357 ft 167 kts 104°
2026-04-21 14:52 -32.28625 -88.38324 13357 ft 167 kts 104°
2026-04-21 14:52 -32.28818 -88.36973 13357 ft 167 kts 104°
2026-04-21 14:52 -32.29013 -88.35620 13357 ft 167 kts 104°
2026-04-21 14:52 -32.29208 -88.34268 13358 ft 167 kts 104°
2026-04-21 14:53 -32.29402 -88.32915 13358 ft 167 kts 104°
2026-04-21 14:53 -32.29595 -88.31562 13359 ft 167 kts 104°
2026-04-21 14:53 -32.29789 -88.30209 13357 ft 167 kts 104°
2026-04-21 14:53 -32.29983 -88.28855 13360 ft 167 kts 104°
2026-04-21 14:54 -32.30176 -88.27504 13356 ft 167 kts 104°
2026-04-21 14:54 -32.30368 -88.26151 13357 ft 167 kts 104°
2026-04-21 14:54 -32.30558 -88.24816 13358 ft 167 kts 104°
2026-04-21 14:54 -32.30751 -88.23464 13357 ft 167 kts 104°
2026-04-21 14:55 -32.30944 -88.22113 13357 ft 167 kts 104°
2026-04-21 14:55 -32.31137 -88.20763 13356 ft 167 kts 104°
2026-04-21 14:55 -32.31329 -88.19412 13359 ft 167 kts 104°
2026-04-21 14:55 -32.31521 -88.18060 13360 ft 167 kts 104°
2026-04-21 14:56 -32.31712 -88.16708 13362 ft 167 kts 104°
2026-04-21 14:56 -32.31904 -88.15354 13358 ft 167 kts 104°
2026-04-21 14:56 -32.32097 -88.14001 13357 ft 167 kts 104°
2026-04-21 14:56 -32.32288 -88.12648 13358 ft 167 kts 104°
2026-04-21 14:57 -32.32480 -88.11293 13355 ft 167 kts 104°
2026-04-21 14:57 -32.32670 -88.09941 13356 ft 167 kts 104°
2026-04-21 14:57 -32.32863 -88.08587 13361 ft 167 kts 104°
2026-04-21 14:57 -32.33057 -88.07233 13358 ft 167 kts 104°
2026-04-21 14:58 -32.33249 -88.05879 13357 ft 167 kts 104°
2026-04-21 14:58 -32.33436 -88.04518 13358 ft 167 kts 104°
2026-04-21 14:58 -32.33624 -88.03160 13361 ft 167 kts 104°
2026-04-21 14:58 -32.33816 -88.01799 13356 ft 168 kts 104°
2026-04-21 14:59 -32.34007 -88.00441 13355 ft 167 kts 104°
2026-04-21 14:59 -32.34198 -87.99083 13354 ft 167 kts 104°
2026-04-21 14:59 -32.34390 -87.97726 13356 ft 167 kts 104°
2026-04-21 14:59 -32.34582 -87.96369 13354 ft 167 kts 104°
2026-04-21 15:00 -32.34772 -87.95014 13354 ft 167 kts 104°
2026-04-21 15:00 -32.34961 -87.93659 13357 ft 167 kts 104°
2026-04-21 15:00 -32.35151 -87.92303 13359 ft 167 kts 104°
2026-04-21 15:00 -32.35341 -87.90944 13359 ft 167 kts 104°
2026-04-21 15:01 -32.35532 -87.89585 13357 ft 167 kts 104°
2026-04-21 15:01 -32.35722 -87.88226 13355 ft 168 kts 104°
2026-04-21 15:01 -32.35909 -87.86884 13356 ft 168 kts 104°
2026-04-21 15:01 -32.36101 -87.85508 13357 ft 168 kts 104°
2026-04-21 15:02 -32.36291 -87.84148 13355 ft 167 kts 104°
2026-04-21 15:02 -32.36480 -87.82788 13355 ft 168 kts 104°
2026-04-21 15:02 -32.36669 -87.81428 13355 ft 168 kts 104°
2026-04-21 15:02 -32.36858 -87.80069 13354 ft 168 kts 104°
2026-04-21 15:03 -32.37044 -87.78727 13355 ft 167 kts 104°
2026-04-21 15:03 -32.37235 -87.77350 13355 ft 167 kts 104°
2026-04-21 15:03 -32.37422 -87.76007 13355 ft 168 kts 104°
2026-04-21 15:03 -32.37610 -87.74648 13356 ft 168 kts 104°
2026-04-21 15:04 -32.37798 -87.73286 13354 ft 168 kts 104°
2026-04-21 15:04 -32.37986 -87.71924 13359 ft 168 kts 104°
2026-04-21 15:04 -32.38175 -87.70561 13361 ft 168 kts 104°
2026-04-21 15:04 -32.38367 -87.69192 13355 ft 169 kts 104°
2026-04-21 15:05 -32.38557 -87.67821 13353 ft 169 kts 104°
2026-04-21 15:05 -32.38933 -87.65078 13351 ft 169 kts 103°
2026-04-21 15:05 -32.39121 -87.63703 13352 ft 169 kts 104°
2026-04-21 15:06 -32.39308 -87.62335 13351 ft 169 kts 104°
2026-04-21 15:06 -32.39493 -87.60982 13352 ft 169 kts 104°
2026-04-21 15:06 -32.39680 -87.59611 13352 ft 169 kts 104°
2026-04-21 15:06 -32.39869 -87.58241 13351 ft 169 kts 104°
2026-04-21 15:07 -32.40060 -87.56853 13357 ft 168 kts 104°
2026-04-21 15:07 -32.40248 -87.55485 13350 ft 169 kts 104°
2026-04-21 15:07 -32.40432 -87.54133 13350 ft 169 kts 104°
2026-04-21 15:07 -32.40619 -87.52762 13349 ft 169 kts 104°
2026-04-21 15:08 -32.40807 -87.51389 13350 ft 169 kts 104°
2026-04-21 15:08 -32.40994 -87.50020 13349 ft 169 kts 104°
2026-04-21 15:08 -32.41181 -87.48649 13350 ft 169 kts 104°
2026-04-21 15:08 -32.41368 -87.47278 13348 ft 169 kts 104°
2026-04-21 15:09 -32.41554 -87.45908 13349 ft 169 kts 103°
2026-04-21 15:09 -32.41740 -87.44539 13348 ft 169 kts 103°
2026-04-21 15:09 -32.41926 -87.43170 13349 ft 168 kts 103°
2026-04-21 15:09 -32.42112 -87.41803 13347 ft 168 kts 103°
2026-04-21 15:10 -32.42297 -87.40434 13347 ft 168 kts 103°
2026-04-21 15:10 -32.42482 -87.39066 13349 ft 168 kts 103°
2026-04-21 15:10 -32.42667 -87.37701 13352 ft 168 kts 103°
2026-04-21 15:10 -32.42852 -87.36333 13348 ft 168 kts 103°
2026-04-21 15:11 -32.43036 -87.34968 13347 ft 168 kts 103°
2026-04-21 15:11 -32.43221 -87.33597 13346 ft 168 kts 103°
2026-04-21 15:11 -32.43407 -87.32232 13350 ft 168 kts 103°
2026-04-21 15:11 -32.43594 -87.30862 13347 ft 168 kts 103°
2026-04-21 15:12 -32.43779 -87.29494 13348 ft 168 kts 103°
2026-04-21 15:12 -32.43963 -87.28125 13342 ft 169 kts 103°
2026-04-21 15:12 -32.44147 -87.26755 13347 ft 168 kts 103°
2026-04-21 15:12 -32.44330 -87.25386 13347 ft 168 kts 103°
2026-04-21 15:13 -32.44510 -87.24034 13349 ft 168 kts 103°
2026-04-21 15:13 -32.44693 -87.22665 13347 ft 168 kts 103°
2026-04-21 15:13 -32.44876 -87.21296 13346 ft 168 kts 103°
2026-04-21 15:13 -32.45062 -87.19909 13348 ft 168 kts 103°
2026-04-21 15:14 -32.45243 -87.18558 13343 ft 168 kts 103°
2026-04-21 15:14 -32.45426 -87.17189 13348 ft 168 kts 103°
2026-04-21 15:14 -32.45609 -87.15817 13346 ft 168 kts 103°
2026-04-21 15:14 -32.45792 -87.14449 13351 ft 168 kts 103°
2026-04-21 15:15 -32.45975 -87.13080 13346 ft 168 kts 103°
2026-04-21 15:15 -32.46157 -87.11708 13348 ft 168 kts 103°
2026-04-21 15:15 -32.46339 -87.10339 13342 ft 168 kts 103°
2026-04-21 15:15 -32.46521 -87.08970 13348 ft 168 kts 103°
2026-04-21 15:16 -32.46703 -87.07601 13347 ft 168 kts 103°
2026-04-21 15:16 -32.46886 -87.06228 13344 ft 169 kts 103°
2026-04-21 15:16 -32.47068 -87.04857 13348 ft 168 kts 103°
2026-04-21 15:16 -32.47250 -87.03485 13351 ft 168 kts 103°
2026-04-21 15:17 -32.47432 -87.02115 13341 ft 168 kts 103°
2026-04-21 15:17 -32.47611 -87.00762 13347 ft 168 kts 103°
2026-04-21 15:17 -32.47792 -86.99390 13349 ft 168 kts 103°
2026-04-21 15:17 -32.47973 -86.98020 13347 ft 168 kts 103°
2026-04-21 15:18 -32.48153 -86.96649 13345 ft 168 kts 103°
2026-04-21 15:18 -32.48333 -86.95280 13347 ft 169 kts 103°
2026-04-21 15:18 -32.48514 -86.93909 13348 ft 168 kts 103°
2026-04-21 15:18 -32.48696 -86.92541 13348 ft 168 kts 103°
2026-04-21 15:19 -32.48877 -86.91175 13348 ft 168 kts 103°
2026-04-21 15:19 -32.49057 -86.89808 13348 ft 168 kts 103°
2026-04-21 15:19 -32.49236 -86.88441 13347 ft 168 kts 103°
2026-04-21 15:19 -32.49414 -86.87075 13347 ft 168 kts 103°
2026-04-21 15:20 -32.49593 -86.85708 13344 ft 168 kts 103°
2026-04-21 15:20 -32.49772 -86.84343 13347 ft 168 kts 103°
2026-04-21 15:20 -32.49950 -86.82977 13347 ft 168 kts 103°
2026-04-21 15:20 -32.50128 -86.81610 13348 ft 168 kts 103°
2026-04-21 15:21 -32.50304 -86.80263 13348 ft 168 kts 103°
2026-04-21 15:21 -32.50485 -86.78879 13346 ft 168 kts 103°
2026-04-21 15:21 -32.50663 -86.77512 13348 ft 168 kts 103°
2026-04-21 15:21 -32.50841 -86.76147 13347 ft 168 kts 103°
2026-04-21 15:22 -32.51017 -86.74797 13345 ft 168 kts 103°
2026-04-21 15:22 -32.51195 -86.73429 13349 ft 168 kts 103°
2026-04-21 15:22 -32.51372 -86.72063 13348 ft 168 kts 103°
2026-04-21 15:22 -32.51550 -86.70695 13343 ft 168 kts 103°
2026-04-21 15:23 -32.51727 -86.69330 13346 ft 168 kts 103°
2026-04-21 15:23 -32.51904 -86.67963 13347 ft 168 kts 103°
2026-04-21 15:23 -32.52080 -86.66595 13347 ft 168 kts 103°
2026-04-21 15:23 -32.52257 -86.65229 13347 ft 168 kts 103°
2026-04-21 15:24 -32.52434 -86.63862 13350 ft 168 kts 103°
2026-04-21 15:24 -32.52610 -86.62493 13349 ft 168 kts 103°
2026-04-21 15:24 -32.52788 -86.61121 13343 ft 168 kts 103°
2026-04-21 15:24 -32.52965 -86.59751 13348 ft 168 kts 103°
2026-04-21 15:25 -32.53142 -86.58382 13346 ft 168 kts 103°
2026-04-21 15:25 -32.53318 -86.57014 13346 ft 168 kts 103°
2026-04-21 15:25 -32.53494 -86.55647 13343 ft 168 kts 103°
2026-04-21 15:25 -32.53670 -86.54280 13348 ft 168 kts 103°
2026-04-21 15:26 -32.53845 -86.52914 13349 ft 168 kts 103°
2026-04-21 15:26 -32.53961 -86.52010 13349 ft 168 kts 103°
2026-04-21 15:26 -32.54136 -86.50643 13347 ft 168 kts 103°
2026-04-21 15:26 -32.54311 -86.49276 13348 ft 168 kts 103°
2026-04-21 15:27 -32.54543 -86.47466 13348 ft 168 kts 103°
2026-04-21 15:27 -32.54716 -86.46100 13342 ft 168 kts 103°
2026-04-21 15:27 -32.54891 -86.44736 13346 ft 167 kts 103°
2026-04-21 15:27 -32.55065 -86.43370 13346 ft 167 kts 103°
2026-04-21 15:28 -32.55182 -86.42449 13347 ft 168 kts 103°
2026-04-21 15:28 -32.55355 -86.41082 13348 ft 168 kts 103°
2026-04-21 15:28 -32.55529 -86.39717 13347 ft 168 kts 103°
2026-04-21 15:28 -32.55703 -86.38350 13348 ft 168 kts 103°
2026-04-21 15:29 -32.55877 -86.36982 13349 ft 168 kts 103°
2026-04-21 15:29 -32.56050 -86.35618 13348 ft 168 kts 103°
2026-04-21 15:29 -32.56223 -86.34251 13348 ft 168 kts 103°
2026-04-21 15:29 -32.56397 -86.32885 13348 ft 168 kts 103°
2026-04-21 15:30 -32.56568 -86.31534 13351 ft 168 kts 103°
2026-04-21 15:30 -32.56737 -86.30155 13349 ft 169 kts 103°
2026-04-21 15:30 -32.56910 -86.28773 13348 ft 169 kts 103°
2026-04-21 15:30 -32.57085 -86.27392 13348 ft 169 kts 103°
2026-04-21 15:31 -32.57260 -86.26009 13348 ft 170 kts 103°
2026-04-21 15:31 -32.57436 -86.24627 13345 ft 170 kts 103°
2026-04-21 15:31 -32.57611 -86.23243 13343 ft 170 kts 103°
2026-04-21 15:31 -32.57786 -86.21859 13345 ft 170 kts 103°
2026-04-21 15:32 -32.57961 -86.20477 13345 ft 170 kts 103°
2026-04-21 15:32 -32.58135 -86.19093 13345 ft 170 kts 103°
2026-04-21 15:32 -32.58310 -86.17711 13348 ft 169 kts 103°
2026-04-21 15:32 -32.58484 -86.16340 13345 ft 168 kts 103°
2026-04-21 15:33 -32.58655 -86.14973 13348 ft 168 kts 103°
2026-04-21 15:33 -32.58825 -86.13622 13346 ft 168 kts 103°
2026-04-21 15:33 -32.58996 -86.12251 13346 ft 168 kts 103°
2026-04-21 15:33 -32.59166 -86.10883 13344 ft 168 kts 103°
2026-04-21 15:34 -32.59337 -86.09513 13344 ft 168 kts 103°
2026-04-21 15:34 -32.59506 -86.08145 13345 ft 168 kts 103°
2026-04-21 15:34 -32.59676 -86.06775 13345 ft 168 kts 103°
2026-04-21 15:34 -32.59846 -86.05402 13345 ft 168 kts 103°
2026-04-21 15:35 -32.60016 -86.04032 13337 ft 168 kts 103°
2026-04-21 15:35 -32.60186 -86.02663 13342 ft 168 kts 103°
2026-04-21 15:35 -32.60356 -86.01294 13342 ft 168 kts 103°
2026-04-21 15:35 -32.60525 -85.99928 13343 ft 168 kts 103°
2026-04-21 15:36 -32.60695 -85.98559 13345 ft 168 kts 103°
2026-04-21 15:36 -32.60863 -85.97189 13343 ft 168 kts 103°
2026-04-21 15:36 -32.61033 -85.95818 13343 ft 168 kts 103°
2026-04-21 15:36 -32.61202 -85.94446 13342 ft 168 kts 103°
2026-04-21 15:37 -32.61372 -85.93077 13339 ft 168 kts 103°
2026-04-21 15:37 -32.61541 -85.91707 13335 ft 168 kts 103°
2026-04-21 15:37 -32.61709 -85.90336 13342 ft 168 kts 103°
2026-04-21 15:37 -32.61878 -85.88967 13342 ft 168 kts 103°
2026-04-21 15:38 -32.62046 -85.87598 13341 ft 168 kts 103°
2026-04-21 15:38 -32.62214 -85.86230 13345 ft 168 kts 103°
2026-04-21 15:38 -32.62379 -85.84878 13344 ft 168 kts 103°
2026-04-21 15:38 -32.62547 -85.83511 13346 ft 168 kts 103°
2026-04-21 15:39 -32.62715 -85.82141 13347 ft 168 kts 103°
2026-04-21 15:39 -32.62883 -85.80772 13345 ft 168 kts 103°
2026-04-21 15:39 -32.63051 -85.79399 13345 ft 168 kts 103°
2026-04-21 15:39 -32.63219 -85.78030 13345 ft 168 kts 102°
2026-04-21 15:40 -32.63386 -85.76656 13343 ft 168 kts 102°
2026-04-21 15:40 -32.63553 -85.75288 13344 ft 168 kts 102°
2026-04-21 15:40 -32.63720 -85.73918 13344 ft 168 kts 102°
2026-04-21 15:40 -32.63886 -85.72548 13344 ft 168 kts 102°
2026-04-21 15:41 -32.64052 -85.71180 13347 ft 168 kts 102°
2026-04-21 15:41 -32.64218 -85.69808 13346 ft 168 kts 103°
2026-04-21 15:41 -32.64384 -85.68437 13343 ft 168 kts 103°
2026-04-21 15:41 -32.64551 -85.67067 13341 ft 168 kts 103°
2026-04-21 15:42 -32.64716 -85.65697 13344 ft 168 kts 103°
2026-04-21 15:42 -32.64883 -85.64326 13342 ft 168 kts 103°
2026-04-21 15:42 -32.65048 -85.62955 13345 ft 168 kts 102°
2026-04-21 15:42 -32.65212 -85.61599 13339 ft 168 kts 102°
2026-04-21 15:43 -32.65377 -85.60228 13343 ft 168 kts 102°
2026-04-21 15:43 -32.65542 -85.58860 13344 ft 168 kts 103°
2026-04-21 15:43 -32.65707 -85.57490 13348 ft 168 kts 102°
2026-04-21 15:43 -32.65872 -85.56120 13348 ft 168 kts 102°
2026-04-21 15:44 -32.66037 -85.54749 13350 ft 168 kts 102°
2026-04-21 15:44 -32.66202 -85.53379 13348 ft 168 kts 102°
2026-04-21 15:44 -32.66366 -85.52008 13345 ft 168 kts 102°
2026-04-21 15:44 -32.66531 -85.50635 13348 ft 168 kts 102°
2026-04-21 15:45 -32.66695 -85.49263 13345 ft 168 kts 102°
2026-04-21 15:45 -32.66860 -85.47890 13348 ft 168 kts 102°
2026-04-21 15:45 -32.67024 -85.46516 13348 ft 168 kts 102°
2026-04-21 15:45 -32.67188 -85.45145 13348 ft 168 kts 102°
2026-04-21 15:46 -32.67351 -85.43771 13346 ft 168 kts 102°
2026-04-21 15:46 -32.67514 -85.42402 13353 ft 168 kts 102°
2026-04-21 15:46 -32.67680 -85.41029 13349 ft 168 kts 102°
2026-04-21 15:46 -32.67844 -85.39655 13348 ft 168 kts 102°
2026-04-21 15:47 -32.68007 -85.38284 13346 ft 168 kts 102°
2026-04-21 15:47 -32.68169 -85.36909 13347 ft 168 kts 102°
2026-04-21 15:47 -32.68331 -85.35534 13347 ft 168 kts 102°
2026-04-21 15:47 -32.68492 -85.34178 13347 ft 168 kts 102°
2026-04-21 15:48 -32.68654 -85.32804 13344 ft 168 kts 102°
2026-04-21 15:48 -32.68817 -85.31429 13348 ft 168 kts 102°
2026-04-21 15:48 -32.68979 -85.30057 13347 ft 168 kts 102°
2026-04-21 15:48 -32.69141 -85.28682 13347 ft 168 kts 102°
2026-04-21 15:49 -32.69302 -85.27309 13344 ft 168 kts 102°
2026-04-21 15:49 -32.69464 -85.25935 13344 ft 168 kts 102°
2026-04-21 15:49 -32.69626 -85.24562 13345 ft 168 kts 102°
2026-04-21 15:49 -32.69788 -85.23186 13345 ft 168 kts 102°
2026-04-21 15:50 -32.69949 -85.21813 13345 ft 168 kts 102°
2026-04-21 15:50 -32.70111 -85.20439 13345 ft 168 kts 102°
2026-04-21 15:50 -32.70272 -85.19063 13345 ft 168 kts 102°
2026-04-21 15:50 -32.70433 -85.17687 13345 ft 168 kts 102°
2026-04-21 15:51 -32.70594 -85.16313 13344 ft 168 kts 102°
2026-04-21 15:51 -32.70754 -85.14939 13344 ft 168 kts 102°
2026-04-21 15:51 -32.70914 -85.13565 13343 ft 168 kts 102°
2026-04-21 15:51 -32.71075 -85.12190 13345 ft 168 kts 102°
2026-04-21 15:52 -32.71235 -85.10814 13345 ft 168 kts 102°
2026-04-21 15:52 -32.71395 -85.09442 13345 ft 168 kts 102°
2026-04-21 15:52 -32.71556 -85.08064 13344 ft 168 kts 102°
2026-04-21 15:52 -32.71715 -85.06689 13345 ft 168 kts 102°
2026-04-21 15:53 -32.71875 -85.05314 13345 ft 168 kts 102°
2026-04-21 15:53 -32.72035 -85.03941 13346 ft 167 kts 102°
2026-04-21 15:53 -32.72194 -85.02595 13344 ft 167 kts 102°
2026-04-21 15:53 -32.72353 -85.01229 13344 ft 167 kts 102°
2026-04-21 15:54 -32.72510 -84.99864 13344 ft 167 kts 102°
2026-04-21 15:54 -32.72668 -84.98497 13344 ft 167 kts 102°
2026-04-21 15:54 -32.72825 -84.97132 13344 ft 167 kts 102°
2026-04-21 15:54 -32.72981 -84.95764 13345 ft 167 kts 102°
2026-04-21 15:55 -32.73138 -84.94399 13345 ft 167 kts 102°
2026-04-21 15:55 -32.73294 -84.93034 13344 ft 167 kts 102°
2026-04-21 15:55 -32.73451 -84.91667 13341 ft 167 kts 102°
2026-04-21 15:55 -32.73608 -84.90301 13342 ft 167 kts 102°
2026-04-21 15:56 -32.73765 -84.88933 13342 ft 167 kts 102°
2026-04-21 15:56 -32.73922 -84.87566 13341 ft 167 kts 102°
2026-04-21 15:56 -32.74079 -84.86197 13341 ft 167 kts 102°
2026-04-21 15:56 -32.74235 -84.84831 13342 ft 167 kts 102°
2026-04-21 15:57 -32.74391 -84.83460 13341 ft 167 kts 102°
2026-04-21 15:57 -32.74546 -84.82093 13342 ft 167 kts 102°
2026-04-21 15:57 -32.74703 -84.80726 13341 ft 167 kts 102°
2026-04-21 15:57 -32.74859 -84.79357 13342 ft 167 kts 102°
2026-04-21 15:58 -32.75014 -84.77989 13343 ft 167 kts 102°
2026-04-21 15:58 -32.75170 -84.76619 13341 ft 167 kts 102°
2026-04-21 15:58 -32.75326 -84.75251 13342 ft 167 kts 102°
2026-04-21 15:58 -32.75481 -84.73883 13342 ft 167 kts 102°
2026-04-21 15:59 -32.75637 -84.72513 13342 ft 167 kts 102°
2026-04-21 15:59 -32.75792 -84.71144 13342 ft 167 kts 102°
2026-04-21 15:59 -32.75947 -84.69775 13342 ft 167 kts 102°
2026-04-21 15:59 -32.76100 -84.68422 13342 ft 167 kts 102°
2026-04-21 16:00 -32.76254 -84.67052 13343 ft 167 kts 102°
2026-04-21 16:00 -32.76413 -84.65663 13346 ft 167 kts 102°
2026-04-21 16:00 -32.76568 -84.64314 13345 ft 167 kts 101°
2026-04-21 16:00 -32.76723 -84.62944 13344 ft 167 kts 101°
2026-04-21 16:01 -32.76876 -84.61574 13344 ft 167 kts 101°
2026-04-21 16:01 -32.77030 -84.60203 13342 ft 167 kts 101°
2026-04-21 16:01 -32.77183 -84.58836 13342 ft 167 kts 101°
2026-04-21 16:01 -32.77334 -84.57463 13343 ft 168 kts 101°
2026-04-21 16:02 -32.77484 -84.56082 13343 ft 168 kts 101°
2026-04-21 16:02 -32.77637 -84.54702 13341 ft 168 kts 102°
2026-04-21 16:02 -32.77792 -84.53323 13342 ft 168 kts 102°
2026-04-21 16:02 -32.77947 -84.51945 13341 ft 168 kts 102°
2026-04-21 16:03 -32.78102 -84.50568 13341 ft 168 kts 102°
2026-04-21 16:03 -32.78256 -84.49189 13341 ft 168 kts 102°
2026-04-21 16:03 -32.78410 -84.47811 13341 ft 168 kts 102°
2026-04-21 16:03 -32.78564 -84.46433 13342 ft 168 kts 102°
2026-04-21 16:04 -32.78717 -84.45054 13342 ft 168 kts 102°
2026-04-21 16:04 -32.78870 -84.43676 13342 ft 168 kts 102°
2026-04-21 16:04 -32.79024 -84.42300 13341 ft 168 kts 102°
2026-04-21 16:04 -32.79175 -84.40940 13342 ft 168 kts 101°
2026-04-21 16:05 -32.79329 -84.39545 13342 ft 168 kts 101°
2026-04-21 16:05 -32.79479 -84.38183 13342 ft 168 kts 101°
2026-04-21 16:05 -32.79631 -84.36808 13342 ft 168 kts 101°
2026-04-21 16:05 -32.79783 -84.35429 13345 ft 168 kts 101°
2026-04-21 16:06 -32.79934 -84.34051 13345 ft 168 kts 101°
2026-04-21 16:06 -32.80085 -84.32673 13345 ft 168 kts 101°
2026-04-21 16:06 -32.80237 -84.31294 13345 ft 168 kts 101°
2026-04-21 16:06 -32.80389 -84.29916 13344 ft 168 kts 101°
2026-04-21 16:07 -32.80542 -84.28537 13346 ft 168 kts 101°
2026-04-21 16:07 -32.80700 -84.27158 13343 ft 168 kts 101°
2026-04-21 16:07 -32.80854 -84.25774 13342 ft 168 kts 101°
2026-04-21 16:07 -32.81004 -84.24394 13342 ft 168 kts 101°
2026-04-21 16:08 -32.81301 -84.21632 13339 ft 168 kts 101°
2026-04-21 16:08 -32.81450 -84.20252 13339 ft 168 kts 101°
2026-04-21 16:08 -32.81599 -84.18870 13339 ft 168 kts 101°
2026-04-21 16:09 -32.81749 -84.17489 13339 ft 168 kts 101°
2026-04-21 16:09 -32.81898 -84.16108 13338 ft 168 kts 101°
2026-04-21 16:09 -32.82048 -84.14727 13338 ft 168 kts 101°
2026-04-21 16:09 -32.82197 -84.13346 13338 ft 168 kts 101°
2026-04-21 16:10 -32.82347 -84.11964 13342 ft 168 kts 101°
2026-04-21 16:10 -32.82495 -84.10604 13342 ft 168 kts 101°
2026-04-21 16:10 -32.82644 -84.09224 13342 ft 168 kts 101°
2026-04-21 16:10 -32.82793 -84.07842 13342 ft 168 kts 101°
2026-04-21 16:11 -32.82942 -84.06461 13343 ft 168 kts 101°
2026-04-21 16:11 -32.83092 -84.05079 13343 ft 168 kts 101°
2026-04-21 16:11 -32.83240 -84.03699 13343 ft 168 kts 101°
2026-04-21 16:11 -32.83389 -84.02315 13342 ft 168 kts 101°
2026-04-21 16:12 -32.83489 -84.01384 13342 ft 169 kts 101°
2026-04-21 16:12 -32.83686 -83.99551 13342 ft 169 kts 101°
2026-04-21 16:12 -32.83834 -83.98169 13341 ft 168 kts 101°
2026-04-21 16:12 -32.83982 -83.96788 13341 ft 168 kts 101°
2026-04-21 16:13 -32.84130 -83.95408 13345 ft 168 kts 101°
2026-04-21 16:13 -32.84278 -83.94024 13345 ft 168 kts 101°
2026-04-21 16:13 -32.84425 -83.92645 13345 ft 168 kts 101°
2026-04-21 16:13 -32.84572 -83.91263 13344 ft 168 kts 101°
2026-04-21 16:14 -32.84723 -83.89884 13342 ft 168 kts 100°
2026-04-21 16:14 -32.84873 -83.88509 13342 ft 168 kts 100°
2026-04-21 16:14 -32.85018 -83.87135 13342 ft 168 kts 100°
2026-04-21 16:14 -32.85115 -83.86224 13342 ft 168 kts 100°
2026-04-21 16:15 -32.85259 -83.84849 13344 ft 168 kts 100°
2026-04-21 16:15 -32.85404 -83.83470 13344 ft 168 kts 100°
2026-04-21 16:15 -32.85549 -83.82093 13345 ft 168 kts 100°
2026-04-21 16:15 -32.85693 -83.80716 13345 ft 168 kts 100°
2026-04-21 16:16 -32.85839 -83.79338 13345 ft 168 kts 100°
2026-04-21 16:16 -32.85984 -83.77960 13344 ft 168 kts 100°
2026-04-21 16:16 -32.86129 -83.76583 13345 ft 168 kts 100°
2026-04-21 16:16 -32.86274 -83.75205 13345 ft 168 kts 100°
2026-04-21 16:17 -32.86419 -83.73831 13345 ft 168 kts 100°
2026-04-21 16:17 -32.86563 -83.72454 13345 ft 168 kts 100°
2026-04-21 16:17 -32.86708 -83.71077 13345 ft 168 kts 100°
2026-04-21 16:17 -32.86853 -83.69702 13345 ft 168 kts 100°
2026-04-21 16:18 -32.86997 -83.68325 13344 ft 168 kts 100°
2026-04-21 16:18 -32.87140 -83.66947 13344 ft 168 kts 100°
2026-04-21 16:18 -32.87282 -83.65589 13344 ft 168 kts 100°
2026-04-21 16:18 -32.87428 -83.64195 13344 ft 168 kts 100°
2026-04-21 16:19 -32.87570 -83.62835 13345 ft 168 kts 100°
2026-04-21 16:19 -32.87713 -83.61458 13344 ft 168 kts 100°
2026-04-21 16:19 -32.87857 -83.60082 13344 ft 168 kts 100°
2026-04-21 16:19 -32.88000 -83.58705 13344 ft 168 kts 100°
2026-04-21 16:20 -32.88143 -83.57328 13344 ft 168 kts 100°
2026-04-21 16:20 -32.88285 -83.55951 13344 ft 168 kts 100°
2026-04-21 16:20 -32.88428 -83.54575 13344 ft 168 kts 100°
2026-04-21 16:20 -32.88571 -83.53195 13351 ft 168 kts 100°
2026-04-21 16:21 -32.88714 -83.51815 13343 ft 168 kts 100°
2026-04-21 16:21 -32.88857 -83.50435 13342 ft 168 kts 100°
2026-04-21 16:21 -32.88999 -83.49054 13341 ft 168 kts 99°
2026-04-21 16:21 -32.89142 -83.47674 13342 ft 168 kts 99°
2026-04-21 16:22 -32.89284 -83.46295 13341 ft 168 kts 99°
2026-04-21 16:22 -32.89426 -83.44914 13339 ft 168 kts 99°
2026-04-21 16:22 -32.89567 -83.43535 13339 ft 168 kts 99°
2026-04-21 16:22 -32.89709 -83.42155 13339 ft 168 kts 99°
2026-04-21 16:23 -32.89851 -83.40770 13339 ft 168 kts 99°
2026-04-21 16:23 -32.89990 -83.39411 13339 ft 168 kts 99°
2026-04-21 16:23 -32.90131 -83.38033 13338 ft 168 kts 99°
2026-04-21 16:23 -32.90272 -83.36652 13339 ft 168 kts 99°
2026-04-21 16:24 -32.90412 -83.35274 13339 ft 168 kts 99°
2026-04-21 16:24 -32.90553 -83.33896 13340 ft 168 kts 99°
2026-04-21 16:24 -32.90693 -83.32519 13339 ft 168 kts 99°
2026-04-21 16:24 -32.90834 -83.31139 13339 ft 168 kts 99°
2026-04-21 16:25 -32.90974 -83.29761 13340 ft 168 kts 99°
2026-04-21 16:25 -32.91114 -83.28382 13341 ft 168 kts 99°
2026-04-21 16:25 -32.91253 -83.27003 13342 ft 168 kts 99°
2026-04-21 16:25 -32.91393 -83.25622 13342 ft 168 kts 99°
2026-04-21 16:26 -32.91533 -83.24245 13344 ft 168 kts 99°
2026-04-21 16:26 -32.91672 -83.22864 13342 ft 168 kts 99°
2026-04-21 16:26 -32.91812 -83.21486 13342 ft 168 kts 99°
2026-04-21 16:26 -32.91951 -83.20106 13341 ft 168 kts 99°
2026-04-21 16:27 -32.92090 -83.18727 13339 ft 168 kts 99°
2026-04-21 16:27 -32.92228 -83.17348 13339 ft 168 kts 99°
2026-04-21 16:27 -32.92366 -83.15969 13340 ft 168 kts 99°
2026-04-21 16:27 -32.92505 -83.14588 13340 ft 168 kts 99°
2026-04-21 16:28 -32.92644 -83.13205 13339 ft 168 kts 99°
2026-04-21 16:28 -32.92782 -83.11822 13339 ft 168 kts 99°
2026-04-21 16:28 -32.92921 -83.10440 13339 ft 168 kts 99°
2026-04-21 16:28 -32.93059 -83.09059 13338 ft 168 kts 99°
2026-04-21 16:29 -32.93197 -83.07676 13339 ft 168 kts 99°
2026-04-21 16:29 -32.93334 -83.06295 13339 ft 168 kts 99°
2026-04-21 16:29 -32.93472 -83.04913 13339 ft 168 kts 99°
2026-04-21 16:29 -32.93609 -83.03531 13339 ft 168 kts 99°
2026-04-21 16:30 -32.93746 -83.02151 13339 ft 168 kts 99°
2026-04-21 16:30 -32.93883 -83.00767 13339 ft 168 kts 99°
2026-04-21 16:30 -32.94020 -82.99384 13339 ft 168 kts 99°
2026-04-21 16:30 -32.94157 -82.97999 13339 ft 168 kts 99°
2026-04-21 16:31 -32.94292 -82.96634 13339 ft 168 kts 99°
2026-04-21 16:31 -32.94431 -82.95235 13339 ft 168 kts 99°
2026-04-21 16:31 -32.94566 -82.93870 13339 ft 168 kts 99°
2026-04-21 16:31 -32.94703 -82.92486 13339 ft 168 kts 99°
2026-04-21 16:32 -32.94839 -82.91104 13339 ft 168 kts 99°
2026-04-21 16:32 -32.94974 -82.89722 13339 ft 168 kts 99°
2026-04-21 16:32 -32.95110 -82.88337 13339 ft 168 kts 99°
2026-04-21 16:32 -32.95246 -82.86955 13339 ft 168 kts 99°
2026-04-21 16:33 -32.95381 -82.85568 13340 ft 168 kts 99°
2026-04-21 16:33 -32.95517 -82.84179 13339 ft 169 kts 99°
2026-04-21 16:33 -32.95653 -82.82791 13339 ft 169 kts 99°
2026-04-21 16:33 -32.95788 -82.81404 13339 ft 169 kts 99°
2026-04-21 16:34 -32.95924 -82.80015 13336 ft 169 kts 99°
2026-04-21 16:34 -32.96059 -82.78629 13336 ft 169 kts 99°
2026-04-21 16:34 -32.96195 -82.77239 13337 ft 169 kts 99°
2026-04-21 16:34 -32.96331 -82.75846 13337 ft 169 kts 99°
2026-04-21 16:35 -32.96466 -82.74454 13337 ft 169 kts 99°
2026-04-21 16:35 -32.96601 -82.73061 13337 ft 169 kts 99°
2026-04-21 16:35 -32.96735 -82.71669 13337 ft 169 kts 99°
2026-04-21 16:35 -32.96870 -82.70276 13336 ft 169 kts 99°
2026-04-21 16:36 -32.97003 -82.68901 13336 ft 169 kts 99°
2026-04-21 16:36 -32.97137 -82.67508 13336 ft 169 kts 99°
2026-04-21 16:36 -32.97271 -82.66117 13336 ft 169 kts 99°
2026-04-21 16:36 -32.97405 -82.64720 13336 ft 169 kts 99°
2026-04-21 16:37 -32.97538 -82.63329 13339 ft 169 kts 99°
2026-04-21 16:37 -32.97672 -82.61935 13339 ft 169 kts 99°
2026-04-21 16:37 -32.97806 -82.60543 13339 ft 169 kts 99°
2026-04-21 16:37 -32.97939 -82.59152 13339 ft 169 kts 99°
2026-04-21 16:38 -32.98072 -82.57760 13338 ft 169 kts 99°
2026-04-21 16:38 -32.98205 -82.56366 13338 ft 169 kts 99°
2026-04-21 16:38 -32.98338 -82.54976 13339 ft 169 kts 99°
2026-04-21 16:38 -32.98469 -82.53601 13338 ft 169 kts 99°
2026-04-21 16:39 -32.98602 -82.52210 13339 ft 169 kts 99°
2026-04-21 16:39 -32.98734 -82.50817 13339 ft 169 kts 99°
2026-04-21 16:39 -32.98866 -82.49428 13339 ft 169 kts 99°
2026-04-21 16:39 -32.98998 -82.48034 13339 ft 169 kts 99°
2026-04-21 16:40 -32.99131 -82.46642 13339 ft 169 kts 99°
2026-04-21 16:40 -32.99263 -82.45249 13339 ft 169 kts 99°
2026-04-21 16:40 -32.99394 -82.43858 13338 ft 169 kts 99°
2026-04-21 16:40 -32.99525 -82.42466 13338 ft 169 kts 99°
2026-04-21 16:41 -32.99656 -82.41074 13336 ft 169 kts 99°
2026-04-21 16:41 -32.99788 -82.39681 13343 ft 169 kts 98°
2026-04-21 16:41 -32.99922 -82.38285 13340 ft 169 kts 99°
2026-04-21 16:41 -33.00055 -82.36891 13339 ft 169 kts 98°
2026-04-21 16:42 -33.00185 -82.35495 13339 ft 169 kts 98°
2026-04-21 16:42 -33.00313 -82.34101 13339 ft 169 kts 98°
2026-04-21 16:42 -33.00443 -82.32708 13339 ft 169 kts 98°
2026-04-21 16:42 -33.00573 -82.31315 13339 ft 169 kts 98°
2026-04-21 16:43 -33.00701 -82.29942 13337 ft 169 kts 98°
2026-04-21 16:43 -33.00832 -82.28548 13339 ft 169 kts 98°
2026-04-21 16:43 -33.00961 -82.27158 13339 ft 169 kts 98°
2026-04-21 16:43 -33.01091 -82.25766 13339 ft 169 kts 98°
2026-04-21 16:44 -33.01220 -82.24373 13339 ft 169 kts 98°
2026-04-21 16:44 -33.01348 -82.22979 13339 ft 169 kts 98°
2026-04-21 16:44 -33.01477 -82.21584 13339 ft 169 kts 98°
2026-04-21 16:44 -33.01606 -82.20192 13339 ft 169 kts 98°
2026-04-21 16:45 -33.01736 -82.18797 13340 ft 169 kts 98°
2026-04-21 16:45 -33.01865 -82.17403 13339 ft 169 kts 98°
2026-04-21 16:45 -33.01994 -82.16009 13339 ft 169 kts 98°
2026-04-21 16:45 -33.02123 -82.14611 13339 ft 169 kts 98°
2026-04-21 16:46 -33.02251 -82.13219 13339 ft 169 kts 98°
2026-04-21 16:46 -33.02379 -82.11822 13339 ft 169 kts 98°
2026-04-21 16:46 -33.02507 -82.10428 13339 ft 169 kts 98°
2026-04-21 16:46 -33.02635 -82.09032 13339 ft 169 kts 98°
2026-04-21 16:47 -33.02762 -82.07637 13339 ft 169 kts 98°
2026-04-21 16:47 -33.02889 -82.06243 13339 ft 169 kts 98°
2026-04-21 16:47 -33.03016 -82.04848 13339 ft 169 kts 98°
2026-04-21 16:47 -33.03144 -82.03455 13339 ft 169 kts 98°
2026-04-21 16:48 -33.03270 -82.02075 13339 ft 169 kts 98°
2026-04-21 16:48 -33.03398 -82.00679 13339 ft 169 kts 98°
2026-04-21 16:48 -33.03525 -81.99284 13339 ft 169 kts 98°
2026-04-21 16:48 -33.03651 -81.97887 13339 ft 169 kts 98°
2026-04-21 16:49 -33.03777 -81.96492 13339 ft 169 kts 98°
2026-04-21 16:49 -33.03903 -81.95096 13339 ft 169 kts 98°
2026-04-21 16:49 -33.04029 -81.93701 13339 ft 169 kts 98°
2026-04-21 16:49 -33.04155 -81.92307 13339 ft 169 kts 98°
2026-04-21 16:50 -33.04282 -81.90909 13340 ft 169 kts 98°
2026-04-21 16:50 -33.04408 -81.89513 13339 ft 169 kts 98°
2026-04-21 16:50 -33.04534 -81.88117 13339 ft 169 kts 98°
2026-04-21 16:50 -33.04660 -81.86719 13339 ft 169 kts 98°
2026-04-21 16:51 -33.04784 -81.85325 13340 ft 169 kts 98°
2026-04-21 16:51 -33.04909 -81.83928 13339 ft 169 kts 98°
2026-04-21 16:51 -33.05034 -81.82533 13339 ft 169 kts 98°
2026-04-21 16:51 -33.05158 -81.81135 13339 ft 169 kts 98°
2026-04-21 16:52 -33.05283 -81.79740 13338 ft 169 kts 98°
2026-04-21 16:52 -33.05408 -81.78344 13338 ft 169 kts 98°
2026-04-21 16:52 -33.05491 -81.77420 13339 ft 169 kts 98°
2026-04-21 16:52 -33.05655 -81.75570 13339 ft 169 kts 98°
2026-04-21 16:53 -33.05780 -81.74173 13337 ft 169 kts 98°
2026-04-21 16:53 -33.05903 -81.72776 13336 ft 170 kts 98°
2026-04-21 16:53 -33.06027 -81.71381 13337 ft 169 kts 98°
2026-04-21 16:53 -33.06150 -81.69983 13336 ft 169 kts 98°
2026-04-21 16:54 -33.06274 -81.68584 13335 ft 170 kts 98°
2026-04-21 16:54 -33.06397 -81.67187 13336 ft 170 kts 98°
2026-04-21 16:54 -33.06520 -81.65789 13336 ft 170 kts 98°
2026-04-21 16:54 -33.06643 -81.64391 13337 ft 169 kts 98°
2026-04-21 16:55 -33.06762 -81.62994 13333 ft 169 kts 98°
2026-04-21 16:55 -33.06885 -81.61598 13333 ft 169 kts 98°
2026-04-21 16:55 -33.07010 -81.60204 13335 ft 169 kts 98°
2026-04-21 16:55 -33.07134 -81.58807 13335 ft 169 kts 98°
2026-04-21 16:56 -33.07257 -81.57412 13336 ft 169 kts 98°
2026-04-21 16:56 -33.07371 -81.56021 13336 ft 169 kts 97°
2026-04-21 16:56 -33.07477 -81.54623 13336 ft 169 kts 97°
2026-04-21 16:56 -33.07581 -81.53229 13336 ft 169 kts 97°
2026-04-21 16:57 -33.07686 -81.51832 13336 ft 169 kts 97°
2026-04-21 16:57 -33.07790 -81.50452 13333 ft 169 kts 97°
2026-04-21 16:57 -33.08056 -81.49071 13328 ft 169 kts 111°
2026-04-21 16:57 -33.08349 -81.47744 13335 ft 168 kts 106°
2026-04-21 16:58 -33.08623 -81.46387 13334 ft 168 kts 107°
2026-04-21 16:58 -33.08921 -81.45038 13334 ft 168 kts 108°
2026-04-21 16:58 -33.09232 -81.43695 13333 ft 168 kts 108°
2026-04-21 16:58 -33.09541 -81.42351 13333 ft 168 kts 108°
2026-04-21 16:59 -33.09844 -81.41007 13333 ft 168 kts 108°
2026-04-21 16:59 -33.10145 -81.39659 13333 ft 168 kts 108°
2026-04-21 16:59 -33.10444 -81.38311 13333 ft 168 kts 108°
2026-04-21 16:59 -33.10745 -81.36963 13333 ft 168 kts 108°
2026-04-21 17:00 -33.11046 -81.35616 13334 ft 169 kts 108°
2026-04-21 17:00 -33.11348 -81.34266 13335 ft 168 kts 108°
2026-04-21 17:00 -33.11549 -81.33373 13336 ft 168 kts 108°
2026-04-21 17:00 -33.11950 -81.31572 13336 ft 168 kts 108°
2026-04-21 17:01 -33.12251 -81.30223 13339 ft 169 kts 108°
2026-04-21 17:01 -33.12553 -81.28868 13335 ft 169 kts 108°
2026-04-21 17:01 -33.12853 -81.27517 13336 ft 169 kts 108°
2026-04-21 17:01 -33.13153 -81.26166 13333 ft 168 kts 108°
2026-04-21 17:02 -33.13455 -81.24815 13332 ft 168 kts 108°
2026-04-21 17:02 -33.13756 -81.23467 13332 ft 168 kts 108°
2026-04-21 17:02 -33.14056 -81.22118 13332 ft 168 kts 108°
2026-04-21 17:02 -33.14355 -81.20767 13332 ft 168 kts 108°
2026-04-21 17:03 -33.14654 -81.19420 13331 ft 168 kts 108°
2026-04-21 17:03 -33.14950 -81.18089 13331 ft 168 kts 108°
2026-04-21 17:03 -33.15249 -81.16740 13332 ft 168 kts 108°
2026-04-21 17:03 -33.15451 -81.15829 13332 ft 168 kts 108°
2026-04-21 17:04 -33.15749 -81.14481 13335 ft 168 kts 108°
2026-04-21 17:04 -33.16146 -81.12692 13330 ft 168 kts 108°
2026-04-21 17:04 -33.16444 -81.11344 13331 ft 168 kts 108°
2026-04-21 17:04 -33.16646 -81.10432 13331 ft 168 kts 108°
2026-04-21 17:05 -33.16944 -81.09080 13332 ft 168 kts 108°
2026-04-21 17:05 -33.17243 -81.07728 13329 ft 168 kts 108°
2026-04-21 17:05 -33.17542 -81.06377 13329 ft 168 kts 108°
2026-04-21 17:05 -33.17840 -81.05026 13330 ft 168 kts 108°
2026-04-21 17:06 -33.18134 -81.03692 13329 ft 168 kts 108°
2026-04-21 17:06 -33.18432 -81.02341 13329 ft 168 kts 108°
2026-04-21 17:06 -33.18730 -81.00989 13335 ft 168 kts 108°
2026-04-21 17:06 -33.19028 -80.99637 13330 ft 168 kts 108°
2026-04-21 17:07 -33.19326 -80.98285 13331 ft 168 kts 108°
2026-04-21 17:07 -33.19623 -80.96932 13336 ft 168 kts 108°
2026-04-21 17:07 -33.19921 -80.95579 13332 ft 168 kts 108°
2026-04-21 17:07 -33.20218 -80.94227 13332 ft 168 kts 108°
2026-04-21 17:08 -33.20514 -80.92876 13333 ft 169 kts 108°
2026-04-21 17:08 -33.20812 -80.91521 13329 ft 169 kts 108°
2026-04-21 17:08 -33.21108 -80.90169 13334 ft 168 kts 108°
2026-04-21 17:08 -33.21403 -80.88821 13330 ft 168 kts 108°
2026-04-21 17:09 -33.21994 -80.86130 13328 ft 168 kts 108°
2026-04-21 17:09 -33.22289 -80.84782 13329 ft 168 kts 108°
2026-04-21 17:09 -33.22583 -80.83437 13329 ft 168 kts 108°
2026-04-21 17:10 -33.22877 -80.82090 13334 ft 168 kts 108°
2026-04-21 17:10 -33.23171 -80.80743 13329 ft 168 kts 108°
2026-04-21 17:10 -33.23466 -80.79397 13332 ft 168 kts 108°
2026-04-21 17:10 -33.23760 -80.78051 13329 ft 168 kts 108°
2026-04-21 17:11 -33.24053 -80.76703 13329 ft 167 kts 108°
2026-04-21 17:11 -33.24347 -80.75358 13329 ft 167 kts 108°
2026-04-21 17:11 -33.24640 -80.74012 13323 ft 167 kts 108°
2026-04-21 17:11 -33.24933 -80.72665 13329 ft 167 kts 108°
2026-04-21 17:12 -33.25222 -80.71338 13330 ft 167 kts 108°
2026-04-21 17:12 -33.25515 -80.69990 13323 ft 168 kts 108°
2026-04-21 17:12 -33.25808 -80.68643 13323 ft 168 kts 108°
2026-04-21 17:12 -33.26101 -80.67295 13328 ft 168 kts 108°
2026-04-21 17:13 -33.26394 -80.65945 13326 ft 168 kts 108°
2026-04-21 17:13 -33.26687 -80.64595 13326 ft 168 kts 108°
2026-04-21 17:13 -33.26980 -80.63246 13331 ft 168 kts 108°
2026-04-21 17:13 -33.27272 -80.61898 13326 ft 168 kts 108°
2026-04-21 17:14 -33.27565 -80.60548 13324 ft 168 kts 108°
2026-04-21 17:14 -33.27857 -80.59198 13326 ft 168 kts 108°
2026-04-21 17:14 -33.28149 -80.57847 13324 ft 168 kts 108°
2026-04-21 17:14 -33.28442 -80.56494 13324 ft 168 kts 108°
2026-04-21 17:15 -33.28734 -80.55142 13326 ft 168 kts 108°
2026-04-21 17:15 -33.29026 -80.53791 13324 ft 168 kts 108°
2026-04-21 17:15 -33.29318 -80.52440 13324 ft 168 kts 108°
2026-04-21 17:15 -33.29609 -80.51091 13324 ft 168 kts 108°
2026-04-21 17:16 -33.29900 -80.49741 13328 ft 168 kts 108°
2026-04-21 17:16 -33.30191 -80.48388 13326 ft 168 kts 108°
2026-04-21 17:16 -33.30483 -80.47038 13323 ft 168 kts 108°
2026-04-21 17:16 -33.30770 -80.45702 13324 ft 168 kts 108°
2026-04-21 17:17 -33.31061 -80.44351 13321 ft 168 kts 108°
2026-04-21 17:17 -33.31351 -80.43000 13321 ft 168 kts 108°
2026-04-21 17:17 -33.31642 -80.41648 13331 ft 168 kts 108°
2026-04-21 17:17 -33.31933 -80.40295 13328 ft 168 kts 108°
2026-04-21 17:18 -33.32225 -80.38942 13326 ft 168 kts 108°
2026-04-21 17:18 -33.32516 -80.37588 13326 ft 168 kts 108°
2026-04-21 17:18 -33.32804 -80.36234 13322 ft 168 kts 108°
2026-04-21 17:18 -33.33091 -80.34876 13323 ft 168 kts 108°
2026-04-21 17:19 -33.33383 -80.33522 13323 ft 168 kts 108°
2026-04-21 17:19 -33.33676 -80.32167 13326 ft 168 kts 108°
2026-04-21 17:19 -33.33967 -80.30812 13318 ft 168 kts 108°
2026-04-21 17:19 -33.34256 -80.29459 13318 ft 168 kts 108°
2026-04-21 17:20 -33.34545 -80.28102 13317 ft 168 kts 108°
2026-04-21 17:20 -33.34833 -80.26747 13317 ft 168 kts 108°
2026-04-21 17:20 -33.35123 -80.25392 13317 ft 168 kts 108°
2026-04-21 17:20 -33.35412 -80.24037 13318 ft 168 kts 108°
2026-04-21 17:21 -33.35702 -80.22682 13318 ft 168 kts 108°
2026-04-21 17:21 -33.35991 -80.21325 13321 ft 168 kts 108°
2026-04-21 17:21 -33.36280 -80.19966 13323 ft 168 kts 108°
2026-04-21 17:21 -33.36568 -80.18610 13322 ft 168 kts 108°
2026-04-21 17:22 -33.36857 -80.17253 13323 ft 168 kts 108°
2026-04-21 17:22 -33.37146 -80.15895 13331 ft 168 kts 108°
2026-04-21 17:22 -33.37435 -80.14538 13325 ft 168 kts 107°
2026-04-21 17:22 -33.37718 -80.13200 13326 ft 168 kts 108°
2026-04-21 17:23 -33.38005 -80.11844 13317 ft 168 kts 108°
2026-04-21 17:23 -33.38293 -80.10488 13322 ft 168 kts 108°
2026-04-21 17:23 -33.38581 -80.09132 13317 ft 168 kts 107°
2026-04-21 17:23 -33.38873 -80.07757 13322 ft 168 kts 107°
2026-04-21 17:24 -33.39155 -80.06421 13317 ft 168 kts 107°
2026-04-21 17:24 -33.39442 -80.05063 13317 ft 168 kts 108°
2026-04-21 17:24 -33.39730 -80.03705 13317 ft 168 kts 108°
2026-04-21 17:24 -33.40018 -80.02347 13318 ft 168 kts 107°
2026-04-21 17:25 -33.40304 -80.00989 13317 ft 168 kts 107°
2026-04-21 17:25 -33.40590 -79.99628 13317 ft 168 kts 107°
2026-04-21 17:25 -33.40877 -79.98272 13321 ft 168 kts 108°
2026-04-21 17:25 -33.41164 -79.96916 13321 ft 168 kts 108°
2026-04-21 17:26 -33.41450 -79.95558 13315 ft 168 kts 108°
2026-04-21 17:26 -33.41736 -79.94200 13322 ft 168 kts 107°
2026-04-21 17:26 -33.42021 -79.92843 13315 ft 168 kts 107°
2026-04-21 17:26 -33.42307 -79.91483 13315 ft 168 kts 107°
2026-04-21 17:27 -33.42593 -79.90123 13315 ft 168 kts 107°
2026-04-21 17:27 -33.42879 -79.88763 13314 ft 168 kts 107°
2026-04-21 17:27 -33.43165 -79.87404 13315 ft 168 kts 107°
2026-04-21 17:27 -33.43450 -79.86045 13322 ft 168 kts 107°
2026-04-21 17:28 -33.43735 -79.84686 13318 ft 168 kts 107°
2026-04-21 17:28 -33.44020 -79.83327 13317 ft 169 kts 107°
2026-04-21 17:28 -33.44305 -79.81964 13317 ft 169 kts 107°
2026-04-21 17:28 -33.44589 -79.80602 13317 ft 169 kts 107°
2026-04-21 17:29 -33.44875 -79.79241 13326 ft 169 kts 107°
2026-04-21 17:29 -33.45163 -79.77878 13320 ft 169 kts 107°
2026-04-21 17:29 -33.45446 -79.76513 13314 ft 169 kts 107°
2026-04-21 17:29 -33.45730 -79.75146 13315 ft 169 kts 107°
2026-04-21 17:30 -33.46014 -79.73782 13322 ft 169 kts 107°
2026-04-21 17:30 -33.46300 -79.72416 13320 ft 169 kts 107°
2026-04-21 17:30 -33.46586 -79.71051 13315 ft 169 kts 107°
2026-04-21 17:30 -33.46870 -79.69686 13315 ft 169 kts 107°
2026-04-21 17:31 -33.47155 -79.68320 13316 ft 169 kts 107°
2026-04-21 17:31 -33.47438 -79.66957 13322 ft 169 kts 107°
2026-04-21 17:31 -33.47722 -79.65592 13315 ft 169 kts 107°
2026-04-21 17:31 -33.48005 -79.64227 13315 ft 169 kts 107°
2026-04-21 17:32 -33.48191 -79.63333 13298 ft 165 kts 107°
2026-04-21 17:32 -33.48565 -79.61539 13004 ft 169 kts 107°
2026-04-21 17:32 -33.48848 -79.60177 12867 ft 166 kts 107°
2026-04-21 17:32 -33.49123 -79.58844 12725 ft 165 kts 107°
2026-04-21 17:33 -33.49403 -79.57499 12533 ft 167 kts 107°
2026-04-21 17:33 -33.49679 -79.56163 12413 ft 164 kts 107°
2026-04-21 17:33 -33.49954 -79.54834 12242 ft 165 kts 107°
2026-04-21 17:33 -33.50231 -79.53502 12097 ft 164 kts 107°
2026-04-21 17:34 -33.50503 -79.52181 11962 ft 163 kts 107°
2026-04-21 17:34 -33.50776 -79.50857 11795 ft 164 kts 107°
2026-04-21 17:34 -33.51049 -79.49538 11677 ft 162 kts 107°
2026-04-21 17:34 -33.51321 -79.48226 11533 ft 163 kts 107°
2026-04-21 17:35 -33.51592 -79.46911 11397 ft 162 kts 107°
2026-04-21 17:35 -33.51860 -79.45603 11266 ft 162 kts 107°
2026-04-21 17:35 -33.52127 -79.44312 11133 ft 162 kts 107°
2026-04-21 17:35 -33.52396 -79.43007 11010 ft 161 kts 107°
2026-04-21 17:36 -33.52665 -79.41709 10882 ft 160 kts 107°
2026-04-21 17:36 -33.52932 -79.40410 10759 ft 160 kts 106°
2026-04-21 17:36 -33.53196 -79.39117 10639 ft 160 kts 106°
2026-04-21 17:36 -33.53460 -79.37826 10518 ft 159 kts 106°
2026-04-21 17:37 -33.53725 -79.36540 10408 ft 159 kts 107°
2026-04-21 17:37 -33.53990 -79.35256 10289 ft 159 kts 106°
2026-04-21 17:37 -33.54165 -79.34405 10216 ft 159 kts 106°
2026-04-21 17:37 -33.54516 -79.32690 10058 ft 158 kts 106°
2026-04-21 17:38 -33.54778 -79.31414 9931 ft 157 kts 106°
2026-04-21 17:38 -33.55037 -79.30144 9812 ft 157 kts 106°
2026-04-21 17:38 -33.55295 -79.28877 9696 ft 155 kts 107°
2026-04-21 17:38 -33.55554 -79.27617 9483 ft 157 kts 107°
2026-04-21 17:39 -33.55813 -79.26349 9300 ft 156 kts 107°
2026-04-21 17:39 -33.56069 -79.25100 9137 ft 154 kts 107°
2026-04-21 17:39 -33.56326 -79.23847 8944 ft 155 kts 107°
2026-04-21 17:39 -33.56579 -79.22605 8794 ft 152 kts 107°
2026-04-21 17:40 -33.56831 -79.21371 8614 ft 152 kts 107°
2026-04-21 17:40 -33.57081 -79.20141 8454 ft 151 kts 107°
2026-04-21 17:40 -33.57330 -79.18919 8290 ft 151 kts 107°
2026-04-21 17:40 -33.57579 -79.17698 8136 ft 150 kts 107°
2026-04-21 17:41 -33.57822 -79.16506 7955 ft 147 kts 107°
2026-04-21 17:41 -33.58067 -79.15298 7609 ft 151 kts 107°
2026-04-21 17:41 -33.58313 -79.14085 7369 ft 147 kts 108°
2026-04-21 17:41 -33.58554 -79.12898 7081 ft 147 kts 108°
2026-04-21 17:42 -33.58797 -79.11708 6806 ft 145 kts 108°
2026-04-21 17:42 -33.59036 -79.10537 6497 ft 145 kts 108°
2026-04-21 17:42 -33.59276 -79.09361 6169 ft 146 kts 108°
2026-04-21 17:42 -33.59512 -79.08187 5859 ft 144 kts 108°
2026-04-21 17:43 -33.59748 -79.07020 5514 ft 144 kts 108°
2026-04-21 17:43 -33.59984 -79.05848 5183 ft 146 kts 109°
2026-04-21 17:43 -33.60232 -79.04680 4952 ft 141 kts 108°
2026-04-21 17:43 -33.60461 -79.03526 4639 ft 144 kts 106°
2026-04-21 17:44 -33.60690 -79.02358 4355 ft 142 kts 107°
2026-04-21 17:44 -33.60918 -79.01216 4082 ft 141 kts 107°
2026-04-21 17:44 -33.61153 -79.00066 3790 ft 142 kts 107°
2026-04-21 17:44 -33.61385 -78.98914 3520 ft 142 kts 107°
2026-04-21 17:45 -33.61608 -78.97789 3325 ft 132 kts 107°
2026-04-21 17:45 -33.61785 -78.96772 3321 ft 117 kts 107°
2026-04-21 17:45 -33.61948 -78.95905 3302 ft 95 kts 109°
2026-04-21 17:45 -33.61836 -78.95164 2996 ft 94 kts 55°
2026-04-21 17:46 -33.61265 -78.94785 2701 ft 95 kts
2026-04-21 17:46 -33.60636 -78.94939 2416 ft 92 kts 324°
2026-04-21 17:46 -33.60252 -78.95505 2163 ft 86 kts 281°
2026-04-21 17:46 -33.60351 -78.96144 1975 ft 76 kts 221°
2026-04-21 17:47 -33.60823 -78.96299 1852 ft 70 kts 182°
2026-04-21 17:47 -33.61309 -78.96284 1737 ft 69 kts 181°
2026-04-21 17:47 -33.61801 -78.96244 1637 ft 71 kts 175°
2026-04-21 17:47 -33.62281 -78.96102 1571 ft 71 kts 167°
2026-04-21 17:48 -33.62597 -78.95974 1519 ft 71 kts 165°
2026-04-21 17:48 -33.63213 -78.95709 1426 ft 72 kts 162°
2026-04-21 17:48 -33.63625 -78.95374 1336 ft 74 kts 139°
2026-04-21 17:48 -33.63973 -78.94915 1243 ft 75 kts 141°
2026-04-21 17:49 -33.64383 -78.94519 1117 ft 75 kts 155°
2026-04-21 17:49 -33.64833 -78.94199 925 ft 75 kts 155°
2026-04-21 17:49 -33.65277 -78.93862 713 ft 75 kts 158°
2026-04-21 17:49 -33.65735 -78.93554 548 ft 74 kts 154°
2026-04-21 17:50 -33.66164 -78.93233 421 ft 72 kts 156°
2026-04-21 17:50 -33.66559 -78.92937 381 ft 52 kts 152°
2026-04-21 17:50 -33.66767 -78.92793 390 ft 22 kts 153°
2026-04-21 17:50 -33.66819 -78.92767 393 ft 4 kts 166°
2026-04-21 17:51 -33.66802 -78.92769 392 ft 13 kts 330°
2026-04-21 17:51 -33.66704 -78.92839 386 ft 16 kts 330°
2026-04-21 17:51 -33.66623 -78.92897 383 ft 12 kts 327°
2026-04-21 17:51 -33.66599 -78.92947 382 ft 4 kts 242°
2026-04-21 17:52 -33.66614 -78.92976 383 ft 3 kts 216°
2026-04-21 17:52 -33.66631 -78.92973 384 ft 2 kts 140°
2026-04-21 17:52 -33.66633 -78.92971 384 ft 0 kts 142°